GFSSGP_925_rhum_000.txt.gz
RH
18 15 17 9 10 11 12 12 11 11 11 20 27 27 35 37 42 44 63 85 99 93 85 81 62 49 42 60 80 89 74 74 82 78 75 75 72 74 82 70 71 72 74 72 70 72 78 81 77
18 12 8 7 12 13 12 11 12 10 7 10 22 32 30 47 41 50 53 84 90 92 77 76 66 48 35 25 44 69 76 73 38 75 83 79 84 70 60 91 74 74 75 76 70 70 78 89 89
18 6 6 8 12 13 14 12 9 6 7 10 28 31 36 50 50 57 77 82 86 84 82 88 70 56 46 32 24 41 57 68 72 80 84 86 81 82 75 91 80 79 77 79 84 84 91 92 91
10 5 6 8 10 10 10 9 8 6 13 18 25 43 53 70 81 70 74 81 84 83 82 94 84 74 60 45 32 29 47 54 68 71 75 82 77 80 80 79 79 82 82 82 86 94 93 94 91
7 5 7 9 10 8 8 9 10 12 21 26 27 42 57 65 84 70 73 78 78 84 84 88 88 86 78 67 51 46 49 53 59 69 71 71 86 85 88 87 87 84 85 84 89 88 87 88 96
6 7 8 10 10 8 7 9 12 18 22 28 33 39 50 67 78 87 78 79 73 74 81 84 93 86 81 80 78 67 63 68 70 66 60 67 72 78 80 76 74 78 81 82 82 78 80 82 89
7 7 9 9 10 9 9 8 15 15 20 30 29 35 47 57 85 97 83 78 77 76 78 80 81 83 79 78 82 83 76 76 78 76 72 60 61 65 62 60 72 76 87 92 92 85 85 86 83
7 7 9 8 9 10 9 11 16 18 21 22 25 30 43 53 86 82 79 77 72 71 71 77 77 78 84 82 73 72 78 80 79 81 86 82 77 78 87 80 74 77 80 84 85 86 88 89 80
7 7 9 10 9 9 8 9 18 22 22 28 30 34 44 62 64 64 64 56 54 57 64 82 80 86 83 72 66 72 72 72 74 82 84 85 92 92 100 98 98 94 82 77 81 89 89 81 74
7 8 12 13 11 9 8 10 14 17 21 30 36 38 44 50 50 48 41 40 40 46 47 62 84 82 77 66 68 85 87 86 86 86 92 90 66 67 74 73 78 86 89 88 90 90 93 82 77
12 13 12 15 16 14 10 11 16 14 15 20 27 34 34 36 35 33 30 31 35 42 45 53 67 76 76 75 72 76 98 95 87 90 88 80 70 73 71 70 59 78 75 78 83 99 95 95 90
16 18 18 19 17 14 14 15 14 15 18 22 26 28 29 27 26 25 26 28 32 39 40 44 62 73 75 66 67 68 67 69 72 86 93 97 99 100 86 84 97 94 86 66 70 76 74 88 95
18 20 22 20 18 18 18 18 18 17 21 23 23 25 22 21 22 25 26 28 30 34 38 39 47 57 62 63 61 61 59 58 61 63 74 74 84 97 97 61 52 65 64 57 64 71 97 95 87
23 24 24 22 21 21 22 19 19 18 21 23 23 21 20 21 21 23 25 27 27 29 32 34 37 46 48 55 56 52 48 44 44 50 61 72 72 92 96 92 89 95 98 98 87 87 84 93 92
22 22 24 22 21 22 20 20 19 16 21 22 22 21 20 20 22 22 23 25 25 25 28 28 30 36 37 42 39 34 34 34 39 50 65 68 67 81 90 83 81 85 98 98 99 100 98 96 99
23 20 17 18 19 21 20 12 15 16 19 19 19 20 20 20 21 21 24 24 25 22 23 25 22 30 32 33 29 27 30 32 38 49 53 58 59 61 64 68 75 82 87 85 86 92 92 98 100
17 16 19 16 18 18 18 16 10 15 18 17 15 17 19 20 20 21 24 24 25 22 21 25 27 27 28 29 31 36 39 32 35 40 41 47 44 46 42 48 56 55 51 61 65 70 81 80 93
22 20 20 22 14 18 17 15 11 10 12 15 15 15 16 19 19 22 25 25 24 24 22 25 26 30 30 29 31 33 34 35 32 32 35 38 39 39 34 37 47 42 37 37 39 40 43 54 76
24 23 19 15 17 23 18 17 14 12 12 14 17 17 17 18 19 22 26 26 26 26 24 24 26 29 28 28 27 26 27 30 34 31 34 38 34 34 35 31 33 35 38 42 40 34 33 35 49
22 23 20 18 18 23 21 19 13 12 14 17 18 17 18 19 20 23 25 28 30 26 25 23 23 27 26 24 24 25 26 26 26 31 38 38 38 36 33 32 31 35 31 33 37 38 34 29 36
22 25 23 25 22 18 21 13 13 13 16 18 18 20 20 21 21 22 24 28 30 30 28 26 24 24 25 25 25 26 28 29 28 28 29 35 42 42 43 40 38 36 38 35 36 36 37 32 29
26 24 25 27 28 22 24 19 15 15 15 15 18 18 18 19 20 22 23 26 30 31 31 29 24 23 24 28 24 27 23 21 21 27 28 33 40 44 44 45 46 49 44 40 36 32 36 36 34
26 26 27 30 30 29 26 27 17 18 16 16 16 18 19 20 22 22 22 25 27 30 33 33 27 26 24 29 32 30 30 26 28 32 37 37 39 43 44 45 50 53 52 46 48 48 40 38 38
25 27 27 31 32 41 28 27 19 18 19 18 16 19 21 20 21 22 24 26 26 30 35 36 31 27 28 32 35 35 32 31 31 32 34 32 33 33 38 42 46 49 50 50 50 49 50 48 44
28 31 44 43 41 35 29 32 23 19 18 20 21 22 22 22 23 23 22 24 26 27 32 33 32 29 29 35 37 40 41 40 37 36 32 36 32 34 34 35 37 36 38 41 42 43 44 44 41
31 33 47 78 46 39 27 36 19 18 18 19 22 22 23 23 23 23 23 24 25 27 29 30 28 30 29 36 41 44 42 35 34 37 34 34 35 36 38 41 38 37 38 39 38 38 36 35 40
37 41 34 46 58 56 34 26 22 18 20 22 21 22 24 25 25 24 23 26 28 28 29 32 31 29 32 39 44 42 42 39 34 38 39 35 37 34 32 38 42 42 45 47 48 45 44 44 46
36 31 50 48 84 71 32 31 27 23 23 22 24 24 27 28 28 27 26 26 28 30 29 32 38 32 36 41 42 40 40 38 36 39 39 40 41 39 39 42 44 46 47 48 49 48 46 45 46
43 46 38 40 48 67 66 40 23 26 25 26 25 26 28 29 30 29 28 28 30 33 35 39 37 33 37 40 44 42 37 36 40 41 41 40 42 43 44 47 49 49 49 50 51 52 52 52 50
40 45 42 59 56 56 72 61 27 26 25 28 28 27 27 28 28 28 31 32 32 33 33 36 36 34 37 39 44 42 39 42 43 41 43 44 46 48 51 51 50 49 47 47 49 52 52 53 53

GFSSGP_925_rhum_003.txt.gz
RH
13 12 8 8 9 7 8 9 8 8 10 19 16 19 29 29 38 56 50 74 91 77 68 70 58 51 52 65 63 67 72 78 81 82 78 76 75 69 78 74 64 75 86 75 74 74 68 74 73
14 6 6 6 9 10 8 9 8 8 7 12 19 17 23 41 30 41 42 68 80 83 68 64 61 51 41 50 56 62 72 81 60 78 86 78 76 57 63 63 44 46 74 78 78 77 76 78 80
15 6 6 6 7 10 13 9 8 6 8 10 19 23 28 42 38 43 55 63 69 71 69 83 67 62 50 43 53 69 77 71 79 91 89 83 84 74 84 58 48 47 77 89 84 80 81 87 91
7 4 5 8 9 10 10 9 8 7 11 11 16 35 43 55 46 47 55 60 73 83 83 80 75 72 60 52 62 68 65 71 77 76 79 79 84 89 88 70 59 70 94 96 88 86 82 88 87
5 4 6 7 8 7 7 8 8 9 15 18 17 28 47 58 71 64 66 68 64 78 90 95 83 84 79 66 49 53 66 72 66 69 75 67 70 87 90 93 88 85 74 88 87 84 79 95 90
5 5 7 8 8 7 7 8 11 14 16 21 22 32 41 59 67 75 59 53 53 60 73 81 81 78 78 76 73 66 64 72 78 74 69 67 59 67 66 72 80 76 84 85 83 82 85 80 74
6 6 6 7 8 8 7 6 9 10 14 20 20 24 38 45 66 72 57 56 56 56 60 63 66 75 81 77 69 71 75 72 74 79 80 76 66 56 78 80 78 90 97 99 95 89 86 86 82
5 5 6 6 7 8 7 8 8 8 9 14 13 19 33 40 67 63 60 58 58 57 54 57 59 60 67 67 69 60 63 71 76 78 80 82 79 78 61 81 84 74 84 86 85 95 88 86 89
4 6 7 7 7 7 6 6 9 10 10 11 13 15 30 45 56 52 48 47 46 48 52 67 63 68 65 55 52 69 70 69 72 80 76 80 83 98 86 62 73 80 80 79 92 98 99 87 84
6 7 8 8 6 6 6 6 8 10 11 14 18 26 36 42 38 36 35 34 34 37 39 47 71 74 69 54 53 67 75 71 71 73 83 74 84 86 89 95 83 75 68 64 62 71 71 99 88
8 9 7 8 10 8 8 7 9 9 10 10 14 21 29 32 32 34 29 27 26 34 36 46 62 74 73 63 60 72 82 78 74 78 74 90 86 89 88 99 94 78 65 81 82 76 73 72 74
11 10 10 12 12 10 11 11 11 10 10 12 13 16 23 27 27 26 24 21 25 30 35 43 63 69 66 55 55 61 62 63 61 74 76 78 76 91 91 96 92 93 90 88 75 83 79 78 77
14 14 14 14 14 14 14 14 14 13 12 14 17 21 22 22 21 20 20 22 24 28 33 38 50 59 63 57 57 56 52 51 53 53 63 60 60 74 76 80 80 84 87 87 94 67 59 72 76
14 15 16 15 15 14 16 12 12 11 13 15 17 18 17 17 16 18 20 21 24 25 30 36 40 48 49 53 55 50 45 44 42 49 59 67 65 72 73 73 78 78 95 99 97 99 99 95 84
16 18 15 15 13 14 13 11 14 9 13 14 16 17 16 15 16 17 19 20 22 24 27 30 32 38 40 42 37 31 32 35 41 52 60 60 58 65 59 56 57 64 83 85 84 92 96 99 97
15 15 10 10 12 12 12 10 8 9 12 14 13 14 15 16 16 16 18 20 22 22 24 25 18 27 29 30 29 26 30 33 40 46 50 53 53 53 52 50 52 57 56 62 71 79 83 89 99
10 12 13 12 9 12 10 12 7 8 9 12 11 10 12 14 14 16 17 20 22 22 22 23 23 25 28 29 25 31 36 29 33 38 40 45 42 42 37 40 44 45 39 40 40 39 49 57 63
15 16 15 14 10 12 14 14 10 9 8 8 9 10 10 10 13 14 18 21 22 23 22 23 24 24 26 26 29 29 30 32 33 32 32 39 36 35 33 33 41 40 35 36 42 40 36 37 40
17 18 17 14 13 18 17 15 11 9 8 9 10 12 12 12 11 14 18 22 24 23 26 24 25 25 26 24 24 25 28 29 30 29 32 35 30 34 35 30 32 35 32 38 42 40 38 34 34
16 18 17 15 14 17 17 15 10 10 12 11 12 13 14 14 14 16 18 23 25 25 25 23 23 24 27 23 24 23 24 24 26 28 33 39 36 35 34 32 33 32 34 37 37 40 39 36 32
16 21 21 22 19 15 16 13 11 12 11 12 14 15 14 16 15 16 19 22 25 28 27 26 22 23 25 24 21 24 27 28 26 26 30 36 41 39 37 37 36 38 40 37 37 38 38 36 36
21 20 22 24 24 22 16 17 13 12 12 13 14 15 16 16 16 16 18 20 23 27 30 29 26 24 24 25 24 22 22 22 21 21 22 24 29 37 39 38 36 36 39 40 40 37 38 41 40
23 22 25 24 27 24 19 20 13 13 13 13 14 15 16 16 17 18 18 19 21 24 30 32 30 27 24 23 28 26 27 28 25 26 28 31 34 36 39 38 38 40 39 38 40 42 45 44 45
22 24 21 24 26 35 24 22 15 14 14 14 14 15 18 18 19 18 18 20 21 24 30 33 33 31 27 26 26 32 32 30 29 29 31 34 31 32 32 34 37 41 41 40 41 43 45 45 46
24 27 40 40 35 34 22 27 19 14 14 14 16 17 18 19 21 21 20 20 20 22 26 31 34 33 29 27 29 32 35 36 36 36 35 33 37 34 35 35 36 37 36 36 36 38 40 41 41
31 31 47 66 42 36 23 27 18 13 13 14 17 18 20 20 23 23 23 23 23 23 24 26 28 30 28 28 30 33 36 40 40 36 37 36 33 34 35 37 37 37 37 36 37 37 38 37 38
32 40 31 45 42 55 34 20 16 14 15 18 19 18 20 23 24 25 25 25 26 26 26 27 29 30 28 28 29 36 42 42 36 34 38 37 34 33 30 35 38 37 36 37 40 42 42 42 42
33 30 47 48 85 63 34 31 26 20 18 17 19 22 23 24 24 25 25 26 29 30 30 30 32 31 32 29 34 43 43 41 38 39 39 38 38 38 36 36 36 36 37 39 42 44 43 45 46
36 39 37 34 42 66 61 38 22 24 24 23 22 23 24 24 26 26 25 27 30 32 32 32 32 33 35 31 41 42 41 39 38 38 37 39 40 39 38 37 37 38 40 42 42 42 44 46 46
30 36 36 54 54 50 60 58 24 24 23 23 24 24 24 24 26 26 27 31 32 32 30 30 32 35 32 36 40 42 41 37 38 40 39 40 42 41 40 40 40 40 40 40 40 41 41 42 43

GFSSGP_925_rhum_006.txt.gz
RH
9 11 11 8 12 9 10 8 7 8 11 17 15 26 36 40 46 72 62 78 75 66 68 57 48 41 49 68 83 89 93 86 84 83 81 82 80 76 70 61 44 69 58 53 69 86 77 67 64
10 11 5 8 12 12 11 8 8 7 8 12 15 28 50 46 41 46 61 70 72 69 71 58 54 48 42 51 76 88 88 84 74 68 81 82 79 74 78 65 41 50 63 52 43 73 93 76 74
11 11 6 8 10 13 15 9 8 6 8 10 16 36 62 48 38 45 61 70 73 69 76 60 59 56 48 39 45 69 79 86 86 84 83 78 80 80 73 73 69 70 72 76 92 99 99 83 80
7 6 6 9 9 9 10 9 8 7 9 9 13 39 49 43 40 49 53 64 68 72 76 64 64 62 55 48 58 60 54 63 65 64 69 85 85 84 85 62 60 63 77 83 98 92 65 98 84
6 6 8 7 8 7 8 8 8 8 13 14 15 62 56 54 54 53 56 53 62 72 81 65 59 64 66 59 48 49 54 53 50 46 56 68 74 91 90 90 89 86 83 83 59 60 62 79 70
7 6 8 8 7 7 8 8 9 12 14 16 54 75 52 54 54 55 50 45 52 67 75 78 66 61 64 64 64 61 57 57 60 59 51 51 61 61 68 75 73 69 77 81 72 68 74 80 73
7 8 7 7 8 7 7 6 8 9 14 15 32 66 57 50 56 54 45 47 47 50 55 59 73 69 76 73 62 62 67 66 66 69 66 63 63 72 62 56 63 71 78 90 94 93 88 85 77
6 5 6 6 7 8 6 7 7 8 8 6 7 24 62 41 56 55 50 48 48 50 52 53 53 67 73 72 58 60 60 64 68 72 75 74 75 80 87 84 78 80 85 82 86 94 98 98 92
4 6 6 6 7 6 5 6 8 8 8 9 10 16 34 46 52 48 46 42 42 43 46 59 64 66 65 59 52 70 73 72 75 74 71 74 88 86 97 94 90 78 74 71 78 80 86 95 98
7 8 8 6 6 7 6 6 7 7 8 10 14 16 27 37 40 36 31 32 33 34 35 42 63 72 72 58 50 70 71 76 80 79 81 76 83 83 82 89 89 80 76 66 65 66 67 66 72
8 9 7 8 10 7 8 7 8 8 9 11 12 17 20 24 25 27 24 25 26 32 36 44 59 72 72 65 61 66 73 70 72 77 75 77 80 86 85 88 95 98 87 65 57 70 68 68 68
11 10 10 11 11 11 12 12 11 10 10 11 11 13 17 21 23 25 24 22 23 26 32 40 61 68 63 58 56 60 61 64 64 74 72 66 70 70 85 88 87 80 88 97 97 70 77 74 70
12 12 12 12 13 12 12 12 12 11 9 12 11 16 18 20 21 21 20 19 21 25 30 36 50 62 66 57 58 56 52 52 54 56 61 61 61 73 74 76 77 80 85 86 81 78 66 66 70
13 13 13 12 11 11 14 11 10 9 9 12 13 16 17 19 18 18 19 19 22 23 27 36 41 50 52 54 58 56 50 47 45 51 61 67 67 72 74 71 72 72 83 88 87 98 94 89 95
13 16 15 14 10 9 11 10 10 10 11 12 12 15 15 15 15 16 16 19 20 22 25 32 36 43 48 52 52 45 40 38 43 54 62 64 62 62 57 57 56 62 72 74 79 84 80 84 88
15 14 11 9 10 10 10 12 8 8 9 12 12 13 15 15 14 14 16 17 19 21 24 28 25 31 37 38 35 32 32 35 41 50 56 56 55 56 53 50 53 48 49 51 51 45 49 63 69
12 14 13 13 9 9 10 13 9 8 8 9 11 11 12 14 14 14 15 17 19 22 22 24 23 21 29 30 31 28 31 32 36 44 47 50 46 43 39 41 44 41 38 38 41 42 39 38 38
19 18 16 16 12 13 15 16 12 10 9 9 10 10 11 11 11 13 14 16 20 22 23 23 24 25 27 27 27 31 34 33 32 36 37 42 38 38 35 34 38 41 37 38 42 44 41 41 37
14 16 16 15 12 15 17 16 13 9 9 11 11 13 14 13 11 11 14 17 21 22 25 25 24 26 26 28 28 29 30 30 32 31 31 35 36 37 37 35 32 34 35 37 37 39 42 41 41
13 15 19 17 15 18 18 16 12 10 12 12 12 14 16 16 15 16 17 20 22 24 25 26 25 25 26 28 27 25 27 28 30 30 31 34 36 34 35 36 34 35 36 38 39 43 41 43 39
15 22 23 24 20 15 16 13 13 12 12 12 14 15 15 17 18 18 18 19 23 26 28 28 27 25 25 27 26 25 25 26 28 28 29 35 36 39 39 38 38 37 38 41 42 40 40 43 45
22 19 23 25 26 29 19 22 12 12 14 14 15 18 18 18 18 18 18 18 20 24 27 30 30 27 25 25 27 27 26 29 28 26 27 27 33 39 39 40 39 39 38 39 41 44 46 47 51
24 22 26 24 26 26 20 20 14 12 12 14 16 17 20 20 22 22 22 20 20 21 26 28 31 32 29 27 27 27 27 28 27 29 28 28 31 33 35 39 38 39 42 43 44 43 44 47 52
21 24 23 21 26 46 24 23 21 14 14 13 13 16 20 22 24 23 21 21 22 22 24 28 32 34 33 31 29 28 29 30 34 32 34 33 34 34 33 35 38 40 41 40 39 39 39 41 44
24 31 52 59 54 50 22 26 24 17 13 14 16 19 22 22 25 28 27 26 25 25 25 28 32 34 35 34 34 30 32 34 35 38 39 36 38 36 35 36 39 39 38 36 34 34 36 40 43
30 33 61 68 54 50 30 31 18 12 12 14 15 17 21 23 26 27 28 28 27 28 29 27 26 28 30 32 33 34 32 35 38 41 40 37 38 36 38 38 38 37 37 39 38 38 40 43 43
31 38 31 49 54 64 43 28 20 15 15 17 18 19 25 25 27 27 27 27 28 30 31 31 32 35 32 32 33 32 34 37 41 42 39 40 38 36 35 39 41 40 39 40 40 41 43 45 46
31 29 49 60 89 64 38 39 33 24 26 26 25 25 27 28 29 29 29 28 32 33 34 34 36 34 33 34 34 34 39 44 44 38 41 41 41 46 45 46 43 39 39 40 40 43 46 48 49
32 38 39 36 51 71 76 47 29 31 29 29 27 27 28 29 29 30 30 29 33 35 38 38 33 32 33 36 37 38 45 44 42 42 42 49 48 55 50 42 42 41 41 41 42 44 45 47 47
27 34 35 73 68 61 68 62 30 28 25 28 27 26 27 29 28 30 30 30 36 40 46 46 35 32 34 36 38 46 44 42 41 40 44 54 48 53 44 42 42 42 42 42 43 44 44 46 46

GFSSGP_925_rhum_009.txt.gz
RH
5 8 10 14 19 21 19 14 10 14 17 41 42 51 61 59 68 93 76 70 70 70 57 45 38 43 61 76 85 89 82 80 84 85 83 80 78 76 70 70 68 47 52 53 65 69 73 74 83
7 8 8 13 21 23 19 10 11 11 12 34 35 35 57 72 65 74 75 70 72 71 59 51 40 30 33 55 72 79 80 77 72 80 84 84 82 76 70 71 63 50 46 50 65 57 70 54 75
12 14 11 16 20 19 18 12 10 10 9 12 53 41 54 62 55 69 70 66 73 72 57 53 46 39 39 53 66 66 65 66 76 80 79 80 83 81 71 65 60 60 67 73 73 68 64 57 72
15 11 12 13 12 12 13 11 9 10 10 35 53 66 61 58 55 68 67 70 72 75 60 60 55 47 40 38 41 45 44 42 40 49 68 80 78 78 78 64 74 67 73 79 77 81 64 63 55
13 12 13 12 11 11 12 11 10 19 44 53 55 68 69 58 56 56 66 67 73 76 64 58 56 56 55 50 44 40 37 38 47 52 52 56 64 77 76 80 63 78 79 78 76 48 65 61 66
12 12 14 14 12 10 9 10 11 15 23 42 57 67 68 57 57 54 57 64 62 68 70 65 62 66 63 54 53 54 53 51 56 66 64 62 71 83 90 90 84 80 74 66 59 59 67 62 60
11 14 14 12 12 10 8 8 10 12 14 25 48 65 65 53 56 55 49 49 58 64 69 69 70 73 72 67 52 53 59 61 59 66 74 72 74 75 72 81 83 84 81 75 84 90 91 85 83
9 12 10 10 12 10 6 8 9 11 9 14 38 63 60 43 57 55 50 50 50 55 60 74 79 72 69 67 56 66 59 64 66 68 77 72 74 84 90 87 85 87 89 86 82 84 90 91 89
6 14 15 11 10 8 6 9 9 9 10 10 18 52 46 34 57 56 49 50 46 44 46 53 68 77 70 68 58 70 72 74 77 76 69 76 89 84 86 88 87 79 77 84 81 82 84 86 85
13 15 10 12 11 11 10 9 8 8 10 14 25 46 48 50 54 55 51 46 37 38 39 42 41 58 60 71 60 70 72 75 76 78 76 81 85 78 80 84 88 86 80 78 66 70 71 81 79
12 15 14 14 15 12 13 15 11 10 12 17 20 35 49 51 49 46 34 32 33 34 35 38 53 63 70 65 67 69 69 74 71 78 81 83 82 77 85 83 89 93 92 79 72 68 68 70 70
15 14 15 13 13 13 16 14 15 12 13 14 14 26 26 30 32 29 27 26 28 35 35 38 45 60 63 60 68 65 68 66 73 74 74 60 66 69 85 85 89 81 70 66 74 72 68 56 54
15 14 13 14 14 15 13 15 16 14 12 14 14 19 25 28 26 25 22 21 24 28 34 37 41 61 59 58 58 59 61 60 61 60 67 67 70 70 74 77 76 80 88 87 93 95 94 90 90
15 16 15 15 15 13 16 17 14 12 13 15 16 21 20 24 23 24 20 20 21 23 33 36 39 49 58 58 55 56 52 52 51 53 54 63 68 74 78 78 75 72 72 73 74 77 87 88 91
16 18 20 16 14 11 11 14 14 12 16 16 17 20 22 23 20 21 19 19 20 22 26 31 37 46 50 56 58 53 47 40 42 46 52 63 67 67 63 64 60 65 60 67 59 51 44 56 68
20 20 22 18 14 13 12 18 12 11 17 18 16 19 20 20 18 17 17 18 19 21 24 30 30 37 42 49 44 39 40 36 39 45 47 45 58 56 54 53 54 52 46 46 41 39 38 38 37
22 26 21 20 13 12 13 19 17 15 14 17 18 17 20 21 19 16 16 17 19 21 24 26 28 25 32 35 37 32 34 33 38 45 48 46 38 44 44 45 46 37 39 38 39 40 41 40 41
25 24 21 22 17 19 21 23 19 16 15 15 17 17 16 18 19 16 16 17 20 22 23 23 25 24 24 29 30 31 32 32 32 44 46 42 38 37 37 40 39 37 37 39 40 38 42 41 40
19 20 23 23 20 25 24 26 21 16 17 18 20 22 23 21 23 22 20 20 21 23 23 24 24 25 26 27 28 28 31 32 32 33 34 42 38 36 35 33 40 38 37 39 42 41 41 40 42
21 25 32 24 23 25 28 26 22 16 16 19 23 23 23 23 24 24 22 21 21 23 23 24 25 25 25 26 27 27 27 28 28 30 32 38 36 38 36 35 35 34 35 35 37 42 45 44 40
24 30 32 33 30 28 26 28 19 17 17 20 20 20 21 21 21 22 20 22 23 23 24 25 26 26 26 25 26 27 27 27 30 30 33 34 33 33 35 36 38 37 38 38 41 42 40 45 50
28 28 30 33 39 43 27 43 20 20 20 20 20 25 26 24 24 24 20 20 22 23 25 26 27 29 29 27 27 26 27 29 27 24 25 28 34 33 37 38 40 41 41 41 45 52 48 47 53
28 27 32 35 41 35 32 33 22 20 21 22 26 28 28 29 27 25 23 24 24 22 22 26 29 30 30 31 31 29 27 26 28 28 26 30 30 35 42 43 42 41 44 45 45 42 41 40 42
26 34 38 41 39 61 38 38 36 23 18 21 26 28 29 28 28 28 24 24 24 25 25 24 25 26 26 30 32 33 33 30 28 30 32 32 37 39 39 40 39 40 41 38 36 32 28 27 27
35 48 75 68 72 69 34 39 36 26 20 24 27 26 25 25 33 27 26 28 27 28 28 29 31 32 31 31 32 34 34 34 33 29 33 37 37 36 36 36 38 41 46 46 49 45 43 30 33
41 38 83 74 83 72 42 47 32 23 21 21 19 20 29 27 29 31 30 33 33 31 32 33 35 35 34 35 37 38 37 38 37 34 39 43 41 38 40 40 42 46 57 61 66 65 36 35 38
40 60 38 54 60 84 63 42 25 25 28 28 29 28 27 26 31 31 32 34 35 36 39 39 39 39 35 33 35 34 34 44 49 46 43 38 38 40 45 50 63 66 73 66 52 44 38 39 40
34 35 64 82 93 84 58 53 47 41 35 33 37 34 32 33 34 40 38 36 35 38 42 44 47 45 42 33 35 37 40 47 44 42 41 40 46 52 58 68 79 76 51 51 39 39 41 44 45
42 49 48 50 70 93 98 75 37 38 37 42 32 33 38 39 42 41 38 38 41 44 48 52 52 52 44 34 37 39 44 45 40 43 44 49 53 60 68 65 58 56 43 39 42 43 43 44 45
31 45 46 84 90 85 89 72 37 40 39 32 34 38 41 38 40 42 45 44 44 48 52 55 55 54 35 37 41 45 45 43 41 42 44 51 55 55 64 55 48 41 44 45 46 46 44 44 48

GFSSGP_925_rhum_012.txt.gz
RH
6 6 10 13 18 22 20 13 11 18 48 56 56 57 66 70 73 87 81 75 63 57 46 41 46 57 68 76 85 80 81 81 76 78 74 68 65 64 63 64 64 57 53 60 58 76 73 73 68
11 10 8 17 23 25 20 12 13 24 50 45 45 60 69 89 78 83 78 74 69 64 50 40 36 46 61 65 72 77 73 65 64 76 80 78 74 70 68 72 68 62 57 70 56 56 57 68 68
12 15 11 18 24 22 18 13 10 33 42 38 59 61 72 74 75 77 74 74 73 63 56 50 38 34 37 45 54 58 65 73 78 80 81 85 84 81 79 77 72 70 68 70 72 68 66 58 59
13 11 13 14 14 13 13 14 13 16 46 52 59 77 70 63 66 69 74 72 73 65 59 49 39 34 31 31 35 42 44 43 50 76 82 84 84 84 80 76 71 78 67 79 81 82 76 64 58
13 14 15 13 13 11 10 12 26 47 53 55 53 65 76 65 64 65 67 70 71 58 53 50 47 46 45 43 42 44 47 47 48 48 51 66 83 84 84 85 72 81 83 83 81 78 78 72 64
12 14 17 16 12 10 9 11 15 33 54 52 56 67 64 62 69 68 68 69 60 58 58 59 61 60 57 52 50 51 53 55 57 58 58 55 54 62 67 77 82 82 77 69 61 59 70 76 65
12 15 16 13 12 10 9 10 12 11 14 36 51 56 62 57 58 62 66 64 63 67 69 67 72 70 65 55 47 48 53 59 63 65 70 70 72 71 66 63 64 74 68 67 66 72 74 87 84
13 13 12 11 12 9 7 9 13 11 10 41 48 56 50 54 62 54 62 64 69 76 77 76 78 76 69 55 63 56 54 60 67 68 67 69 76 78 77 76 72 71 76 82 88 90 97 89 82
10 15 18 13 12 11 10 11 10 10 11 16 37 45 44 54 59 54 57 61 70 74 77 79 80 78 73 61 70 70 66 65 72 66 69 78 82 82 82 82 81 78 76 78 85 89 91 92 89
14 18 14 12 11 12 13 13 10 9 16 31 53 58 47 58 55 55 59 55 53 60 54 49 53 73 74 72 70 72 70 68 70 74 76 77 84 82 81 84 89 84 81 78 77 74 74 80 85
13 19 15 15 14 14 16 16 14 12 17 31 59 68 66 62 54 58 60 46 42 39 40 39 35 48 72 62 66 76 72 70 77 80 80 82 89 86 87 89 93 95 92 78 73 68 67 74 72
16 15 14 14 13 14 16 15 17 14 14 16 53 60 63 63 62 60 46 42 38 39 38 36 34 66 65 68 79 79 75 79 80 80 83 79 82 80 78 88 85 91 75 73 70 73 81 77 76
16 15 15 14 15 15 14 14 15 15 14 17 32 39 53 55 53 44 34 33 35 35 36 35 33 46 66 62 74 72 72 74 76 75 70 68 69 69 70 79 70 70 77 84 85 89 97 90 87
17 17 17 17 17 17 17 17 16 16 16 17 27 30 32 34 32 29 27 29 32 31 33 32 34 34 56 60 59 59 59 60 59 59 58 66 69 73 73 78 80 80 73 74 61 57 54 60 66
16 19 20 20 15 14 13 13 14 12 18 19 24 26 26 28 27 26 22 23 22 24 28 32 34 34 40 49 56 57 54 52 50 49 48 48 64 72 78 78 76 74 69 56 51 40 37 36 36
22 22 25 20 19 13 12 18 13 14 20 20 21 24 27 26 24 23 22 21 21 22 29 33 34 35 40 39 50 46 38 40 36 36 39 42 50 58 65 60 61 58 49 51 42 36 35 36 38
27 26 23 22 16 17 14 20 18 18 19 21 21 22 24 24 23 21 21 21 21 22 29 33 32 32 38 36 41 40 36 39 36 35 38 42 43 47 52 53 53 50 37 39 38 40 39 40 39
26 24 22 23 20 27 25 26 24 21 19 20 20 20 18 18 19 17 20 22 23 25 28 27 27 25 23 27 32 34 32 33 35 36 39 42 46 39 37 43 44 41 37 38 39 39 40 42 41
21 25 28 26 23 30 30 33 28 19 20 24 27 28 28 28 30 25 22 24 25 25 24 23 24 24 24 25 29 30 30 32 33 33 33 43 42 40 35 35 38 42 38 38 41 41 43 43 43
24 30 33 32 26 30 33 34 26 20 19 25 28 28 28 28 32 30 26 24 22 22 22 23 24 24 25 25 26 26 26 26 26 27 32 42 40 39 37 35 34 38 39 41 40 41 46 45 42
25 30 32 36 36 32 31 32 21 18 22 23 22 24 24 27 28 30 28 23 22 23 22 22 23 24 25 26 26 26 27 28 28 27 28 30 34 41 38 36 35 35 36 36 38 41 44 47 50
31 25 31 37 41 46 32 51 28 20 21 21 23 25 26 27 26 24 22 26 26 23 24 24 26 26 27 28 27 27 27 30 27 27 27 29 30 38 38 38 36 36 39 42 46 53 52 52 54
29 30 37 38 46 42 41 42 28 19 21 22 32 32 30 29 29 29 28 24 22 22 22 23 25 26 28 31 32 33 31 29 28 27 29 29 29 32 36 38 42 47 50 50 49 43 36 32 36
30 38 43 46 48 65 41 40 38 35 29 34 30 29 32 31 30 31 26 26 26 26 27 27 28 30 30 31 32 34 35 36 37 34 32 32 32 36 36 47 51 48 44 43 45 46 52 58 57
41 55 77 64 76 68 43 47 36 29 27 25 26 28 28 31 36 33 29 32 32 31 32 36 37 35 35 36 36 35 37 39 43 43 42 40 46 47 49 46 43 47 55 59 60 71 68 66 67
40 51 81 76 84 74 50 51 38 32 34 33 25 28 29 30 35 35 38 39 38 38 40 38 41 43 41 37 35 35 38 38 37 39 45 50 47 41 45 47 52 62 73 81 88 91 84 74 45
40 58 42 59 70 86 67 50 32 30 36 36 34 38 40 40 48 46 42 41 42 44 46 48 48 48 44 40 44 39 37 36 37 44 56 54 47 53 57 63 73 84 89 82 78 54 45 40 44
35 38 63 81 82 88 72 62 54 42 44 40 42 49 50 47 46 47 46 45 46 45 47 45 43 48 51 52 38 39 39 39 40 49 45 46 55 58 66 75 90 87 76 62 55 44 43 44 43
50 60 56 58 80 97 97 84 49 44 46 51 45 48 45 46 51 54 52 50 48 46 46 50 54 59 57 39 37 40 45 45 45 43 44 46 51 59 76 76 60 54 51 46 45 47 48 49 49
42 54 61 88 80 89 87 71 39 44 40 44 47 46 48 48 56 60 57 56 55 54 55 58 59 60 43 41 40 46 46 44 44 44 48 51 53 53 56 59 55 50 47 50 50 48 46 44 43

GFSSGP_925_rhum_015.txt.gz
RH
10 11 12 14 17 22 20 13 12 30 74 67 56 61 72 81 67 73 80 81 56 57 58 61 71 72 75 76 76 75 74 78 79 75 70 68 66 65 64 64 64 58 54 57 58 61 67 66 67
10 13 8 19 22 23 19 15 30 53 70 65 63 66 78 91 82 90 82 67 62 58 46 46 57 63 66 70 79 72 70 71 73 80 79 76 74 74 75 75 71 68 63 55 53 56 69 71 69
14 14 12 21 26 23 20 14 49 53 54 43 69 69 75 86 81 83 74 76 69 61 49 39 36 44 53 61 68 71 73 74 75 77 81 84 83 81 82 81 79 74 73 75 73 71 66 66 72
14 11 14 18 17 13 15 20 38 52 50 58 68 82 70 68 73 75 78 75 70 56 50 43 38 33 32 35 36 35 35 41 58 75 80 83 84 84 82 82 77 71 73 80 86 81 78 64 62
10 14 16 15 13 12 21 40 37 50 53 56 54 72 80 71 73 76 76 72 52 54 51 48 44 41 41 40 39 36 37 42 44 47 50 64 78 80 79 78 74 66 75 82 88 85 78 70 65
13 14 17 18 14 10 11 22 34 50 50 47 60 65 69 74 76 76 71 66 48 49 53 55 55 55 48 44 45 49 51 55 60 59 53 50 56 64 66 73 76 78 75 70 67 59 57 75 74
12 14 16 14 12 11 10 11 13 22 36 35 49 68 70 66 73 70 66 61 58 63 62 66 66 63 59 53 46 52 54 57 62 59 63 63 60 56 56 60 64 69 71 77 80 78 71 72 80
14 14 13 12 12 10 8 10 12 12 16 46 46 57 82 63 68 72 72 68 69 68 67 70 70 68 64 54 57 58 59 60 63 68 70 72 71 74 75 77 80 82 85 87 91 93 97 93 87
11 19 20 13 12 12 13 12 12 12 31 26 50 46 42 60 63 71 76 82 83 78 76 74 76 74 71 60 66 65 68 66 68 68 78 82 86 84 81 82 84 86 86 88 91 93 95 94 92
15 21 15 13 11 13 14 13 12 18 37 48 49 59 56 65 62 65 72 74 80 81 81 80 78 79 77 71 69 71 70 74 75 72 77 86 91 86 83 78 82 81 81 80 80 77 76 78 80
16 20 14 16 14 15 17 16 15 18 29 49 41 61 73 71 65 66 66 66 68 72 66 60 55 62 73 73 69 74 76 77 78 80 78 82 88 88 84 85 84 79 84 81 66 66 58 63 69
17 16 16 14 16 17 17 16 16 15 15 35 44 61 75 76 69 70 64 56 58 54 45 46 49 67 69 67 68 74 77 77 78 76 79 81 85 86 86 85 87 80 80 62 60 67 69 71 69
17 16 16 16 15 16 16 15 15 15 14 20 55 68 73 72 63 57 57 54 45 43 42 39 42 51 53 61 74 81 78 78 81 81 78 76 68 67 70 80 86 76 67 75 79 77 77 74 71
18 19 19 18 17 18 17 18 16 16 16 22 58 68 70 63 60 54 48 50 41 37 37 37 38 34 45 58 66 70 74 75 80 78 72 68 66 70 72 75 80 78 81 77 65 48 41 38 48
18 21 23 20 18 17 16 15 15 13 17 22 46 57 57 55 49 44 41 43 37 34 34 35 35 34 39 51 56 58 57 56 57 56 56 55 52 67 74 77 81 82 77 69 55 42 33 32 32
23 23 26 20 20 15 13 21 15 14 18 22 29 34 36 39 36 34 33 32 32 34 32 35 36 34 37 37 37 43 48 45 45 41 38 39 40 47 65 72 76 72 66 57 47 36 36 36 37
29 27 23 22 22 24 17 21 18 19 20 21 24 27 31 31 27 28 28 28 30 27 32 35 34 33 34 38 39 40 40 36 36 37 37 37 40 42 44 51 59 58 54 44 39 37 38 37 37
27 25 25 26 24 32 32 30 28 26 24 24 24 24 23 25 24 21 21 26 25 26 32 30 31 29 33 37 34 34 34 35 33 33 34 38 44 46 43 39 46 53 48 37 38 39 39 39 41
21 28 34 28 25 33 36 40 34 29 24 26 29 26 31 30 33 30 24 25 25 28 30 28 27 26 30 30 30 31 29 30 30 29 28 31 34 44 48 41 36 44 43 37 36 39 40 41 44
27 29 32 34 29 36 38 37 24 22 22 28 33 34 32 34 37 37 32 28 26 25 26 25 24 25 24 25 25 26 26 26 28 28 28 31 29 29 41 44 38 34 39 40 38 41 43 44 47
26 30 31 36 37 33 38 34 25 22 25 24 26 28 29 34 35 34 31 27 25 24 23 23 23 24 25 26 27 27 28 28 28 28 28 27 27 28 35 39 40 37 35 40 39 41 44 45 49
33 25 31 37 42 47 38 46 29 23 22 29 31 30 26 27 28 29 29 28 24 22 23 24 24 26 27 29 30 30 30 33 29 29 29 29 29 29 36 38 42 41 37 40 41 44 49 52 58
34 35 39 39 46 44 41 43 36 33 25 32 31 30 31 30 30 30 28 22 22 24 24 25 27 31 34 37 38 39 40 39 39 39 39 36 34 34 33 34 40 48 43 45 50 58 55 42 39
34 41 47 50 52 62 42 45 48 38 32 32 29 33 31 31 31 31 30 28 28 29 32 34 33 35 36 38 40 40 41 40 44 43 46 46 47 46 42 40 56 55 56 61 52 54 59 68 73
43 58 71 58 75 67 48 47 46 32 28 26 28 27 30 34 36 38 39 36 37 39 40 40 42 42 41 40 40 39 41 42 44 43 44 43 50 54 54 60 64 61 62 73 86 89 92 92 92
41 52 80 62 85 78 53 54 43 31 36 35 32 34 42 42 39 46 48 47 47 47 45 44 44 44 43 44 45 47 44 38 38 39 42 49 64 58 61 62 71 85 86 88 90 90 91 94 97
43 60 48 68 75 89 72 54 41 36 44 44 43 47 54 55 54 53 51 50 48 46 44 44 47 50 51 56 51 41 42 40 38 42 43 53 63 59 66 77 91 89 88 92 90 81 72 58 55
40 41 66 84 83 83 76 71 61 44 52 44 50 54 55 55 58 60 56 50 47 49 50 51 54 56 61 55 45 48 46 42 42 45 45 54 59 63 71 77 79 78 81 72 65 59 53 56 53
57 64 63 64 82 96 98 83 56 50 53 53 55 56 58 53 60 63 60 54 55 54 56 59 59 63 63 46 51 50 43 48 50 49 49 56 60 63 68 68 72 62 62 57 59 58 55 54 50
48 63 65 89 82 90 90 76 44 44 51 60 66 64 62 54 62 66 62 59 59 60 62 64 66 67 50 53 53 50 46 53 53 49 50 52 53 53 56 48 50 53 55 52 53 52 50 48 44

GFSSGP_925_rhum_018.txt.gz
RH
9 13 14 14 16 19 20 15 14 46 69 69 63 64 81 94 71 60 91 86 72 58 67 77 81 84 86 85 82 77 80 77 72 68 66 61 62 67 67 67 64 60 60 58 58 61 63 64 63
12 15 9 19 22 25 22 19 42 57 74 72 67 68 85 91 87 91 80 71 56 50 57 69 75 79 80 77 73 74 74 74 79 80 77 77 77 77 74 70 66 57 68 64 58 55 61 68 74
14 11 13 22 28 26 24 22 69 69 67 52 73 75 78 94 86 83 74 66 60 52 45 52 55 63 59 62 62 65 66 66 64 72 83 83 84 87 88 84 83 76 74 73 66 62 62 66 78
15 11 15 23 22 21 21 25 62 61 52 63 72 82 72 72 79 78 72 71 64 55 45 38 35 36 36 34 32 33 36 44 58 73 81 88 90 91 89 85 81 69 72 71 70 68 70 71 71
10 15 18 18 18 20 32 33 48 54 55 56 58 82 82 82 77 73 76 74 60 52 44 44 42 40 39 39 38 37 38 39 44 45 53 69 80 83 82 78 77 76 80 84 92 86 84 79 80
13 15 19 19 13 11 16 27 44 49 52 58 69 72 76 84 74 77 77 66 53 47 48 47 51 47 48 48 48 52 53 58 60 59 57 54 56 61 66 68 70 77 76 73 72 67 68 82 87
12 16 17 15 13 11 12 11 30 38 42 40 58 77 76 82 76 79 78 57 54 59 60 60 60 58 57 51 48 49 55 60 65 68 69 67 64 66 70 76 80 79 77 76 78 81 79 95 96
15 14 13 12 13 10 10 12 12 16 25 49 43 81 81 73 77 82 81 67 68 64 66 67 66 64 62 55 57 58 60 65 68 70 71 72 73 74 74 75 76 80 84 87 93 95 95 94 95
12 18 18 12 12 13 14 12 13 17 38 31 53 57 49 66 76 83 84 79 72 71 69 72 71 69 70 62 64 63 65 65 70 70 69 72 78 77 74 72 77 79 81 81 81 82 83 85 88
17 20 14 13 11 14 15 13 12 22 38 43 44 58 64 69 78 84 85 82 80 77 76 72 74 74 74 70 66 68 68 69 72 73 72 78 81 81 77 73 75 78 81 82 78 76 73 69 67
18 19 16 16 14 14 18 17 15 34 35 42 36 61 82 78 76 81 80 76 73 73 74 69 66 62 62 74 70 68 72 74 76 77 78 80 84 88 85 85 86 83 73 80 72 66 64 56 55
18 17 16 15 17 18 17 16 16 18 16 25 41 67 82 84 78 74 76 73 70 74 68 56 43 35 42 61 69 71 71 76 76 78 80 80 81 86 86 86 80 83 76 66 57 61 67 69 69
18 17 17 17 17 17 16 17 15 18 16 19 53 72 83 81 76 67 61 62 67 70 58 44 39 38 55 65 64 67 71 78 76 79 78 80 80 74 69 66 70 80 76 66 71 69 61 57 49
19 20 20 19 18 18 18 18 16 16 16 19 59 71 81 82 74 68 67 64 59 58 50 43 38 51 61 53 54 66 76 76 76 80 79 76 71 69 72 72 73 76 71 76 69 56 40 32 31
22 22 21 21 23 18 18 17 16 17 16 20 49 68 74 76 63 58 53 56 57 52 46 41 41 50 49 46 50 58 62 62 63 68 67 64 59 55 58 72 76 76 80 79 69 56 39 31 30
23 24 25 20 23 18 14 25 17 14 17 20 26 61 68 67 56 52 49 50 46 50 43 38 38 41 39 38 42 47 52 54 52 51 50 46 42 41 42 49 59 72 79 76 66 53 35 34 34
30 26 24 25 27 30 24 30 22 21 24 25 24 33 50 49 38 34 38 40 41 46 38 36 40 36 35 35 39 42 46 47 39 39 39 37 39 41 42 40 42 55 65 65 57 46 35 37 36
27 25 28 28 26 33 36 34 34 32 29 28 27 26 32 31 29 23 22 29 33 33 35 35 38 34 33 34 38 37 39 37 35 32 32 33 36 39 43 44 42 45 51 54 52 43 36 37 37
22 28 33 31 27 36 38 42 32 27 30 34 32 28 25 27 34 32 26 25 28 27 28 32 32 29 29 31 35 30 27 27 28 28 27 27 28 31 40 46 48 47 46 41 44 40 39 40 41
26 30 30 33 32 37 40 39 27 29 31 34 38 39 36 34 36 38 33 30 28 26 27 30 27 26 26 30 32 30 30 29 29 28 28 28 28 28 32 38 44 47 45 44 45 41 41 41 42
31 28 30 35 38 35 38 32 30 22 27 30 31 29 30 34 34 34 33 30 28 28 26 25 25 28 29 29 30 32 32 32 31 30 31 32 33 32 31 32 33 37 47 43 39 42 42 45 45
36 26 31 38 45 47 39 43 34 35 29 33 29 30 32 31 30 32 31 30 26 27 27 28 29 31 36 40 40 42 44 46 41 42 41 39 37 38 42 41 38 40 52 54 46 44 46 49 54
37 39 42 40 49 46 46 42 35 36 32 33 35 33 30 31 33 32 30 30 32 32 35 37 40 44 46 45 45 44 44 47 50 46 43 42 42 44 46 47 50 50 63 64 60 59 59 64 60
36 45 45 54 55 63 47 47 50 43 34 33 33 32 32 34 36 36 35 36 40 43 43 43 42 42 41 40 41 48 52 46 43 42 43 41 42 46 47 50 55 62 72 71 67 62 60 60 62
47 56 62 59 74 67 50 49 50 38 37 39 44 46 53 54 46 54 57 54 50 46 44 44 45 45 48 45 49 47 44 48 48 42 44 45 46 48 53 59 70 76 76 78 80 83 90 97 98
44 56 76 51 85 81 56 54 49 36 44 39 45 55 58 60 61 63 60 55 51 48 47 48 51 52 51 49 56 49 51 52 43 42 46 50 52 58 66 74 78 83 87 89 97 99 98 98 98
44 64 52 73 76 89 73 57 42 46 52 51 58 58 62 64 66 64 57 52 49 48 49 54 54 53 56 58 60 50 54 52 44 39 42 50 56 65 75 80 81 80 81 86 90 94 98 99 100
45 46 64 85 84 80 74 71 59 57 57 56 61 67 64 59 63 61 55 53 51 54 56 60 61 63 63 61 50 58 57 54 50 44 49 61 64 70 78 75 73 71 75 72 78 69 82 85 78
59 64 67 70 84 94 97 81 56 57 55 57 67 66 67 61 61 66 60 58 57 56 59 64 59 61 60 54 59 63 59 57 52 53 59 68 74 74 73 69 65 64 57 58 70 74 72 62 55
54 58 66 84 74 91 92 80 48 53 54 65 68 70 68 65 64 65 62 62 64 59 60 65 60 60 61 60 66 62 67 67 60 60 67 74 76 68 63 70 61 60 64 64 61 58 54 52 47

GFSSGP_925_rhum_021.txt.gz
RH
11 13 14 14 14 16 18 21 16 54 58 60 57 49 57 77 57 50 93 87 60 58 69 81 85 83 78 78 81 80 77 69 59 57 65 72 74 74 72 68 67 63 61 58 57 54 59 64 63
13 13 10 16 19 28 35 23 25 58 64 63 61 66 67 72 78 77 77 81 52 51 61 64 71 78 75 76 77 78 77 79 76 69 65 66 66 65 64 63 62 58 63 67 68 62 62 73 76
13 9 12 18 21 26 42 36 58 65 55 53 65 66 71 77 76 74 73 60 50 42 43 55 67 69 71 67 70 73 70 70 75 84 85 84 83 79 77 75 70 69 71 76 70 72 72 73 84
12 10 13 21 27 22 27 49 59 57 50 58 61 61 68 74 75 81 67 65 60 45 41 46 48 48 41 41 43 43 50 63 77 87 92 94 93 90 88 87 83 78 76 79 77 76 80 82 82
9 13 21 25 30 30 34 46 55 50 51 56 55 72 76 78 80 73 74 68 58 46 44 45 43 45 45 44 42 41 41 41 42 50 70 84 90 95 95 96 87 87 87 89 91 85 82 84 84
10 13 20 27 22 15 26 37 40 45 49 55 60 65 72 88 83 78 75 70 55 46 46 48 50 51 50 46 48 51 55 57 58 55 52 50 54 59 64 68 76 78 74 70 68 66 67 69 79
11 13 15 15 15 14 15 12 36 40 46 40 51 63 75 82 84 76 74 61 52 51 51 57 59 58 54 50 49 51 51 53 58 62 64 65 66 65 65 68 70 71 71 72 76 81 81 85 89
12 12 13 12 12 11 10 12 14 19 32 44 44 54 73 67 80 80 75 64 61 62 66 68 66 61 59 55 56 55 58 60 63 65 66 66 68 71 74 75 76 79 81 81 83 89 91 92 91
12 13 14 12 13 14 13 12 13 22 37 31 40 47 49 69 89 92 90 84 73 72 69 67 64 65 68 61 62 62 62 63 66 67 66 66 70 72 69 65 71 72 75 76 77 78 79 79 80
14 16 15 12 12 14 15 12 12 20 32 39 44 53 68 79 85 85 80 79 83 79 66 68 70 70 71 70 66 66 67 68 70 70 70 73 74 76 76 73 71 74 76 77 80 76 72 64 61
17 17 16 16 12 15 17 16 15 23 22 25 23 48 70 76 80 79 73 69 69 75 70 68 68 65 58 61 70 68 70 71 73 72 73 76 78 81 83 82 82 85 82 73 70 59 59 58 53
18 18 16 16 18 17 15 16 16 20 12 17 29 51 68 70 74 75 74 72 73 68 68 70 66 54 41 46 58 67 70 71 75 74 75 76 77 79 83 84 79 71 74 74 62 59 63 62 61
19 18 17 17 17 16 17 16 15 16 14 18 38 64 65 64 66 72 72 73 75 72 67 68 56 41 42 50 56 65 72 72 76 74 75 77 76 75 74 70 68 68 72 70 61 65 59 46 42
21 20 20 19 19 18 18 18 17 14 14 23 45 56 63 64 64 68 73 68 69 63 62 64 46 39 42 46 51 60 67 73 77 75 77 79 77 71 67 67 67 68 71 71 73 70 56 41 30
21 18 19 21 20 18 19 17 15 14 14 17 35 49 62 66 68 63 62 64 63 57 62 60 44 38 37 42 50 56 59 63 62 62 67 72 69 62 56 52 54 54 65 73 79 74 61 45 30
20 21 20 19 22 22 18 22 16 18 18 16 20 29 52 58 63 65 64 64 62 60 58 55 44 38 39 44 45 46 47 48 47 50 49 47 46 44 43 44 42 42 57 74 80 74 63 46 34
22 19 23 23 26 26 25 23 21 22 26 24 23 22 34 51 52 47 42 46 47 49 52 51 41 38 41 41 40 39 40 38 37 36 34 35 37 36 38 38 37 41 47 54 65 68 62 51 44
25 24 27 28 24 29 31 29 25 23 24 26 24 23 24 35 40 31 29 26 32 37 46 47 39 36 37 40 40 38 36 31 30 28 30 33 35 37 38 38 37 42 46 50 56 62 60 52 47
23 28 30 28 28 31 35 32 23 26 27 30 30 28 24 25 30 31 24 24 28 34 39 36 34 32 41 46 46 40 35 31 29 29 30 31 32 34 38 41 44 47 54 47 47 57 64 60 52
27 29 26 29 30 35 33 27 24 26 28 30 29 30 30 29 29 33 32 28 29 30 31 34 46 45 40 38 43 40 34 32 31 32 35 38 39 40 40 38 38 46 68 63 62 65 63 61 60
32 28 31 32 34 35 32 28 28 23 25 25 27 28 29 30 30 31 34 40 39 39 39 40 36 35 37 40 40 41 41 43 44 45 42 39 38 38 40 44 50 50 63 66 68 71 70 56 57
37 29 36 40 40 36 37 31 31 31 28 30 31 30 28 27 28 30 34 38 44 40 38 39 44 46 45 44 44 46 55 54 53 55 52 42 39 39 39 40 43 51 65 72 71 70 73 68 56
37 40 43 42 44 42 40 32 32 31 34 35 33 35 37 37 35 34 40 46 54 48 48 47 46 45 46 44 45 55 58 59 62 63 60 54 44 37 41 42 43 46 65 78 82 79 83 73 68
39 43 42 48 47 49 46 40 43 39 41 39 38 45 49 46 43 48 52 52 52 46 44 42 43 44 50 49 56 58 51 54 59 56 53 48 51 50 45 46 47 53 65 77 86 84 85 81 76
42 44 46 50 55 51 47 43 48 45 41 42 48 51 52 52 52 50 50 49 52 54 50 52 51 58 53 46 39 43 50 54 61 59 55 56 57 64 60 58 66 82 92 94 94 97 99 98 99
47 49 60 50 60 58 53 51 48 44 44 47 48 50 51 52 53 51 52 55 55 58 58 61 62 51 41 41 45 51 53 60 61 60 59 62 68 73 66 79 89 92 89 95 96 98 99 99 99
46 58 51 66 73 74 55 50 44 49 48 48 50 51 52 52 53 49 50 54 58 57 59 55 54 49 46 49 51 52 59 59 63 65 63 68 68 74 91 96 86 75 74 77 80 87 97 99 98
43 46 56 66 73 67 52 59 45 51 48 51 56 58 56 51 48 45 48 54 59 62 60 57 61 62 58 60 58 62 68 70 71 67 65 70 81 97 86 88 92 86 86 86 79 89 96 100 100
52 56 62 61 72 82 89 54 49 49 49 49 59 61 59 56 51 51 55 58 63 66 65 66 70 74 73 77 66 70 71 71 70 65 65 79 92 94 95 83 83 90 98 94 77 71 85 82 78
52 56 56 63 64 77 79 62 43 49 52 55 63 63 59 58 56 57 60 65 65 60 53 58 71 78 78 68 70 74 65 66 62 70 79 89 83 93 98 100 99 99 95 86 75 66 66 64 58

GFSSGP_925_rhum_024.txt.gz
RH
16 15 16 11 12 15 23 29 29 37 34 38 37 31 36 44 39 45 60 61 55 61 72 81 82 83 84 84 79 75 64 61 69 74 78 78 75 72 70 70 72 68 61 58 59 62 67 71 74
17 12 10 9 15 20 24 24 28 32 38 36 36 34 31 44 47 55 58 60 54 60 67 78 77 78 84 88 86 84 82 76 69 66 70 73 73 72 74 74 67 60 62 68 71 71 68 80 84
14 11 8 11 12 17 20 22 32 37 37 36 36 36 40 43 44 49 59 55 52 58 66 87 80 81 76 75 74 74 75 79 81 81 78 77 77 77 76 72 73 70 71 84 83 91 80 80 84
9 8 11 11 15 21 20 27 31 34 34 32 29 37 44 52 49 52 60 58 49 51 58 59 62 52 46 45 39 41 50 67 83 88 88 89 88 87 84 82 77 73 77 80 80 86 88 87 83
7 9 12 14 20 24 23 27 28 28 29 30 31 40 47 56 63 62 64 61 48 48 53 59 42 42 41 42 44 46 47 47 47 53 67 76 83 86 83 82 78 77 74 74 77 86 82 86 85
8 11 14 19 24 26 26 28 24 21 25 30 30 31 44 64 60 63 63 56 46 46 56 60 52 49 46 45 45 46 50 53 54 52 51 50 53 57 62 67 73 75 71 68 66 63 65 69 75
9 10 13 16 19 19 20 20 19 19 23 24 26 28 47 54 57 60 56 48 47 47 52 57 62 59 51 50 52 55 56 56 58 61 62 61 60 61 64 67 71 74 76 76 78 80 82 84 85
7 8 11 11 11 12 10 12 16 15 18 28 27 24 37 41 59 58 52 48 51 57 55 60 63 64 68 71 57 58 59 60 62 64 67 68 71 72 74 76 78 79 82 88 93 94 92 91 89
7 7 9 9 9 10 9 9 10 17 20 24 24 25 32 47 58 53 50 49 53 56 65 65 61 70 70 64 70 62 59 62 66 72 66 77 74 76 79 74 72 75 74 74 74 73 71 71 70
7 7 9 8 9 8 8 8 10 14 14 17 23 32 42 53 56 50 43 44 47 55 60 63 71 73 75 63 68 72 72 68 73 74 80 71 82 80 74 79 71 73 75 70 63 64 67 62 55
9 9 10 9 9 8 9 9 8 10 11 10 11 23 38 50 51 48 41 36 40 49 52 62 74 80 76 60 59 56 60 65 71 82 81 79 81 79 79 76 76 77 77 69 67 66 57 62 61
11 10 8 9 11 10 9 9 10 10 9 12 13 19 32 37 40 41 36 33 38 42 48 62 73 77 73 56 52 54 57 61 64 70 87 80 71 72 75 70 69 73 67 72 67 62 73 73 69
13 14 13 12 12 12 13 12 12 11 9 11 17 26 28 29 31 34 34 31 34 38 44 60 72 71 56 64 59 64 67 63 67 72 75 80 69 68 70 67 67 64 62 62 64 63 65 63 62
15 14 15 14 14 14 14 13 13 11 10 12 19 22 25 27 28 32 38 37 40 43 47 60 68 61 57 57 64 61 65 61 66 62 64 83 78 68 64 59 56 54 55 56 61 61 60 52 51
15 16 14 15 14 16 13 13 12 12 11 12 17 21 23 26 29 30 31 35 34 40 48 60 64 59 59 57 58 56 52 62 55 53 65 70 74 64 65 54 52 48 52 65 69 67 64 58 48
13 13 13 16 16 17 15 14 13 14 15 14 13 16 25 27 30 31 35 39 42 46 47 54 57 55 54 53 54 51 49 52 48 49 51 59 62 65 62 54 51 50 53 56 57 57 54 52 47
11 10 12 16 17 17 16 15 16 14 16 16 15 16 16 21 28 35 42 44 41 42 46 52 56 55 50 53 54 57 58 53 45 49 46 50 58 61 63 54 52 56 55 54 57 54 56 50 44
13 13 17 16 16 17 19 18 16 17 17 17 16 16 16 19 25 33 34 33 33 38 46 49 52 54 56 55 55 49 48 44 45 40 40 45 45 52 56 53 54 58 56 52 52 55 53 52 46
15 17 17 16 19 23 23 18 18 18 17 18 18 18 19 20 24 25 30 30 31 40 45 50 48 53 52 49 45 39 37 35 35 35 40 51 50 53 55 52 52 53 56 58 57 54 57 58 52
19 19 20 20 22 26 22 19 18 18 20 20 19 20 19 19 22 26 32 37 39 42 45 44 44 43 40 36 40 43 44 39 44 46 47 46 50 50 50 52 53 53 54 55 60 63 61 57 53
23 23 27 27 24 25 22 22 19 19 19 19 20 19 20 22 23 24 30 36 39 43 41 39 42 45 49 46 42 42 40 39 38 41 41 45 50 49 49 50 53 56 57 54 55 58 59 60 57
25 24 31 30 29 21 26 24 24 21 23 24 26 28 28 26 23 26 31 38 44 48 47 46 46 45 49 53 46 50 45 43 48 49 48 50 46 47 48 52 54 57 56 55 56 55 59 60 58
31 33 33 33 31 28 26 23 28 22 28 29 31 33 33 31 32 32 36 41 45 50 51 50 46 48 51 53 56 53 51 48 49 51 50 47 42 43 43 51 59 61 60 57 64 67 68 66 63
31 32 32 34 34 38 33 31 28 27 32 31 33 36 38 36 35 36 38 38 41 47 50 49 47 46 52 56 59 60 58 54 50 46 43 38 39 38 41 49 64 68 71 71 73 77 77 76 75
27 32 33 43 43 37 34 33 37 35 33 34 36 38 38 37 36 35 36 38 43 46 49 47 47 44 46 49 49 50 48 47 45 45 44 48 44 44 49 62 68 71 79 81 87 93 97 99 99
36 36 45 48 39 35 38 31 37 34 32 34 35 36 37 38 38 36 37 41 44 48 51 52 49 46 45 44 45 47 49 50 52 52 55 53 52 54 65 75 79 80 82 85 92 97 98 98 98
37 43 40 52 58 56 32 36 36 36 38 36 36 35 37 38 38 35 37 41 44 47 51 54 48 45 45 46 50 55 56 62 62 59 58 52 58 62 73 84 79 84 93 90 92 98 98 100 98
36 36 47 45 77 48 25 33 28 43 38 38 38 38 40 39 38 38 39 43 46 48 49 53 49 49 52 54 60 60 65 64 64 61 57 62 68 75 82 89 87 93 99 98 99 99 100 95 92
40 43 45 42 54 59 55 27 33 33 35 39 39 43 42 42 42 40 43 46 48 47 46 44 50 54 56 60 62 66 69 68 62 58 61 71 80 89 88 97 98 98 98 98 99 96 87 79 73
39 42 39 52 52 54 54 40 29 30 37 41 42 45 43 41 37 39 43 44 41 42 41 48 55 56 55 55 58 63 66 67 60 65 70 74 80 98 98 98 99 92 81 86 84 68 62 57 53

GFSSGP_925_rhum_027.txt.gz
RH
9 13 12 9 11 11 20 21 18 24 25 24 21 23 26 32 41 61 42 44 50 53 70 82 84 86 84 80 77 70 65 74 77 78 77 77 77 77 74 73 74 70 68 69 74 84 84 90 75
13 8 8 7 11 14 18 18 19 21 23 21 19 18 19 34 37 40 40 42 47 51 56 83 83 84 84 81 79 75 69 63 64 71 76 76 76 76 73 73 67 60 63 70 80 85 73 72 77
17 8 8 8 11 14 19 17 20 22 21 19 20 20 24 36 32 37 40 40 42 48 64 80 74 75 76 72 71 71 73 76 75 70 68 68 69 69 69 70 69 69 70 79 86 80 78 74 76
8 6 8 10 14 13 15 18 19 21 20 18 16 26 34 31 34 40 40 37 42 48 62 61 63 60 53 52 52 53 57 65 71 78 82 83 82 82 83 82 78 74 78 80 87 80 83 80 76
8 7 9 11 15 15 17 17 17 18 18 18 16 23 37 40 42 43 43 36 36 37 51 63 44 40 39 40 44 47 48 51 59 67 70 72 74 74 73 77 77 75 74 76 78 80 77 77 80
8 8 10 16 18 18 18 18 16 15 15 15 16 22 37 42 43 46 44 35 32 35 42 50 41 45 48 52 53 55 58 59 60 60 62 62 61 59 59 63 66 65 64 63 64 66 67 68 70
9 10 12 15 19 19 18 14 13 13 13 15 13 20 34 36 42 41 36 31 30 34 39 44 55 56 49 52 57 59 59 61 62 62 62 61 60 61 64 67 69 70 70 70 73 77 79 80 80
6 8 11 12 14 14 10 12 11 11 14 13 15 16 34 35 42 38 32 32 32 35 38 41 46 50 57 73 56 55 57 63 62 60 59 59 68 68 70 83 64 66 64 63 69 75 76 77 75
5 7 9 8 8 8 6 7 7 9 11 13 14 19 22 37 40 36 33 32 34 37 42 43 43 51 51 48 62 64 59 60 70 72 63 75 66 64 71 72 61 61 64 67 67 69 69 67 62
6 6 7 6 6 6 6 6 8 11 10 12 16 17 27 35 35 31 29 30 33 37 41 45 50 54 53 43 50 54 53 55 58 59 63 54 65 65 62 73 70 72 77 69 66 60 53 53 51
6 8 7 6 6 5 5 6 6 7 9 10 12 16 24 29 30 29 26 26 29 35 35 39 55 56 54 45 41 41 44 46 52 63 63 59 61 59 58 59 71 74 75 64 66 61 56 48 53
7 6 5 6 7 7 7 6 7 6 8 8 9 14 20 24 26 27 26 24 25 32 33 39 50 56 53 41 36 39 41 45 47 51 63 59 54 54 56 52 53 52 50 54 56 52 54 66 63
7 7 6 7 8 9 9 8 7 8 7 8 10 15 20 23 24 24 24 23 25 28 30 37 49 60 45 47 43 46 49 47 53 53 55 61 55 55 56 55 54 51 49 48 47 49 49 53 54
9 10 11 10 11 11 12 10 10 9 8 8 11 14 16 18 19 22 24 23 25 26 30 36 48 59 44 42 48 47 50 48 51 48 51 59 61 56 56 51 49 46 43 44 47 45 49 50 45
10 12 12 12 12 13 11 10 10 9 9 10 12 12 14 16 17 20 24 26 25 27 30 36 49 54 51 44 46 41 40 44 42 42 48 54 57 53 55 49 48 44 44 46 49 50 50 50 48
11 11 13 12 12 12 12 14 10 10 11 11 10 12 14 16 17 19 21 23 24 25 28 35 43 49 54 40 42 39 38 41 39 39 41 47 52 55 54 49 47 47 51 50 48 48 47 46 44
10 12 10 14 12 12 12 12 12 12 12 11 10 10 12 15 18 19 23 27 28 28 31 35 41 49 50 43 42 43 45 45 37 39 39 40 47 48 53 50 48 50 50 50 49 46 46 46 46
10 9 11 11 13 11 12 12 12 13 13 13 13 12 13 13 16 22 29 26 27 31 38 42 44 48 50 48 45 39 38 37 36 34 34 40 44 46 50 50 51 51 49 48 48 51 50 50 50
10 10 11 12 13 14 15 14 14 14 13 14 14 15 16 19 23 26 30 30 29 36 35 42 45 51 48 42 39 34 33 33 33 33 40 48 48 50 51 49 47 47 47 47 51 53 55 57 53
13 15 15 15 15 17 16 15 15 16 17 16 16 17 19 20 22 26 30 34 36 37 37 38 39 40 38 33 37 41 42 38 40 41 43 42 46 50 48 47 46 44 46 47 50 53 56 56 55
17 18 21 20 17 16 17 17 17 16 16 17 17 18 18 19 22 25 31 37 39 39 37 38 40 41 44 41 37 37 35 35 35 36 42 44 50 49 47 46 47 50 50 47 47 48 50 52 51
20 20 23 23 21 20 17 19 19 18 20 22 24 25 24 21 22 26 31 36 41 43 42 40 40 40 43 48 42 48 45 43 42 47 47 48 47 43 41 39 41 48 55 53 52 47 52 54 53
24 25 25 24 24 19 19 17 21 18 23 25 27 28 28 28 28 29 31 36 42 46 46 44 40 41 45 49 52 53 50 47 43 42 42 42 36 38 37 38 42 48 58 57 61 62 61 60 59
22 26 23 25 23 32 18 21 24 20 22 27 29 30 30 30 30 30 32 33 36 43 45 44 42 40 41 45 47 48 48 46 41 40 41 38 43 41 41 43 50 58 59 60 64 77 84 88 85
22 25 34 37 36 36 25 25 29 27 26 27 30 32 31 30 31 30 31 33 37 40 43 45 41 41 40 42 43 44 45 44 42 44 45 52 48 44 41 49 58 59 66 74 82 83 88 91 97
27 28 42 45 37 29 25 23 30 26 27 28 28 29 30 30 31 29 31 34 36 38 41 46 45 40 38 40 43 45 47 47 51 53 57 54 49 48 51 58 73 80 88 92 93 96 94 98 97
30 35 29 38 50 46 21 28 30 28 30 30 29 29 31 30 30 29 31 34 37 37 38 42 45 42 42 44 46 51 55 54 55 56 56 52 53 54 64 85 90 89 89 92 94 97 98 100 92
27 28 40 38 69 43 19 21 21 36 33 31 30 31 32 31 31 32 32 34 38 39 39 41 40 41 44 48 52 50 51 50 52 54 52 52 58 83 88 92 89 87 82 79 92 98 97 97 98
27 32 34 31 37 50 43 26 23 24 24 26 28 29 30 32 33 31 32 35 37 36 37 37 42 45 43 40 39 41 45 48 50 50 52 59 69 78 83 88 98 89 85 78 80 80 77 75 70
28 30 30 44 40 41 51 42 22 21 25 28 28 30 33 32 30 31 33 35 37 36 36 39 40 33 32 33 35 41 46 47 49 57 71 69 71 75 79 89 88 75 71 59 57 59 53 52 52

GFSSGP_925_rhum_030.txt.gz
RH
4 7 14 15 16 14 14 20 18 21 24 20 19 21 33 40 48 67 44 46 61 74 84 81 76 75 74 70 63 62 74 76 76 76 77 76 74 73 72 73 71 66 66 72 82 74 70 70 71
5 18 14 12 17 17 21 17 23 23 20 14 17 16 32 44 37 38 40 45 50 67 81 77 74 76 76 76 74 70 64 67 74 76 76 76 76 76 76 73 67 62 64 72 95 77 75 71 72
8 14 11 13 13 15 21 22 23 19 16 16 20 26 28 37 38 37 40 45 50 75 70 73 75 75 74 74 75 75 76 74 69 66 67 68 69 72 76 76 76 75 73 76 86 75 70 68 71
18 11 9 14 14 15 17 20 17 18 17 15 19 33 30 30 36 36 36 41 48 65 72 70 59 57 56 50 47 52 58 66 74 80 83 84 85 85 84 81 78 75 73 75 80 76 82 81 76
14 11 12 13 16 16 16 16 15 17 16 16 16 36 41 36 36 35 34 37 42 62 54 43 36 37 38 42 44 45 46 51 59 66 69 69 67 65 63 65 65 68 70 68 65 61 57 54 55
10 10 14 16 19 17 17 15 14 16 15 13 18 31 39 37 37 38 32 32 37 48 39 36 38 42 46 48 51 54 56 56 54 52 52 53 54 55 57 58 60 60 62 63 63 65 66 66 67
14 13 15 16 18 18 18 14 12 12 12 13 12 31 36 36 40 37 29 28 34 40 46 51 45 43 44 46 50 51 52 52 53 56 55 54 53 53 56 64 61 61 63 62 64 68 72 72 70
8 10 13 15 17 18 12 11 11 11 16 10 15 26 38 37 36 32 28 28 31 35 40 48 51 57 61 52 43 45 50 48 52 52 51 67 70 67 71 76 63 49 48 51 56 60 60 58 54
6 10 12 11 12 10 7 8 7 8 10 11 17 18 29 37 35 30 29 29 32 34 39 40 48 49 57 57 51 55 46 62 64 65 59 70 75 75 80 67 58 57 59 59 47 53 44 40 47
7 9 8 6 6 6 6 6 8 11 11 14 18 26 33 34 32 30 29 30 33 37 40 46 48 51 47 40 49 58 53 64 65 65 60 68 57 59 56 61 65 66 66 62 64 61 56 53 56
6 9 6 6 6 5 6 6 7 8 10 13 15 25 29 31 30 29 27 28 32 35 37 45 50 51 52 42 40 46 48 52 60 60 62 59 56 63 57 60 65 63 59 62 67 58 58 59 57
7 5 4 6 6 5 6 5 6 6 9 8 12 15 26 28 28 26 24 24 27 33 35 45 48 52 50 42 41 40 42 48 47 62 60 59 55 54 56 54 56 53 52 50 50 51 52 53 59
6 5 6 6 7 8 7 7 6 7 8 8 11 15 21 23 23 24 24 23 24 31 32 39 47 51 47 38 44 47 45 49 54 52 55 61 57 56 57 55 53 49 46 44 45 46 47 49 50
7 7 8 8 9 9 9 9 9 8 8 8 11 15 19 22 22 23 23 22 24 26 29 39 47 56 43 41 47 46 50 48 50 48 53 55 60 57 57 53 52 48 44 43 44 47 51 52 52
8 11 10 10 11 12 10 11 10 9 8 9 10 11 15 17 18 21 21 22 23 25 29 34 44 55 49 44 45 42 41 42 41 41 45 52 56 54 54 53 50 48 47 47 48 49 49 48 49
9 10 14 11 10 11 12 15 8 9 10 10 10 12 12 16 16 19 22 23 24 25 27 33 40 51 55 47 43 39 39 42 40 39 40 45 51 53 54 54 52 50 50 50 53 51 51 50 49
11 14 14 14 10 11 12 13 11 11 12 11 10 11 13 14 16 17 20 22 23 26 30 33 37 45 50 50 44 43 43 43 40 39 40 43 45 45 48 51 52 52 52 52 53 53 52 52 52
13 9 9 11 12 10 11 11 12 12 11 12 11 10 12 13 19 24 28 29 32 35 38 40 42 48 50 51 46 43 38 39 37 36 37 42 43 49 52 51 51 51 51 51 51 52 54 57 58
9 9 9 9 12 12 11 12 13 13 12 14 14 15 21 28 29 33 35 35 36 36 41 46 50 53 49 45 41 38 38 36 35 34 40 45 44 48 50 50 50 48 48 49 50 52 54 57 58
10 12 13 13 13 14 14 14 14 15 16 16 18 22 24 27 29 33 37 38 36 36 36 37 41 42 40 38 38 38 39 40 40 40 42 42 45 50 51 49 49 50 49 52 53 53 57 58 56
13 15 21 19 15 14 15 16 17 16 16 17 19 20 21 25 30 34 38 41 40 40 37 38 39 42 46 41 39 41 40 39 38 44 45 47 49 49 46 42 40 42 48 55 58 57 57 64 61
18 20 21 19 20 21 15 22 19 18 20 21 24 25 23 24 27 31 36 42 45 45 42 40 40 41 45 48 49 51 52 50 48 44 44 44 43 41 40 41 42 48 52 58 60 62 64 68 72
22 21 21 22 24 22 17 24 18 18 23 27 28 28 29 29 30 32 35 40 45 47 46 44 40 39 42 46 49 50 50 51 47 43 42 43 46 47 46 44 44 51 56 58 68 75 80 82 86
19 23 22 23 24 40 23 19 24 21 22 28 29 29 30 31 31 30 31 33 41 42 44 45 41 41 40 42 44 44 46 47 46 46 48 53 55 52 49 48 51 59 72 78 79 77 80 85 83
21 24 45 52 49 49 24 24 30 26 23 26 31 32 32 32 32 31 30 32 35 38 41 43 44 43 39 40 43 45 47 51 51 53 56 60 58 54 54 59 72 75 74 76 78 81 86 89 89
25 25 53 55 64 50 24 25 35 26 26 26 27 29 30 32 31 29 30 32 36 36 37 40 43 43 41 42 46 53 56 56 55 55 58 58 55 54 71 76 77 79 83 85 83 85 87 97 100
26 37 25 33 45 61 28 31 28 27 29 28 28 28 30 30 30 30 31 32 35 37 38 40 42 40 40 44 48 48 48 50 51 52 54 52 54 66 80 78 87 88 80 76 76 83 99 99 98
24 21 39 46 69 51 25 25 41 33 32 29 28 30 30 28 29 30 31 32 34 36 36 38 38 41 43 40 36 36 38 43 46 48 51 60 64 74 76 67 82 87 91 86 78 74 80 83 84
25 27 28 27 36 56 57 33 22 24 25 28 27 25 28 32 32 31 30 33 36 38 37 36 39 40 33 34 35 38 43 45 48 56 66 69 67 68 74 72 78 81 82 74 75 73 71 71 68
24 28 28 62 47 57 60 48 20 21 25 26 28 29 30 30 29 30 32 37 39 38 37 37 36 30 34 36 40 43 45 47 57 61 66 72 73 67 74 81 86 85 71 64 56 55 56 52 55

GFSSGP_925_rhum_033.txt.gz
RH
4 5 18 18 23 24 22 19 32 30 33 31 37 48 59 59 61 87 73 68 72 82 75 74 75 74 70 64 70 76 75 74 75 75 77 76 75 73 71 69 66 63 60 61 67 65 65 69 69
6 8 19 18 23 26 32 28 28 23 23 31 35 44 52 61 50 57 71 80 70 73 75 77 76 74 73 70 65 64 72 77 79 80 79 78 76 74 72 69 66 65 67 72 74 73 74 70 68
8 10 17 18 21 24 40 27 25 20 20 28 37 38 46 55 44 49 70 79 70 72 72 76 73 74 72 72 73 74 73 70 70 70 70 71 73 78 81 80 79 76 74 75 74 72 68 70 70
17 15 12 16 18 18 29 25 22 22 19 30 35 53 42 39 40 48 68 70 65 68 66 67 60 55 52 52 52 54 58 64 72 74 79 80 81 80 76 71 67 64 62 64 62 57 56 52 50
18 18 17 18 24 23 21 20 20 22 22 39 42 55 52 37 38 42 62 54 53 62 53 42 34 33 36 38 38 40 43 45 45 50 53 54 51 50 52 55 55 56 56 57 57 58 60 62 62
18 16 20 20 25 23 20 17 20 21 17 40 46 52 53 35 34 40 46 47 39 42 38 35 37 38 39 39 40 43 44 46 48 48 49 49 48 49 52 56 58 60 61 60 58 58 60 62 62
18 20 21 18 26 24 19 14 17 17 17 24 40 57 52 44 33 34 38 37 36 32 32 36 37 36 34 34 38 45 47 47 46 45 46 50 56 59 55 51 41 40 37 37 37 39 39 39 41
15 15 16 15 21 19 13 10 14 15 14 15 34 51 61 45 33 30 35 38 37 40 42 40 53 55 52 37 34 36 37 42 40 44 64 68 69 70 58 55 57 54 53 56 40 46 43 34 35
10 15 15 14 15 13 9 10 10 12 16 28 27 40 44 38 30 29 33 38 40 46 51 52 55 55 58 50 51 45 60 59 64 60 65 70 75 66 56 58 62 63 62 61 60 58 56 51 54
12 15 10 8 10 9 8 10 10 14 18 36 46 41 39 35 31 30 32 34 39 46 52 52 58 57 58 51 50 52 58 61 62 61 65 60 63 65 59 64 66 62 62 65 66 58 58 56 53
8 10 8 9 8 7 10 10 11 14 20 30 49 45 40 37 33 32 31 33 39 38 48 49 52 46 53 46 49 54 55 58 59 61 62 62 57 62 63 64 62 56 59 57 54 54 53 55 55
7 7 8 9 8 6 7 6 7 13 15 18 38 38 39 41 36 32 32 34 38 38 46 50 42 50 48 44 47 57 58 61 64 62 59 60 56 58 56 57 55 53 50 48 48 53 52 54 57
7 8 8 8 11 10 8 7 8 12 12 16 31 33 37 37 34 29 28 30 35 42 46 46 42 38 36 45 43 44 49 47 54 58 59 56 55 57 57 56 53 51 48 46 46 46 46 44 46
8 8 9 8 11 9 10 10 10 11 10 18 20 33 33 34 31 28 26 28 34 41 46 47 46 48 44 46 44 44 47 49 49 54 53 53 50 58 54 55 52 50 48 48 47 47 50 52 53
11 13 12 12 12 12 11 14 12 11 10 14 17 25 28 28 26 26 26 25 32 33 39 45 48 55 44 43 45 43 51 46 44 45 45 45 48 55 54 54 54 54 52 52 50 48 52 53 52
11 15 19 14 14 14 14 21 12 12 11 12 15 14 21 28 26 24 23 23 24 29 36 44 55 56 51 45 45 41 44 41 41 40 41 41 48 50 53 54 52 49 46 46 48 50 52 53 52
15 20 20 16 13 15 15 19 15 14 14 13 14 16 17 28 31 31 29 35 36 37 41 49 56 60 62 65 47 43 42 40 38 42 43 50 50 47 46 46 45 48 51 53 54 54 58 58 56
17 18 18 20 12 11 13 17 16 13 14 16 23 31 41 44 45 44 42 42 45 45 47 56 63 64 59 54 49 48 47 46 43 45 41 42 43 46 49 49 49 50 50 49 51 51 50 52 54
11 14 17 17 14 13 15 18 18 20 22 33 37 39 42 45 44 45 42 40 43 45 44 45 41 45 42 39 40 38 38 37 37 42 42 42 45 50 50 51 50 48 48 47 46 53 56 52 50
13 17 25 18 16 15 16 18 22 22 25 31 34 39 42 46 48 50 46 43 42 41 42 42 41 41 40 40 42 44 44 42 42 49 49 49 49 47 46 44 42 45 49 52 59 58 56 59 69
25 28 26 23 20 18 19 22 25 23 25 25 30 35 39 47 51 50 50 45 41 41 40 41 42 41 38 43 44 42 41 46 49 46 44 43 44 44 44 44 44 45 48 53 54 58 70 80 80
31 27 26 25 28 34 21 35 28 27 28 31 36 38 42 44 47 49 52 49 46 45 42 41 41 41 42 43 44 46 51 52 49 46 44 45 47 50 49 47 47 47 54 55 65 81 79 77 84
28 23 26 27 32 32 33 32 30 27 40 41 42 42 45 45 48 52 49 47 47 47 45 43 43 44 43 44 46 47 49 48 47 47 50 54 55 56 53 51 49 52 70 77 75 74 77 78 79
22 27 32 34 38 55 42 37 35 31 38 41 41 42 42 43 44 44 44 46 46 46 45 45 44 44 41 43 46 49 50 53 53 54 58 60 59 56 54 56 63 73 73 70 70 77 79 83 84
28 39 65 58 73 62 48 52 59 42 34 37 43 45 44 44 44 43 41 45 45 43 43 44 44 43 41 42 48 53 54 54 55 56 60 57 55 58 64 66 68 64 70 82 83 81 78 82 86
32 32 77 60 81 65 36 52 48 37 37 40 41 46 42 42 37 41 40 40 38 38 38 39 41 42 44 47 44 43 42 44 51 51 50 53 57 60 67 67 63 64 81 81 77 75 82 85 84
30 48 27 42 63 75 51 43 38 37 41 34 36 36 43 42 38 42 39 36 36 37 40 41 40 43 42 36 34 34 37 41 43 50 59 60 62 64 64 70 79 75 74 79 80 76 71 78 80
30 25 49 66 67 62 49 48 61 43 40 37 37 39 38 36 36 39 38 38 40 39 38 38 40 39 34 34 35 37 41 43 52 56 61 64 66 68 73 72 77 72 69 81 80 79 74 74 77
36 39 38 42 62 76 82 53 35 40 42 39 38 38 40 39 38 40 40 42 40 39 38 41 34 32 33 35 37 41 43 47 53 60 65 69 65 73 64 68 77 72 70 66 69 67 61 61 59
26 33 38 77 58 69 83 60 33 48 46 44 40 38 39 40 39 44 41 41 42 40 39 34 33 32 34 36 40 42 43 51 55 60 63 70 63 66 78 69 70 64 64 60 56 50 49 53 52

GFSSGP_925_rhum_036.txt.gz
RH
5 5 15 18 21 25 27 21 35 40 52 51 49 60 69 67 62 79 87 79 86 85 79 74 67 63 70 71 68 68 71 74 76 78 78 78 76 74 72 69 65 63 66 68 64 62 68 70 69
6 11 18 18 24 30 40 28 48 45 47 45 46 51 62 78 71 90 94 94 84 81 80 77 72 67 63 69 75 75 78 78 79 80 78 76 73 69 67 67 68 70 73 80 75 74 70 68 70
6 10 15 18 24 28 44 25 28 36 38 39 46 46 51 65 75 77 84 86 82 81 78 75 72 70 70 67 66 68 70 73 74 70 68 68 72 74 75 74 71 69 75 78 71 66 63 62 58
16 14 13 17 19 17 31 27 30 37 42 42 47 54 45 45 59 84 89 82 72 77 77 76 70 66 61 60 65 66 68 69 69 73 73 73 72 62 55 51 48 50 52 54 52 51 52 53 54
18 19 18 18 25 25 24 23 23 36 48 50 45 55 53 72 82 82 74 68 59 73 67 58 44 36 36 38 40 44 49 54 58 58 54 50 47 45 46 46 46 47 47 46 41 39 42 46 52
18 17 20 27 38 25 19 19 29 47 51 47 48 51 51 72 77 76 68 64 55 50 40 35 35 35 35 37 39 40 42 43 44 46 47 44 42 42 42 37 36 34 31 27 27 28 30 32 36
19 21 21 24 41 34 16 17 31 48 49 53 48 56 52 46 66 60 48 43 36 32 34 35 34 31 30 31 37 40 42 44 45 46 50 53 56 48 50 52 49 46 49 49 33 38 39 31 30
19 18 17 24 44 28 14 15 16 23 34 42 44 64 57 47 56 41 29 28 28 30 30 34 43 44 35 25 26 30 37 38 41 52 63 63 58 55 56 57 58 56 57 56 57 56 53 48 50
12 19 20 16 18 15 11 14 13 22 38 40 37 49 44 42 43 45 47 39 39 41 39 52 53 53 46 40 39 50 54 55 57 66 64 62 60 58 60 63 63 63 65 64 61 58 59 55 52
17 20 16 12 13 11 9 13 14 36 53 58 56 48 43 38 43 50 52 56 54 52 50 55 53 53 50 51 47 58 58 60 58 63 68 66 60 62 65 67 66 64 63 62 61 57 57 59 57
12 11 9 10 8 10 11 13 12 37 54 54 56 52 43 37 38 42 44 45 48 51 55 57 54 54 55 54 56 54 59 62 62 63 64 64 65 67 70 70 60 57 56 53 53 53 54 55 56
9 8 9 10 8 9 10 10 11 18 34 46 44 44 45 43 38 36 38 44 48 51 54 56 54 57 51 55 55 58 56 60 64 64 62 65 61 63 61 60 56 53 51 48 48 50 50 49 46
10 8 9 12 11 8 8 9 12 14 32 43 43 42 43 39 37 32 32 37 49 56 55 53 46 50 46 46 48 52 56 60 64 65 64 60 58 58 59 57 54 52 50 49 48 48 48 46 49
8 9 8 10 11 11 12 12 10 12 34 45 43 44 42 39 36 35 34 36 44 51 51 46 30 37 42 43 41 45 52 56 58 60 61 60 51 54 53 55 54 53 52 53 52 50 50 48 52
11 11 11 12 11 11 13 14 13 12 34 43 42 42 41 39 36 36 33 34 40 45 47 44 40 40 36 46 44 43 48 50 51 55 54 51 45 44 54 54 50 51 53 52 53 53 55 57 59
15 17 19 14 14 13 14 19 13 12 21 34 39 38 38 38 36 35 34 34 41 44 46 58 54 47 44 42 47 44 49 47 43 47 47 48 49 50 51 50 50 52 51 51 53 54 54 53 52
19 20 20 16 16 16 15 20 16 14 15 18 29 48 48 54 52 54 48 39 42 52 59 64 59 53 61 52 49 46 46 45 44 45 49 54 54 53 52 51 53 51 50 50 50 49 49 50 49
23 18 22 20 15 14 17 19 17 18 39 48 54 54 54 55 56 56 57 59 58 64 71 78 76 79 75 67 58 52 49 40 44 46 47 46 47 52 54 53 52 50 48 46 46 51 52 53 52
13 19 23 17 14 14 19 21 22 40 46 52 54 57 59 60 58 57 54 51 52 49 49 64 66 61 65 56 47 43 44 50 51 52 52 53 50 50 50 46 43 44 46 52 55 53 52 48 61
20 26 25 20 18 15 22 23 27 34 44 49 54 58 60 60 58 59 54 49 50 51 47 43 41 42 45 46 48 49 50 50 47 45 44 44 44 44 44 43 44 45 45 45 46 50 58 71 79
34 31 27 24 22 21 24 26 34 33 39 43 49 54 55 57 61 62 58 51 47 46 44 42 42 41 41 41 41 41 41 44 47 48 48 50 48 48 48 49 50 49 46 47 54 64 75 82 77
37 27 26 26 30 29 24 38 30 34 42 44 50 58 60 58 59 58 55 50 44 43 43 44 44 46 47 48 47 47 48 50 50 49 53 55 55 56 56 56 54 51 60 72 76 73 69 75 82
30 23 26 27 34 36 38 38 35 43 49 49 53 56 58 61 62 62 55 48 44 43 43 45 43 44 45 46 48 49 49 51 52 53 55 56 57 58 57 54 52 52 65 69 70 74 79 81 82
24 29 42 40 45 55 41 45 42 48 48 50 50 52 55 58 59 57 50 48 48 48 47 47 44 43 42 42 43 48 54 56 56 56 58 58 57 56 56 58 63 64 62 70 87 90 89 90 92
32 48 64 60 74 67 46 60 56 48 40 46 53 52 50 50 55 60 58 55 54 50 47 45 44 44 46 47 50 49 50 50 52 56 54 55 55 59 66 72 66 62 63 71 76 75 76 78 80
31 46 74 58 74 58 47 64 56 46 46 47 47 50 45 44 47 52 52 52 46 42 40 44 46 49 48 42 39 36 38 40 42 46 53 61 66 70 68 67 70 70 68 63 73 74 75 75 76
30 48 34 56 64 70 57 49 40 44 42 42 48 48 54 46 46 48 49 45 44 44 45 44 46 42 37 35 36 37 40 42 48 56 59 62 65 66 70 75 80 80 75 68 76 76 74 78 76
30 28 48 65 63 61 55 57 66 53 49 43 46 49 46 40 38 48 47 47 45 44 44 45 41 37 35 35 36 39 43 46 50 56 60 65 65 70 73 70 68 76 75 70 69 72 74 66 63
38 41 43 49 64 76 82 58 45 53 50 49 50 46 49 47 48 53 53 47 44 44 40 36 34 33 33 34 36 40 43 44 47 52 60 55 49 52 56 71 76 68 61 61 59 57 55 54 60
28 36 48 75 49 75 83 62 45 51 45 44 43 48 52 53 53 54 50 45 44 44 37 36 34 34 34 35 37 39 40 42 47 50 55 49 43 51 59 63 64 55 51 46 48 49 58 59 59

GFSSGP_925_rhum_039.txt.gz
RH
7 6 15 18 20 28 29 25 39 48 61 58 56 58 69 82 73 78 84 92 83 84 78 69 67 67 70 73 70 67 68 72 75 76 77 77 75 73 70 67 66 69 82 83 78 76 71 67 64
10 17 18 19 22 30 44 33 56 57 54 54 54 66 70 90 86 97 94 98 89 84 74 66 69 71 70 69 70 72 74 76 78 77 76 73 68 66 67 70 72 77 91 100 92 72 65 59 55
13 16 14 18 25 27 41 35 54 51 46 42 52 48 58 90 84 88 97 97 93 86 77 71 66 69 74 74 74 75 76 77 76 71 67 69 74 72 66 59 58 60 65 63 50 51 49 49 49
20 13 15 17 21 20 33 37 45 49 46 46 53 57 50 59 80 92 98 94 88 87 79 74 70 67 64 64 65 66 68 69 69 72 70 66 55 44 40 42 43 44 44 46 46 44 46 51 56
20 17 18 19 22 23 25 35 40 46 51 48 46 57 62 88 84 87 94 89 81 86 78 75 69 62 59 59 62 64 66 65 64 58 51 43 40 39 40 41 42 41 38 32 29 31 34 35 37
18 19 21 35 46 38 20 31 47 51 50 50 55 58 74 93 85 93 86 83 79 69 67 56 42 38 38 41 44 47 47 49 47 44 41 38 39 39 38 36 35 33 36 33 29 32 32 30 32
19 20 19 51 44 35 20 21 49 49 53 55 48 67 77 82 88 86 80 73 64 49 37 35 35 34 35 37 40 43 43 44 43 40 41 48 47 51 52 52 50 51 55 43 53 52 48 42 44
20 20 19 52 46 37 24 17 28 42 49 47 46 68 81 62 84 78 70 54 39 34 33 32 32 30 31 36 38 37 39 41 39 48 58 59 56 58 58 59 58 57 59 57 56 54 54 50 50
14 20 21 54 37 28 24 17 20 38 52 46 43 47 50 72 76 74 62 51 41 39 34 42 43 38 30 26 29 35 35 40 55 62 63 60 60 61 64 64 65 62 63 62 60 56 56 56 55
20 23 20 30 37 34 14 30 31 49 58 64 61 51 61 66 65 59 56 58 48 41 44 50 50 45 41 39 48 51 53 55 66 66 63 64 63 66 67 67 68 66 62 59 59 60 58 57 56
15 13 12 12 24 18 13 18 26 58 63 58 60 53 54 57 56 51 45 40 36 38 51 54 52 51 49 48 53 56 60 60 62 65 68 66 64 66 69 66 66 62 60 56 55 55 57 55 51
10 9 10 10 11 12 14 14 35 33 54 51 47 44 47 49 52 52 49 48 46 47 52 57 54 54 54 53 53 54 58 61 60 63 65 67 66 66 66 64 62 57 57 53 51 50 51 50 50
9 9 12 12 10 9 10 12 15 20 53 50 46 41 43 44 45 44 40 46 50 55 54 57 56 56 54 53 53 58 57 58 60 65 66 66 61 59 59 60 59 56 54 53 54 54 55 56 56
9 10 11 12 12 11 12 12 14 24 53 52 48 45 41 39 39 40 42 46 47 51 55 56 56 55 50 48 50 51 54 57 61 65 67 65 62 58 59 57 55 54 54 56 56 56 56 55 57
11 12 12 12 11 11 14 14 18 30 52 52 49 47 45 39 37 40 40 43 44 48 51 57 60 57 50 51 49 50 53 57 56 57 65 65 60 52 53 54 55 56 56 55 52 52 52 51 51
15 18 19 14 13 15 14 18 13 38 54 57 53 48 47 58 61 46 37 38 46 55 61 63 62 54 52 55 55 54 57 56 53 57 64 62 60 59 60 58 58 55 53 51 50 49 48 47 47
22 22 19 17 16 16 16 19 16 22 46 36 56 57 61 65 64 68 60 43 45 57 63 65 63 64 65 69 61 56 51 49 50 51 60 63 64 61 59 56 54 53 51 49 49 50 50 48 46
19 19 20 20 18 16 18 20 27 26 44 64 68 68 68 68 69 67 70 70 70 69 71 73 72 76 80 76 58 48 46 52 52 53 55 56 56 55 54 52 49 47 46 46 46 46 44 44 52
19 18 23 18 16 16 19 28 41 57 62 70 72 71 70 70 68 68 66 70 76 79 83 83 79 82 77 61 47 50 53 54 50 47 47 47 47 46 46 44 44 43 44 45 44 43 42 45 60
25 24 23 21 23 20 28 38 43 47 56 64 68 71 71 70 68 70 65 60 55 56 52 50 50 48 48 47 47 51 50 49 47 47 46 45 44 44 44 45 48 51 50 45 49 63 73 77 80
36 30 27 24 25 24 29 36 45 47 53 57 62 64 63 66 72 73 71 60 52 47 44 44 43 43 43 43 42 43 47 50 48 48 48 49 50 51 53 55 56 53 47 58 70 73 69 71 69
35 28 26 26 27 26 27 47 42 42 51 59 64 69 66 65 66 67 63 55 48 48 46 46 44 44 43 42 41 40 40 46 51 52 55 57 58 58 58 57 55 53 54 57 59 61 66 77 82
31 26 26 28 37 38 39 41 42 51 54 57 60 65 64 62 63 63 56 50 50 48 45 45 45 45 46 46 45 45 48 50 53 56 59 62 61 58 57 57 60 62 62 58 63 80 89 90 90
25 34 46 52 50 56 44 49 48 59 54 57 56 61 63 62 62 58 54 50 50 52 46 45 44 46 47 47 50 51 54 56 56 56 59 57 57 59 62 68 65 61 61 64 73 79 79 82 92
36 48 60 60 70 68 51 60 57 49 49 54 61 63 63 63 67 66 61 57 54 53 52 47 46 49 51 48 48 48 47 47 48 47 46 52 59 64 66 61 62 67 67 63 64 66 70 70 74
35 46 71 57 73 52 52 66 59 50 51 53 54 56 56 56 56 59 57 58 58 55 52 50 51 53 47 43 39 38 37 36 37 41 49 57 59 60 58 58 65 67 71 69 64 74 76 81 82
30 48 38 67 68 69 63 51 46 49 55 53 52 51 51 51 49 48 56 52 49 50 50 49 47 42 39 38 37 37 38 38 40 45 54 56 59 60 61 69 75 73 80 80 84 78 74 71 67
29 32 50 65 60 57 59 60 67 58 60 50 52 54 54 50 54 58 57 51 48 46 46 47 41 39 36 35 35 37 39 41 44 45 48 54 60 53 54 68 74 79 79 69 70 64 58 59 59
38 41 50 56 67 76 81 62 44 55 52 52 53 55 61 64 64 62 53 48 45 46 41 38 36 35 34 34 36 37 37 39 44 46 51 60 59 47 50 55 66 71 62 54 48 50 52 51 56
32 38 47 63 48 80 82 61 48 56 53 54 59 63 62 60 61 56 53 50 49 47 40 39 37 36 36 36 36 37 38 42 42 47 52 58 58 53 56 62 66 66 57 54 46 48 57 58 56

GFSSGP_925_rhum_042.txt.gz
RH
9 10 13 20 22 28 29 23 36 47 64 63 64 62 78 92 78 80 100 91 82 77 79 80 77 79 78 72 67 66 66 65 69 71 72 71 70 69 67 66 70 79 96 97 68 66 62 58 58
10 16 20 21 21 25 44 32 53 65 69 68 70 69 79 95 84 97 91 97 80 77 86 83 81 78 75 74 72 68 68 72 73 73 73 71 68 66 66 68 70 79 89 91 55 48 46 46 49
13 17 16 21 27 26 40 44 55 57 50 50 54 54 70 94 85 93 98 94 80 80 86 84 78 75 74 70 68 71 73 73 71 70 65 66 67 65 58 52 53 58 54 52 51 49 50 53 59
19 16 17 19 19 19 32 46 50 54 46 52 52 61 56 80 83 90 98 92 86 85 80 82 78 73 71 70 73 73 72 70 66 64 64 59 52 44 42 43 46 48 49 47 41 38 41 45 47
20 21 20 21 27 26 23 42 51 53 53 52 49 60 71 97 87 100 98 90 87 89 83 74 68 67 67 68 67 66 64 63 62 60 53 45 40 39 41 43 42 38 33 32 34 34 34 35 36
20 21 24 45 45 38 30 39 57 52 51 53 59 66 87 100 91 98 94 91 89 87 84 77 68 63 57 57 59 58 55 53 54 48 43 38 37 38 38 39 38 47 42 37 49 50 44 41 49
17 22 30 50 42 37 26 36 51 51 54 55 52 84 92 97 100 96 95 93 89 81 73 59 47 41 43 44 41 40 44 47 46 42 39 44 48 52 53 51 52 56 49 55 54 52 50 50 52
22 22 29 48 43 39 22 38 39 46 52 47 54 93 97 85 99 97 96 90 82 64 45 37 34 33 33 34 38 43 45 45 42 46 52 50 57 58 59 60 58 57 59 58 56 56 55 53 54
16 20 48 53 49 40 25 44 30 44 54 52 51 66 71 86 94 92 89 80 60 45 36 32 30 28 29 36 41 43 42 39 42 58 60 61 60 63 65 64 64 60 63 64 62 57 55 53 52
21 24 25 40 38 39 31 23 38 52 59 62 62 74 82 90 89 85 77 66 52 44 36 41 37 34 28 32 37 34 36 50 55 62 64 66 65 67 68 68 67 65 63 60 61 59 57 56 52
18 19 17 26 33 21 28 31 34 60 60 62 62 80 79 82 77 70 60 50 37 33 41 46 44 43 35 43 45 46 51 58 66 67 68 68 66 67 67 67 68 66 64 59 55 54 56 59 54
13 13 13 21 35 30 19 21 53 43 42 52 55 69 70 70 62 55 50 42 37 39 45 50 52 49 46 47 52 54 57 59 62 65 68 67 66 65 66 65 66 62 58 55 53 53 54 56 57
10 10 13 12 17 14 15 15 42 24 57 52 53 61 63 58 52 45 32 34 38 42 48 53 55 56 55 54 53 57 60 63 65 68 67 67 66 64 62 62 62 59 57 57 57 57 56 56 55
9 12 14 12 10 11 14 15 15 32 61 56 50 57 56 52 52 50 47 40 43 44 47 54 59 62 67 64 69 65 63 64 66 68 69 71 68 65 65 64 60 60 60 59 57 55 53 51 50
12 14 14 14 12 14 14 14 17 46 60 60 51 49 48 45 43 44 45 46 46 47 52 57 61 66 76 72 65 63 66 65 69 71 74 79 72 69 66 64 64 62 58 55 52 50 49 48 45
16 18 16 14 13 16 12 17 14 63 63 67 60 57 62 66 65 53 43 40 43 49 58 66 69 73 64 62 68 64 64 66 61 68 76 78 75 68 67 64 60 57 54 51 50 49 47 46 44
22 22 20 17 16 16 15 18 22 57 64 58 57 65 68 71 69 66 57 43 42 55 65 74 77 69 73 66 63 77 64 61 61 62 65 65 64 62 60 57 53 51 51 51 44 44 44 43 41
20 19 19 19 17 17 19 31 54 53 51 65 74 78 78 80 81 77 85 77 70 77 79 81 79 81 77 88 75 65 57 52 51 52 53 53 53 52 50 48 46 45 45 47 47 44 43 49 66
18 18 19 20 18 20 35 49 62 68 72 79 82 84 82 79 76 80 89 92 90 92 90 88 84 85 90 74 58 55 53 49 47 46 46 45 44 44 44 45 46 50 52 48 45 48 56 61 72
24 25 24 23 25 24 44 54 57 60 69 76 82 82 80 78 78 74 68 62 60 64 70 75 72 64 61 53 50 47 45 42 40 38 37 42 46 47 49 52 55 55 50 47 49 55 64 66 69
35 29 28 27 25 29 34 40 55 58 65 68 71 70 70 77 80 80 69 66 62 54 48 47 45 43 42 42 43 44 44 42 42 44 48 50 52 55 57 58 55 54 54 56 55 53 57 79 79
32 28 27 29 27 33 30 41 48 55 65 68 69 73 73 74 76 75 72 58 48 46 44 42 42 41 42 42 40 40 42 45 49 53 57 58 59 60 59 57 58 59 58 56 55 53 61 83 88
31 31 32 34 42 38 42 43 46 57 66 68 68 69 69 70 68 68 58 54 48 46 47 45 45 46 45 44 44 45 46 52 58 59 62 64 63 61 58 59 60 59 57 59 59 63 76 86 85
30 41 49 55 53 57 48 54 52 66 60 63 62 66 68 68 66 60 55 55 53 53 52 51 50 49 49 50 51 52 54 57 57 55 58 59 60 61 62 61 59 54 60 63 63 64 68 72 75
41 47 63 62 67 68 52 59 54 47 53 59 66 68 68 68 68 67 65 63 61 56 51 50 50 54 54 53 53 49 46 41 36 36 38 40 46 52 57 59 53 53 61 64 67 69 71 75 82
40 44 71 58 77 58 53 65 58 55 53 58 60 63 65 66 67 66 61 62 62 61 55 50 55 55 50 43 39 37 35 35 35 37 40 47 50 51 55 53 51 53 64 65 75 77 80 79 75
38 49 42 72 68 70 64 54 51 60 61 62 62 62 64 62 61 61 63 59 55 52 52 56 56 44 40 38 36 36 36 38 38 39 41 44 48 50 55 55 60 72 76 80 83 82 71 67 63
28 39 53 64 55 48 60 61 69 66 67 62 60 64 62 60 65 67 61 56 55 53 54 48 42 40 37 36 38 37 37 38 40 41 37 40 44 54 63 60 63 70 79 83 75 71 70 68 63
40 44 55 62 67 74 79 62 51 62 62 63 60 58 62 71 68 65 58 52 48 41 39 38 38 37 36 36 36 38 40 44 46 51 47 47 58 68 68 55 60 70 76 66 58 55 53 49 55
35 40 45 60 49 80 81 67 55 57 56 57 65 70 70 68 67 62 57 53 50 49 50 47 44 49 49 41 40 42 43 45 46 47 48 56 64 72 67 63 69 72 72 61 56 48 49 57 56

GFSSGP_925_rhum_045.txt.gz
RH
12 10 12 21 21 18 19 21 30 55 64 59 56 54 68 73 70 73 100 93 80 77 85 91 88 82 74 70 68 66 65 66 70 71 70 70 67 65 62 61 65 77 92 97 87 67 57 51 49
14 16 20 18 17 15 29 27 55 64 68 61 53 65 67 93 80 94 90 98 80 77 85 96 88 82 77 72 70 66 66 70 71 69 65 62 60 62 66 72 86 78 87 81 68 51 49 50 50
18 18 15 17 21 19 32 49 62 60 66 61 57 54 65 90 85 90 99 94 74 82 88 96 83 81 78 74 69 69 73 72 68 61 56 59 65 67 62 62 65 60 59 54 46 44 43 43 46
20 14 14 16 17 17 29 51 52 50 48 47 47 49 65 86 84 91 98 97 84 87 91 86 85 82 76 72 74 73 71 67 59 54 60 64 54 46 47 51 53 51 42 34 34 35 36 34 34
19 16 16 18 30 27 23 45 49 50 57 56 40 57 77 95 89 97 98 96 73 86 89 88 82 77 78 78 74 70 65 58 56 58 54 46 45 47 47 45 39 36 34 36 41 38 33 41 50
18 17 19 34 39 32 40 48 40 53 49 47 51 60 85 99 99 99 94 84 77 80 83 87 84 81 76 69 68 64 59 53 54 52 45 44 44 42 39 40 51 42 46 54 51 50 51 52 52
18 18 32 41 38 38 40 47 43 47 44 50 53 84 92 98 100 94 82 88 86 84 81 78 75 70 64 60 59 54 51 51 45 42 43 45 50 51 50 52 57 51 56 56 56 55 55 56 55
17 19 44 44 39 38 36 42 36 43 50 48 56 75 94 92 100 99 96 93 90 88 82 67 55 54 53 54 49 48 47 45 42 46 50 54 56 58 58 58 59 62 62 59 57 56 55 54 53
16 18 40 41 38 44 40 42 38 43 49 52 54 67 76 100 100 100 99 97 91 79 52 42 42 46 44 44 45 45 46 45 50 56 56 58 61 62 63 64 62 62 63 64 61 58 56 55 54
18 18 28 34 37 56 51 38 40 50 53 53 67 84 94 98 97 92 88 84 78 52 43 40 42 40 39 40 42 46 46 44 59 61 62 62 62 65 67 67 65 63 61 59 56 54 54 56 52
18 18 18 31 29 37 42 31 43 50 53 48 62 86 87 90 88 82 76 67 54 37 41 45 44 37 37 41 42 43 43 53 59 64 65 66 66 68 70 73 71 67 61 59 54 52 54 54 52
16 14 18 28 30 24 28 26 47 43 37 45 61 74 82 80 78 73 64 51 50 42 47 49 48 45 46 51 55 55 57 60 66 67 68 71 71 68 70 76 75 66 58 55 54 55 56 56 55
14 12 12 12 22 17 19 28 38 35 51 52 68 72 73 70 67 64 51 45 48 43 44 52 53 53 54 57 61 64 64 66 67 70 72 75 78 77 73 71 72 63 60 60 60 59 56 53 51
13 14 13 15 19 15 16 18 25 34 50 57 66 66 64 60 57 51 45 42 48 49 51 56 61 63 66 68 70 70 67 69 72 76 83 92 90 79 72 68 66 65 63 61 57 53 51 49 47
14 15 15 14 14 14 14 16 17 48 48 54 61 60 56 50 48 44 46 44 44 48 52 58 67 72 72 70 63 66 71 72 73 80 82 88 89 78 72 69 66 63 58 54 52 51 49 49 45
16 17 17 15 15 16 14 18 20 59 51 52 52 51 50 53 58 62 57 50 50 57 66 69 75 76 66 64 66 57 65 73 67 73 77 86 82 75 70 65 59 55 53 53 51 46 46 54 54
20 18 19 18 17 16 15 19 35 50 59 59 55 55 55 58 61 71 78 61 52 66 66 81 81 78 76 67 81 80 77 75 61 62 63 61 60 58 56 53 51 50 46 45 47 55 50 54 56
22 21 21 20 18 20 22 35 45 51 55 60 62 62 62 64 70 83 91 84 79 90 97 94 90 91 83 68 80 62 73 54 53 51 49 48 47 46 44 44 45 49 52 53 52 48 54 61 64
19 19 19 20 20 32 40 46 54 58 60 65 66 68 69 72 79 87 96 98 98 98 96 80 78 85 86 79 75 58 53 49 46 43 42 40 42 45 47 50 54 55 55 51 52 64 66 56 70
22 24 26 26 27 29 42 52 57 58 67 66 69 70 70 72 70 78 86 92 94 97 89 89 91 89 81 68 63 51 49 45 40 40 43 46 48 50 53 56 56 54 60 53 59 72 63 59 73
32 29 28 26 27 30 33 36 50 62 66 68 68 66 66 64 62 65 72 78 79 79 80 77 64 60 59 58 50 47 44 48 53 50 48 49 53 55 58 58 54 53 54 64 58 64 75 63 72
35 29 29 27 24 28 31 26 41 58 68 69 68 65 63 63 64 64 64 62 64 57 48 44 48 49 51 50 48 46 50 52 53 53 55 57 59 60 59 56 54 54 52 48 58 71 78 81 67
35 33 34 34 36 32 39 29 33 58 70 69 65 63 62 61 58 57 54 54 61 54 51 49 48 49 50 49 48 49 50 54 58 60 63 64 61 57 54 55 54 54 48 44 52 70 74 78 79
39 38 42 45 43 45 46 44 40 51 54 63 60 60 60 59 57 54 56 58 59 56 55 53 54 53 50 49 50 52 55 55 56 51 55 46 45 46 46 51 52 53 50 56 69 71 80 84 84
35 39 46 47 53 45 49 53 41 43 46 52 56 56 57 55 55 54 55 58 62 61 58 54 51 54 55 52 49 43 37 35 33 33 40 40 46 41 45 51 55 64 64 67 70 77 87 90 89
41 37 58 54 59 52 48 53 42 47 47 47 49 50 53 57 57 56 58 59 63 64 58 54 57 56 49 42 38 36 35 36 37 37 38 38 40 42 45 55 64 64 65 68 74 81 90 91 95
43 45 40 61 65 59 47 47 42 52 56 52 50 53 55 55 56 55 61 66 65 64 62 62 57 47 41 38 36 37 37 39 40 43 45 45 46 50 59 66 68 60 55 70 80 92 82 71 70
33 39 49 51 57 42 41 50 41 56 55 57 54 53 54 55 57 58 60 64 63 64 57 50 44 41 38 37 38 40 41 43 45 46 48 55 55 57 64 67 69 54 54 64 75 73 69 65 65
39 44 53 50 52 44 48 31 47 48 50 54 50 53 57 61 58 55 55 54 49 49 45 41 39 42 46 43 40 42 44 44 43 45 47 47 48 54 61 71 73 64 78 80 74 79 76 62 66
36 40 45 49 47 68 60 40 50 55 51 53 54 61 61 56 53 52 54 54 54 58 54 52 52 48 46 45 40 28 24 26 37 37 35 35 36 39 52 85 89 89 92 92 88 86 67 59 66

GFSSGP_925_rhum_048.txt.gz
RH
19 18 13 16 17 14 16 16 28 47 52 45 42 45 45 47 50 69 84 74 71 73 84 93 79 67 68 66 66 70 69 70 69 70 72 71 69 68 69 72 81 86 97 92 57 46 44 46 47
14 15 13 12 15 13 11 14 32 49 50 46 46 46 50 67 66 89 75 83 78 77 77 89 81 71 71 71 73 75 74 73 73 74 72 68 64 63 64 74 69 67 80 75 53 46 46 46 44
17 15 12 10 9 11 14 20 45 49 41 46 54 50 53 66 70 74 83 83 83 78 78 90 82 77 74 74 76 75 74 74 73 69 65 66 67 67 68 70 64 63 66 54 38 33 32 31 32
11 10 10 11 9 15 25 37 44 43 39 38 65 73 63 68 86 97 94 84 78 77 80 92 86 81 78 76 73 74 75 71 63 61 65 60 53 49 50 52 53 46 41 37 33 31 31 42 45
11 10 10 10 11 14 30 34 34 36 36 34 35 49 70 76 83 86 87 80 75 70 81 98 87 84 82 81 78 78 72 63 63 62 53 46 46 47 48 46 36 34 38 45 40 36 47 48 48
10 10 11 11 16 22 21 34 34 30 29 41 38 43 67 86 86 95 92 87 80 80 86 96 90 84 83 80 79 75 68 64 63 54 45 44 44 43 42 49 43 48 53 50 50 51 52 52 52
11 10 12 17 24 28 36 31 30 29 32 39 35 52 77 89 94 97 84 79 79 80 82 87 91 94 84 76 75 68 62 63 57 46 42 43 45 47 53 56 50 58 57 56 56 57 57 56 53
11 11 22 23 26 34 37 32 28 48 42 41 37 49 86 83 99 98 89 83 79 81 76 74 76 78 81 87 66 59 61 55 47 44 49 54 55 54 55 59 62 63 62 60 58 57 56 55 52
12 13 24 28 28 41 34 34 27 32 39 39 41 45 51 98 94 85 80 79 78 78 81 72 66 72 71 67 76 64 56 52 50 56 57 64 67 72 72 69 61 62 62 63 59 56 54 52 51
12 14 16 18 28 38 33 33 34 32 42 41 45 59 78 91 75 72 73 75 75 70 61 64 67 68 65 56 70 71 67 60 69 70 76 69 77 75 73 73 66 63 59 57 54 52 50 53 49
12 14 14 21 26 22 33 38 26 32 29 31 37 69 65 70 66 63 62 61 55 46 48 60 69 72 63 63 61 56 57 64 75 81 80 81 78 77 74 78 71 73 64 59 56 56 54 63 58
13 11 14 23 24 26 27 23 28 30 28 31 35 54 60 59 59 56 51 42 35 40 49 58 68 72 73 62 58 65 64 70 71 76 87 82 79 83 80 74 76 76 64 63 61 58 69 66 62
13 11 18 18 24 20 24 25 24 29 32 32 45 54 53 49 44 47 36 29 30 36 48 58 68 69 72 73 72 74 76 74 79 76 82 83 84 87 85 82 73 70 66 63 64 62 59 59 56
12 11 17 15 24 18 22 25 21 28 34 43 51 46 42 39 35 37 32 28 32 35 48 64 68 72 71 72 79 78 81 77 83 86 93 100 89 82 80 84 74 69 66 63 61 62 57 55 54
11 12 12 12 19 20 14 19 17 30 35 44 42 41 40 38 35 30 27 26 28 37 49 66 73 76 75 74 73 75 78 76 75 72 72 80 98 98 93 84 72 70 68 66 60 58 55 52 52
11 12 17 14 18 13 13 15 19 36 34 37 39 42 40 37 34 38 41 35 31 36 52 67 80 83 85 85 82 81 78 76 83 76 79 76 84 78 80 72 67 69 62 60 55 54 52 48 49
13 14 13 15 13 13 12 14 24 43 33 37 41 42 40 41 42 48 51 49 42 43 55 75 90 96 91 86 85 75 66 78 66 64 64 59 58 55 56 65 64 58 56 58 57 54 56 52 46
14 12 12 12 15 12 13 22 27 42 41 41 41 41 41 42 45 56 58 61 52 60 70 83 95 90 78 88 72 72 90 64 56 60 59 59 59 62 56 59 62 58 57 57 61 57 50 47 42
13 12 12 12 15 15 15 24 28 42 43 47 43 43 44 45 53 62 69 70 74 81 86 91 96 84 77 74 86 82 63 58 55 49 56 57 57 60 62 56 60 61 61 63 58 50 43 39 42
14 15 16 18 17 19 23 29 32 39 43 43 44 47 49 53 56 67 71 74 74 78 82 88 88 89 85 79 60 53 51 46 46 52 60 60 63 65 62 66 62 62 50 51 53 51 46 40 40
19 18 20 16 20 21 22 27 35 42 46 48 46 44 46 49 55 59 66 70 75 79 77 71 74 76 66 56 56 57 56 51 49 53 53 64 67 68 69 66 58 53 49 43 51 50 52 46 42
20 21 19 19 18 18 22 17 27 38 44 46 50 48 48 48 47 46 44 47 52 58 58 56 60 58 60 57 49 45 40 40 52 55 58 59 70 68 62 57 54 53 53 53 48 45 58 53 47
25 22 20 20 20 20 22 19 24 36 42 48 49 48 49 48 45 35 35 39 41 52 52 51 50 51 58 58 52 52 51 54 56 56 58 60 59 61 54 52 56 55 52 51 60 61 58 55 54
26 26 26 25 24 27 21 26 13 25 29 43 47 48 47 46 39 34 36 40 46 59 60 58 54 56 60 59 60 58 57 51 43 43 42 39 41 42 47 50 54 56 58 60 62 62 62 62 60
25 24 25 31 30 26 35 32 17 30 31 36 45 46 44 38 37 36 38 41 45 51 55 55 52 54 58 58 55 50 47 44 41 42 38 39 35 37 40 46 52 53 57 67 66 61 63 64 64
25 22 25 26 29 28 37 32 29 33 32 32 37 40 36 37 37 37 39 42 46 51 52 50 51 51 51 50 46 46 43 41 41 42 43 42 42 43 46 55 59 63 67 70 68 69 65 67 70
31 28 30 40 49 44 24 28 30 36 37 36 39 36 36 37 39 39 42 45 48 52 54 55 52 48 47 47 48 48 49 48 46 49 51 52 56 54 55 62 65 64 66 69 69 69 67 65 68
27 27 34 34 46 29 18 23 18 37 38 36 39 36 36 37 41 41 45 52 53 55 59 56 47 44 43 45 50 46 46 47 50 54 53 51 50 51 53 53 52 53 59 64 65 64 58 63 64
34 32 32 28 34 24 21 14 27 29 33 36 34 35 36 42 43 45 47 51 52 50 48 45 41 42 50 50 52 49 45 40 40 42 41 41 42 38 38 40 47 52 55 64 67 70 65 70 64
26 26 28 30 33 43 39 20 26 34 35 34 34 35 38 43 43 43 44 43 43 42 44 50 52 53 52 54 38 34 36 38 36 37 38 41 41 44 47 53 59 59 65 73 80 78 86 79 67

GFSSGP_925_rhum_054.txt.gz
RH
16 16 22 12 14 14 14 12 9 17 28 32 28 37 59 62 71 89 78 64 74 78 57 62 74 87 84 73 62 58 61 66 72 75 76 78 78 88 80 77 74 84 87 83 60 40 30 26 24
21 18 11 8 14 14 12 12 32 58 66 54 67 35 47 79 58 77 73 68 72 77 76 67 62 72 69 62 61 64 69 74 76 75 75 72 77 90 75 64 65 78 83 71 34 27 28 33 32
15 11 9 9 11 15 11 44 29 56 51 60 47 42 52 75 71 72 72 74 74 72 78 64 66 66 66 66 70 69 71 74 74 71 68 71 81 68 61 58 57 52 62 44 30 39 41 39 36
11 8 7 12 14 9 7 50 57 71 39 37 39 56 51 62 74 80 77 81 78 80 77 68 70 67 68 72 71 72 74 74 68 66 68 63 56 55 51 45 35 35 32 30 37 44 43 41 38
8 8 8 10 11 9 8 31 44 48 30 30 36 52 56 73 86 77 80 89 86 85 80 74 69 71 75 76 74 76 77 70 67 64 52 48 49 48 41 32 33 42 40 40 45 44 43 41 36
9 7 12 14 11 10 8 47 49 35 29 27 32 44 52 69 79 95 88 89 88 84 83 80 78 81 82 78 81 79 72 70 66 51 44 44 43 37 38 38 48 44 44 44 44 43 40 36 35
9 10 11 12 12 14 23 42 56 52 40 39 27 44 48 58 66 71 82 84 84 87 89 91 89 90 82 85 82 74 71 68 55 43 40 40 44 50 42 50 48 46 47 46 44 42 40 37 33
7 8 11 11 11 52 56 58 57 36 40 28 36 55 54 52 72 78 74 76 82 81 86 90 87 84 87 86 78 72 68 58 43 40 44 48 50 55 62 54 54 56 54 50 46 42 39 35 44
6 10 14 13 25 44 51 75 74 45 42 33 38 49 61 65 66 73 70 74 79 75 79 76 81 77 76 72 69 67 58 44 41 49 55 62 66 66 73 66 52 51 46 46 46 43 39 40 47
9 12 12 15 32 47 58 63 76 53 77 53 62 56 64 77 62 61 51 88 71 67 63 67 65 69 69 71 62 58 41 54 58 57 66 72 70 67 72 58 57 61 61 55 55 53 50 54 59
9 12 11 34 36 40 51 64 69 25 37 21 54 61 62 68 66 71 70 85 67 57 58 63 62 56 51 54 65 54 55 63 67 69 71 63 65 69 72 73 67 64 62 66 56 52 61 58 59
10 8 15 34 36 35 41 56 30 26 26 31 45 48 47 58 67 86 90 61 54 49 52 61 60 54 51 52 52 46 54 61 65 70 71 76 76 71 61 64 65 68 62 56 56 56 57 56 55
10 11 27 28 24 25 20 34 36 37 30 32 40 38 40 45 49 66 73 39 39 48 56 62 59 56 47 51 52 64 67 68 72 75 77 79 77 73 69 66 67 61 62 62 60 59 61 58 56
11 13 25 25 27 29 28 40 36 32 32 28 29 36 36 48 68 70 32 30 34 42 53 57 62 64 60 66 68 72 74 75 77 72 75 78 81 87 87 82 79 73 69 64 64 61 58 55 54
14 20 19 18 26 21 29 34 31 24 28 28 27 29 26 27 50 26 24 26 33 46 54 57 62 65 66 75 73 76 74 58 59 68 86 82 84 87 84 81 73 66 64 59 56 54 53 52 50
16 19 21 12 14 19 24 35 23 23 27 28 27 26 26 25 22 22 24 27 34 47 55 55 60 71 70 72 76 61 49 49 58 63 56 58 55 69 72 65 54 52 52 55 57 55 52 49 46
18 30 21 17 11 17 21 23 22 22 23 26 26 26 25 23 22 23 23 26 32 47 56 66 71 75 73 75 73 63 62 62 58 66 52 42 45 54 58 58 62 54 53 54 56 58 53 47 43
21 20 17 16 12 14 18 16 18 21 25 27 27 27 27 25 25 28 29 27 28 44 56 75 85 90 79 74 69 75 75 65 62 51 47 60 60 57 53 56 61 58 52 54 56 54 48 44 42
14 15 16 15 10 12 11 15 18 17 20 30 27 27 29 29 32 38 36 38 35 42 80 83 91 85 75 73 79 76 71 71 63 55 56 54 55 57 58 54 53 52 54 50 46 48 49 47 44
11 13 10 9 8 10 10 14 13 17 17 23 26 28 31 32 38 41 46 46 44 64 91 92 92 86 83 82 72 67 64 59 50 52 55 56 60 61 54 62 55 52 51 43 43 46 48 47 47
15 23 24 14 10 10 13 13 18 18 18 21 25 28 31 37 44 47 52 58 63 80 85 78 82 84 81 62 56 57 54 48 48 53 58 61 60 58 55 52 50 48 47 45 46 47 49 54 50
28 21 22 17 21 17 20 32 34 21 24 25 28 28 31 34 38 44 56 72 74 73 68 75 76 70 57 45 46 45 43 45 45 49 55 57 59 56 54 49 47 48 50 50 48 48 49 52 55
30 19 23 13 13 25 30 34 35 25 25 28 29 30 32 34 39 44 59 65 70 70 68 59 49 47 46 43 41 42 44 48 50 50 52 48 48 46 47 46 45 45 48 49 48 49 57 55 54
20 25 19 16 19 42 32 35 29 28 24 27 29 32 34 38 40 40 43 47 49 49 48 47 44 46 46 48 47 47 48 48 46 44 44 42 38 34 33 37 41 44 44 46 48 50 55 62 62
18 21 33 76 66 35 13 26 30 34 36 32 30 34 37 37 38 36 38 40 46 48 47 44 44 46 49 52 53 55 51 46 44 43 43 40 38 37 39 43 46 46 46 46 48 51 56 62 68
35 17 53 51 68 34 29 21 24 20 20 23 26 30 36 39 36 33 33 39 46 50 50 45 44 46 52 54 52 49 46 44 43 43 44 43 43 44 45 44 44 46 46 46 46 46 51 60 68
21 23 21 23 23 40 22 13 27 22 22 24 29 32 39 40 34 31 32 37 43 46 48 45 44 47 51 50 48 47 48 45 44 45 45 46 45 42 37 37 36 37 38 40 43 46 48 59 65
18 15 29 24 40 41 18 16 28 29 25 25 30 35 38 37 34 31 31 35 39 43 46 47 45 46 48 48 47 48 46 45 46 45 42 39 39 37 37 37 38 40 41 44 45 45 54 60 63
23 24 19 16 28 45 51 25 23 21 22 26 27 32 36 35 33 32 32 36 39 44 49 51 49 45 44 47 47 46 51 52 37 35 35 34 35 37 39 42 44 45 47 46 48 55 56 60 63
17 20 19 46 30 33 44 33 15 17 21 22 22 28 31 31 31 32 33 40 43 49 54 53 45 42 45 48 48 51 45 34 33 32 30 32 36 39 42 46 48 49 52 67 71 74 76 73 70

GFSSGP_925_rhum_057.txt.gz
RH
10 13 19 23 26 29 28 22 15 55 75 68 59 68 86 84 89 90 88 82 58 63 72 81 86 82 84 79 71 70 66 66 69 72 79 88 73 72 68 64 70 87 81 61 34 25 26 24 17
10 22 27 24 22 28 24 22 72 74 64 57 58 56 72 88 78 91 94 89 61 64 77 87 83 83 78 72 73 70 70 71 73 74 72 86 72 66 61 62 62 61 63 59 37 34 32 30 28
17 19 22 18 20 24 22 67 70 59 52 53 52 58 69 87 76 77 90 88 72 70 69 89 82 74 71 73 75 76 74 75 73 68 86 87 70 61 59 52 48 49 47 36 37 36 33 28 24
15 14 15 15 18 15 14 73 63 61 61 50 54 72 66 70 81 79 87 86 87 81 69 71 67 74 77 77 79 78 76 71 64 64 63 55 55 55 45 35 32 33 32 40 38 35 31 27 25
15 18 17 15 15 17 26 50 61 58 64 51 47 62 81 89 90 88 86 87 85 75 76 70 71 74 74 78 78 76 68 62 62 54 45 45 48 38 30 38 40 38 39 38 35 33 31 30 29
23 16 20 20 15 64 61 64 55 49 40 47 58 62 78 87 92 96 87 98 93 81 85 79 79 74 77 77 78 70 62 59 50 40 40 40 32 33 36 40 38 38 38 37 34 31 31 30 31
17 18 20 16 14 68 64 61 71 54 40 40 44 68 80 72 88 85 90 90 91 92 92 92 86 80 78 80 73 63 57 51 41 38 36 39 41 38 44 40 39 36 36 36 33 30 31 32 44
14 15 15 14 25 82 65 62 74 71 53 41 55 68 91 70 83 80 88 79 75 87 76 85 83 78 81 78 67 59 51 41 36 36 41 42 46 49 42 41 40 38 39 40 38 35 34 40 48
12 17 17 16 38 66 57 62 61 66 61 60 74 68 63 74 81 75 77 78 79 81 84 80 87 83 79 73 62 52 46 37 43 46 50 58 65 61 53 46 48 48 49 45 49 48 49 52 59
14 20 17 33 44 58 59 60 64 59 58 64 69 77 77 83 83 89 88 87 86 86 83 73 77 78 69 59 51 45 36 41 51 63 67 71 72 67 65 61 61 63 63 61 54 55 58 61 59
13 17 27 42 44 50 58 57 58 60 60 58 70 67 82 67 74 81 89 91 78 71 74 73 76 74 50 50 44 49 61 64 62 69 74 77 77 76 76 79 76 72 73 66 63 67 67 62 59
13 26 40 44 43 50 57 53 52 60 48 47 58 66 77 68 73 73 81 95 89 85 72 71 63 62 51 50 51 57 64 69 74 79 74 76 71 69 68 65 74 74 66 63 64 61 60 57 57
12 33 34 35 34 38 38 40 34 40 64 60 57 71 78 74 80 84 82 77 73 67 62 56 53 49 55 62 60 70 74 77 77 75 74 71 68 69 76 77 73 69 67 64 62 60 58 54 55
16 29 32 31 30 35 30 34 36 62 64 76 60 66 81 84 81 84 93 75 57 58 57 57 52 46 59 69 68 73 73 71 68 68 71 74 77 76 75 77 78 72 63 59 57 54 54 52 50
21 24 30 32 32 30 38 45 44 40 62 73 52 61 73 81 76 74 73 59 51 56 58 57 50 70 67 69 70 71 69 64 57 61 62 69 75 79 80 75 58 48 48 53 54 53 52 49 46
21 21 27 29 27 30 28 39 38 37 38 43 39 53 53 81 73 75 70 43 56 58 58 62 68 74 68 70 69 67 59 55 58 54 52 56 62 59 46 43 41 51 57 57 57 56 50 46 43
23 32 26 26 30 31 31 32 33 35 36 40 40 37 43 38 37 35 38 49 56 55 58 65 73 70 67 69 69 63 58 62 62 55 44 40 46 52 51 52 52 54 55 55 56 53 50 45 43
28 29 25 25 40 32 31 30 34 32 33 37 37 34 33 34 34 29 37 50 55 61 62 68 71 70 70 69 63 64 70 68 60 46 43 53 55 58 60 58 58 55 51 50 49 50 48 47 46
21 22 24 20 17 24 25 30 32 34 47 40 51 36 32 34 38 28 34 47 62 74 73 70 70 75 72 71 70 74 76 70 59 50 55 56 58 56 54 56 55 54 52 45 46 46 48 48 49
22 23 27 17 15 16 21 22 24 42 42 31 36 51 38 52 51 45 41 46 72 92 78 77 79 74 71 64 64 70 69 68 57 57 57 57 58 56 61 58 55 52 47 44 46 47 48 49 48
25 28 22 23 22 11 13 23 28 24 46 44 34 44 38 50 55 57 56 86 95 96 90 89 82 76 70 68 76 73 68 56 57 56 57 57 59 60 54 52 50 47 48 47 48 48 50 52 52
32 24 26 25 30 29 24 50 33 30 26 45 42 43 55 50 52 58 80 92 93 89 84 81 78 75 72 80 74 58 58 57 53 53 57 59 60 56 53 45 42 42 46 49 50 50 48 52 57
31 24 27 28 30 31 32 49 38 28 32 32 38 41 47 51 55 68 76 74 80 80 78 77 62 65 72 67 55 54 47 49 51 56 58 59 51 47 41 39 42 46 48 51 50 51 52 54 57
23 25 30 43 40 47 32 41 43 36 31 34 34 42 49 55 60 70 71 72 71 67 66 68 75 68 47 46 47 46 51 52 50 48 44 43 38 36 41 43 45 46 47 47 47 47 53 56 60
28 32 57 67 74 62 31 39 38 31 41 36 41 45 56 62 62 71 74 71 70 68 68 64 48 47 47 49 53 51 47 45 43 43 43 40 39 40 44 45 46 46 47 46 45 44 44 50 57
32 40 60 62 78 57 43 47 37 30 32 32 36 45 53 56 52 57 55 56 51 48 47 46 48 49 50 54 54 51 46 44 43 43 44 44 44 46 44 40 38 37 37 37 38 40 44 46 67
45 62 40 43 45 50 41 37 34 29 34 45 42 48 55 51 50 49 52 53 50 49 48 45 47 49 53 55 51 47 44 44 43 47 48 58 47 43 41 38 36 37 38 40 43 46 45 57 61
29 37 42 49 38 42 37 31 48 37 35 42 44 54 55 52 47 45 49 54 51 49 49 47 48 54 54 50 48 47 46 43 49 51 57 42 40 37 37 38 39 42 44 47 52 57 61 65 67
28 29 26 31 51 55 66 42 35 38 36 40 47 49 54 53 45 47 48 50 51 50 49 51 52 52 49 48 48 46 44 49 54 42 37 36 35 36 38 40 44 47 49 53 58 63 66 71 73
20 25 40 59 38 50 62 50 18 28 33 34 40 43 49 46 44 46 44 48 52 56 58 50 48 48 48 47 44 48 51 44 37 35 32 34 36 38 41 44 47 49 51 53 57 52 58 69 73

GFSSGP_925_rhum_060.txt.gz
RH
14 15 18 24 27 34 32 27 18 39 62 66 64 75 84 87 81 82 92 82 76 99 96 79 74 74 74 75 84 86 76 72 72 71 66 63 62 53 49 57 65 67 67 38 27 27 26 23 29
15 25 29 28 27 29 26 25 41 70 61 62 61 73 76 91 85 95 96 94 85 96 96 85 72 76 76 79 80 84 89 83 77 71 61 61 52 51 55 48 48 46 32 29 27 24 23 23 31
18 22 26 26 25 23 24 60 65 60 56 63 63 70 78 91 85 91 87 95 94 98 93 84 73 74 73 81 81 88 80 72 69 74 58 50 47 48 37 30 25 24 30 29 26 24 23 26 38
18 17 20 18 19 15 26 47 67 65 55 52 63 81 79 91 89 93 76 75 80 99 99 92 81 77 82 84 82 76 73 64 70 62 47 45 43 31 26 26 27 32 32 29 26 27 26 29 35
16 22 22 18 14 47 69 64 57 59 61 58 52 76 89 98 100 98 82 89 96 97 78 81 68 76 82 78 76 73 63 56 57 46 41 42 32 27 34 33 33 34 31 28 27 29 28 27 30
26 20 22 21 18 66 63 71 63 68 50 52 62 76 89 99 98 99 97 95 88 85 83 84 78 78 80 76 74 64 54 50 43 39 38 31 28 35 33 33 33 32 32 28 30 30 33 42 43
25 24 22 18 17 69 65 64 77 66 57 56 57 87 86 97 100 100 100 100 92 87 90 91 88 77 76 74 64 54 48 40 37 35 31 36 35 35 33 32 33 35 34 32 31 33 37 48 47
21 18 17 16 21 60 67 65 69 60 66 53 74 89 87 88 100 100 100 100 95 97 90 86 76 73 84 71 59 50 40 36 32 34 40 38 37 38 39 40 41 43 41 39 39 41 50 54 52
14 22 24 18 35 62 60 67 60 65 59 62 70 71 75 100 100 100 100 99 93 98 86 71 82 86 79 66 58 44 35 30 38 45 49 54 50 49 48 50 51 52 49 51 53 54 60 59 55
17 22 18 28 53 62 59 61 63 66 62 67 68 85 93 96 94 92 95 99 99 93 77 84 85 85 73 63 48 40 32 45 46 56 61 69 68 69 61 64 64 66 64 65 64 63 66 63 60
15 18 31 44 50 54 58 66 62 61 57 61 64 91 92 87 84 84 85 91 90 74 85 81 73 80 65 45 42 33 42 55 62 66 72 77 77 79 76 80 77 73 75 74 70 67 62 58 56
14 21 37 50 53 57 60 64 65 62 51 47 53 86 87 87 87 82 82 78 75 87 85 76 69 67 45 39 39 48 55 59 69 80 82 80 79 80 75 70 69 66 66 63 62 62 59 57 55
19 41 41 44 43 46 47 42 49 58 73 60 69 78 81 80 88 81 75 83 64 77 78 74 69 54 52 44 61 66 70 74 83 80 77 76 74 74 71 72 70 68 65 62 59 57 55 53 51
27 36 40 36 41 37 36 41 48 59 65 64 69 85 77 77 82 95 98 93 87 84 82 75 69 60 57 57 60 64 76 82 79 73 70 69 68 72 77 77 73 64 57 53 49 49 50 50 47
27 40 34 38 36 30 36 35 45 54 61 71 66 80 74 73 83 81 88 88 73 70 58 56 61 61 63 67 74 80 79 75 72 66 66 68 73 77 77 63 49 48 49 51 50 49 49 38 35
22 30 36 33 28 29 33 43 35 60 63 75 79 77 70 73 73 77 79 78 65 62 57 56 62 68 69 75 74 73 70 65 58 59 61 66 69 70 50 40 46 52 52 52 54 54 44 41 41
26 31 34 38 30 27 31 35 38 66 61 65 83 80 66 65 70 67 75 62 60 51 52 66 73 73 72 72 70 66 61 57 54 53 55 55 43 46 49 50 51 53 54 55 52 48 48 46 44
28 29 28 34 34 36 36 36 40 51 48 53 70 84 68 70 66 64 68 55 58 52 48 64 74 74 72 71 70 64 64 61 58 48 44 52 55 56 58 57 55 54 52 50 47 48 46 47 47
27 28 32 28 27 37 37 31 37 42 50 50 62 73 75 70 57 64 63 56 62 63 65 68 75 74 73 74 71 73 70 64 52 49 56 58 58 59 59 59 57 55 52 45 45 46 49 49 50
35 37 34 24 23 36 29 31 37 46 42 43 44 43 42 49 44 44 50 62 68 73 71 75 76 74 72 68 64 65 73 70 52 60 60 59 57 54 55 55 52 52 45 44 46 47 48 50 51
37 40 29 28 23 25 24 30 31 34 39 42 38 41 44 48 55 57 62 90 90 91 81 82 77 74 72 68 66 70 73 69 63 62 60 60 57 57 56 51 48 44 45 46 49 50 50 53 55
43 30 26 24 26 25 24 41 36 32 45 46 48 51 55 55 55 76 89 99 98 97 89 86 76 75 73 68 72 72 70 62 60 59 58 59 58 56 52 46 44 44 46 49 52 55 55 55 58
38 27 26 27 37 35 34 36 32 32 38 40 44 51 54 54 57 87 96 98 100 95 86 81 80 78 72 71 82 76 61 53 57 59 59 60 60 58 56 51 48 48 51 48 48 48 52 57 58
25 27 44 49 47 49 37 38 37 35 28 32 40 44 54 56 69 82 88 96 96 88 83 82 84 82 74 81 82 67 53 58 57 61 62 63 51 43 52 47 47 47 47 48 47 46 44 45 50
29 42 58 57 66 56 38 44 37 31 31 31 38 48 54 63 83 87 92 94 99 93 86 86 86 81 78 77 71 60 54 56 59 56 47 40 45 46 47 55 49 43 41 39 38 38 40 44 46
40 38 59 49 62 48 40 47 36 33 32 34 42 58 65 74 78 83 85 87 87 83 81 80 78 57 56 54 55 55 49 47 45 44 46 46 46 53 67 45 38 37 37 38 40 44 46 48 55
36 47 52 56 51 53 43 35 36 31 34 36 49 62 71 72 80 79 76 73 71 69 71 72 56 58 54 53 50 46 44 43 45 50 50 60 66 51 41 40 39 37 38 41 43 47 51 56 64
29 38 52 63 40 40 39 38 49 37 40 50 52 65 68 63 68 68 68 64 58 50 51 51 51 53 54 53 52 48 45 45 47 51 53 49 44 39 38 37 37 40 43 44 48 52 58 60 59
34 34 36 42 54 54 63 45 35 40 42 50 54 58 62 58 59 62 61 59 53 49 49 49 51 55 54 52 50 47 44 50 59 54 48 41 37 36 36 37 40 43 46 48 52 55 56 53 50
32 34 39 61 37 56 63 47 26 37 38 47 48 53 58 50 51 54 58 60 60 56 54 56 57 58 53 50 46 47 57 59 57 40 37 35 36 37 38 40 42 45 48 52 58 57 58 56 62

GFSSGP_925_rhum_063.txt.gz
RH
19 17 18 24 27 37 34 28 22 22 55 68 68 72 78 98 75 72 95 80 86 100 99 83 76 68 56 54 66 74 77 72 74 63 50 44 37 33 31 26 19 30 46 60 70 56 41 44 57
18 29 27 24 28 28 25 22 51 58 61 72 67 71 84 92 84 97 95 86 99 100 97 88 77 69 57 64 66 78 70 74 64 55 50 38 36 34 23 20 24 38 48 42 46 40 45 45 56
20 25 29 30 28 24 22 35 67 64 59 65 70 77 81 94 90 95 96 94 95 100 94 95 80 68 60 75 70 84 78 70 60 53 39 36 37 25 20 22 28 29 26 25 32 41 44 46 51
19 18 21 21 20 17 41 62 64 64 53 57 71 87 81 98 91 94 98 97 98 100 99 90 77 78 76 72 81 72 72 60 60 47 36 37 29 26 24 26 29 26 25 28 30 36 39 47 48
17 24 26 19 15 34 70 69 60 61 64 62 64 90 91 98 100 95 99 100 99 98 96 86 78 79 82 76 74 74 50 57 57 44 37 29 27 31 29 30 29 27 29 30 31 38 49 48 49
29 22 24 23 18 67 64 68 70 63 63 60 71 86 91 100 99 98 96 98 95 87 90 86 78 76 76 69 74 48 43 50 42 41 35 28 36 35 33 33 32 30 31 33 34 45 47 55 52
27 30 26 19 18 39 65 63 64 61 56 64 65 94 88 98 100 97 93 100 95 94 87 91 85 89 80 74 58 42 47 42 36 35 29 36 39 37 37 37 35 35 36 37 38 49 54 54 58
26 23 19 19 18 26 65 66 68 68 56 60 68 91 93 98 100 98 100 100 99 94 92 99 94 86 80 64 46 44 39 36 40 33 36 43 42 42 44 45 45 47 51 47 48 56 56 54 58
18 26 27 21 28 37 63 67 70 64 61 66 78 74 94 100 100 100 100 99 96 96 100 88 79 74 77 59 55 46 42 46 40 41 43 51 52 55 55 55 53 54 54 56 57 62 60 58 56
20 26 20 18 42 54 62 66 66 62 60 70 91 98 100 100 100 99 98 98 100 100 90 83 86 82 75 64 54 45 41 39 46 51 53 58 62 65 63 64 65 63 63 64 64 66 62 59 57
19 22 18 44 50 54 60 65 66 64 62 63 91 95 93 95 97 98 97 100 94 99 89 81 76 69 79 60 56 44 45 47 54 62 71 74 78 75 77 73 71 71 72 70 67 64 59 56 55
16 16 31 43 55 56 60 68 65 60 57 53 86 86 85 87 90 93 96 99 97 86 72 76 69 76 76 59 54 46 52 53 63 70 76 79 77 80 74 71 69 70 67 64 61 59 56 54 52
17 41 46 51 56 53 54 51 50 61 83 72 84 82 86 86 85 83 85 85 93 83 78 78 71 82 68 62 54 51 59 66 76 81 80 78 78 74 72 68 65 64 63 61 58 56 52 49 46
33 42 38 43 45 47 41 47 47 67 71 86 89 92 92 81 80 82 83 83 78 80 84 76 77 79 57 53 54 63 66 75 82 80 80 77 73 72 72 70 67 64 59 53 48 47 44 36 33
35 41 42 41 39 33 39 45 51 68 65 88 85 81 88 74 78 68 65 80 84 82 75 79 74 65 58 57 66 70 76 82 82 78 76 76 78 77 76 71 60 52 50 50 51 50 38 30 27
28 36 46 35 31 31 31 43 49 61 72 84 87 79 77 71 71 67 66 64 66 69 72 75 81 66 68 62 63 71 80 84 80 73 75 80 79 75 61 51 52 56 53 53 51 44 35 35 35
29 35 39 40 31 30 32 39 54 58 71 80 89 82 76 81 78 81 82 63 74 78 74 74 77 67 74 68 76 84 81 75 68 67 74 76 68 49 44 47 52 52 50 48 46 40 40 42 43
34 32 31 36 29 35 34 34 63 64 68 77 88 84 76 77 74 73 78 76 76 72 65 62 66 70 71 81 81 76 69 62 62 62 67 52 50 53 51 50 51 51 50 50 41 41 45 47 48
32 35 35 30 28 38 42 37 44 66 61 80 88 85 74 72 60 67 78 79 67 68 65 69 69 77 80 78 74 70 65 63 58 52 50 52 56 57 53 52 52 53 53 43 42 45 48 51 52
34 39 40 35 29 34 40 38 33 57 57 66 78 86 75 67 66 65 70 71 64 65 64 77 81 80 78 74 71 68 65 63 52 53 57 56 54 57 54 53 52 51 42 42 45 48 50 53 54
35 38 41 39 26 28 30 34 39 53 48 54 64 68 70 68 66 64 70 66 64 65 63 69 78 81 79 77 76 73 73 67 58 64 61 59 56 53 54 53 48 47 46 48 51 53 54 55 57
40 32 37 34 26 36 24 41 39 48 50 50 54 54 56 59 54 53 58 80 74 67 67 68 80 83 82 80 78 72 73 72 61 60 60 60 59 56 57 52 49 48 52 53 54 53 52 53 55
36 31 30 29 35 35 35 36 33 36 52 48 47 50 48 49 49 52 59 78 87 85 79 76 86 89 82 80 79 73 70 68 60 63 62 62 62 60 56 53 52 53 53 49 49 50 50 52 59
28 32 40 47 47 46 36 39 40 42 35 40 40 43 49 62 68 69 64 84 93 89 89 86 93 86 81 81 76 75 70 64 61 64 65 67 66 63 61 54 50 50 57 48 44 40 40 42 46
32 40 52 54 62 50 40 44 42 30 29 33 38 42 51 56 86 95 95 96 98 100 100 95 85 83 84 82 75 83 85 63 58 62 67 64 54 54 52 49 64 74 41 38 37 37 41 44 47
42 38 57 44 55 46 41 49 38 30 34 34 35 46 56 61 79 91 94 97 98 100 100 98 95 89 88 82 84 88 85 62 61 64 60 47 54 54 52 70 63 39 38 38 39 40 44 50 54
40 46 43 56 56 61 48 37 31 36 42 44 68 69 73 73 83 89 93 96 99 100 96 94 91 85 79 81 81 76 62 60 59 50 54 68 66 74 66 45 40 40 40 40 42 44 50 56 58
31 42 54 66 47 43 41 40 40 34 37 50 55 75 84 84 87 87 92 92 92 89 88 87 82 71 60 62 60 55 51 48 48 57 68 69 70 63 42 40 41 41 41 43 46 48 53 55 54
41 42 40 49 54 54 61 47 37 38 38 44 55 66 77 84 88 86 82 81 80 78 78 82 70 57 53 51 49 46 47 49 60 64 64 68 61 43 40 40 40 40 43 47 48 52 56 57 57
31 36 42 60 42 61 63 51 27 38 38 43 45 58 72 71 78 78 76 73 69 69 72 73 65 59 55 53 51 49 53 63 63 80 59 44 41 40 39 39 39 41 45 48 47 52 59 61 59

GFSSGP_925_rhum_069.txt.gz
RH
18 16 19 19 18 23 20 19 23 20 23 66 68 64 58 69 65 67 97 88 99 99 96 91 68 60 53 46 46 49 56 63 61 55 49 46 50 56 60 50 43 64 75 79 62 51 65 71 71
19 28 24 20 18 18 15 18 29 49 53 71 69 74 77 88 80 92 86 93 100 99 95 97 85 65 60 57 58 62 64 60 56 49 43 66 62 66 71 60 53 69 71 57 57 56 50 69 74
24 22 22 20 22 16 14 14 36 46 56 67 72 73 78 85 82 87 90 97 99 100 97 96 90 90 88 90 90 94 95 57 59 40 51 72 69 78 69 60 62 62 52 56 54 49 52 68 74
20 16 17 20 19 16 14 20 62 63 56 60 71 72 76 95 91 87 92 93 98 99 97 88 82 87 90 91 94 94 74 65 65 50 63 71 83 84 69 70 59 55 59 56 57 53 53 68 74
18 18 21 20 17 13 24 52 60 62 63 63 64 77 85 96 97 89 97 99 99 96 97 79 71 83 88 80 62 50 52 56 49 52 70 74 75 74 69 62 52 49 47 46 52 58 64 68 67
21 18 19 19 18 15 44 56 60 60 59 64 72 78 87 99 100 100 97 87 88 99 92 80 67 70 72 64 51 49 54 41 44 38 47 45 51 54 52 47 49 47 46 48 48 47 48 52 42
22 22 22 20 19 16 35 60 57 56 56 67 67 81 91 97 100 100 93 93 98 99 94 86 77 75 68 59 61 52 41 51 44 24 34 41 41 41 43 44 48 53 55 53 50 50 51 48 48
21 20 22 20 19 18 36 59 65 59 62 61 65 70 80 97 100 98 95 96 100 100 100 100 95 86 69 63 71 72 62 50 23 35 40 42 40 39 40 45 52 61 61 59 57 55 53 53 55
18 22 23 21 19 18 57 60 64 60 58 76 81 74 81 100 100 100 100 100 100 100 100 100 100 92 87 67 60 62 54 33 36 42 45 45 46 45 44 49 55 64 63 61 59 57 56 56 57
19 23 20 17 16 35 56 62 57 58 62 78 79 83 98 100 100 99 99 100 100 100 100 95 89 89 81 69 50 52 43 36 44 44 46 47 48 48 57 59 61 62 67 63 60 58 57 56 56
20 21 19 15 19 48 52 58 58 56 56 62 73 94 96 99 99 96 100 100 100 100 100 100 89 68 55 61 67 60 54 46 48 50 54 54 59 62 62 67 69 67 63 59 56 55 54 52 50
22 18 18 23 50 49 46 55 59 55 60 66 65 75 84 91 97 99 99 100 98 100 98 83 79 70 61 78 60 58 57 53 57 56 60 62 66 72 74 74 73 67 62 60 57 54 52 50 46
21 26 42 42 48 48 50 53 56 80 81 69 74 83 86 88 96 99 99 97 92 95 97 97 92 79 92 68 57 53 56 50 56 67 72 72 74 78 79 76 68 64 61 59 56 52 44 35 31
32 40 46 50 48 47 40 49 47 73 75 82 84 82 80 87 94 97 94 100 89 84 78 80 66 72 86 76 62 50 55 65 72 76 79 78 75 75 76 70 66 62 59 53 44 35 29 25 24
37 39 37 43 43 39 39 44 57 73 76 79 83 86 88 88 94 91 96 96 92 88 72 78 86 87 95 79 56 54 56 66 73 77 82 81 80 74 70 65 62 57 49 42 37 31 27 26 27
34 34 37 33 38 36 35 41 63 74 75 71 76 78 77 78 88 86 85 86 90 87 76 75 78 78 87 74 55 56 65 78 91 89 86 85 81 74 68 65 58 50 46 43 37 30 27 28 41
29 32 36 30 32 32 34 43 53 71 70 61 69 67 79 78 73 75 76 79 78 81 83 91 85 85 90 70 55 61 75 87 91 90 87 83 77 73 70 63 51 48 47 44 32 30 29 42 44
33 33 33 32 27 32 31 39 54 68 72 61 68 71 77 76 69 68 71 74 74 80 86 83 85 90 82 70 70 86 94 97 94 90 93 83 78 75 63 51 48 49 46 42 33 32 34 42 46
29 32 34 31 26 29 32 37 54 63 73 74 70 68 67 79 62 67 71 75 77 80 81 74 77 85 77 75 87 100 100 100 96 89 84 80 73 61 50 47 49 50 49 38 36 37 41 51 49
34 34 32 30 28 33 34 32 40 56 65 67 65 71 64 62 69 70 76 79 76 71 76 70 76 81 81 77 79 91 96 97 88 87 81 72 57 48 48 48 50 52 46 37 39 44 56 61 54
35 36 36 32 32 32 35 30 37 45 54 61 62 61 64 64 62 66 72 80 85 83 80 81 86 84 85 83 81 88 90 87 85 77 64 57 53 54 54 53 53 50 39 40 44 50 56 58 64
39 33 33 37 33 30 28 30 28 35 49 57 60 64 65 68 66 59 65 72 80 80 84 86 85 81 85 84 85 84 86 85 81 74 62 60 62 60 58 57 52 45 43 46 50 55 57 54 56
34 34 35 34 34 34 35 30 24 39 41 43 49 55 58 58 62 62 61 64 76 82 78 82 82 78 82 82 86 84 84 80 69 64 63 65 69 67 62 58 50 47 48 51 54 52 50 47 52
34 36 36 40 41 43 37 33 28 26 31 35 36 44 51 56 58 58 60 64 73 82 84 86 88 93 89 86 89 89 80 80 76 66 70 71 68 65 62 58 52 52 52 57 53 44 37 36 44
33 36 41 45 47 42 40 41 31 30 27 28 30 41 44 51 59 60 59 66 74 88 92 89 95 98 95 92 91 98 86 84 81 69 73 74 71 67 62 57 57 55 79 81 53 36 35 35 44
36 35 47 39 44 37 42 41 25 29 28 33 38 38 42 47 52 55 55 62 75 85 90 90 89 92 98 97 100 99 89 86 88 75 69 65 68 69 62 58 55 62 83 54 39 38 39 38 44
41 40 37 53 56 57 43 33 22 27 31 35 37 50 42 45 48 49 54 64 72 83 90 80 90 92 100 100 100 99 92 89 84 75 69 73 72 67 59 58 70 90 53 42 39 40 43 44 49
35 39 46 50 50 47 36 36 28 24 24 33 37 42 50 54 52 51 56 67 75 80 83 87 91 92 99 100 100 96 93 95 90 81 80 78 70 62 63 76 92 74 44 40 41 44 47 49 50
44 43 44 41 46 46 47 34 31 27 27 32 34 40 45 55 57 59 66 70 76 82 83 92 96 100 100 100 99 98 98 98 98 91 82 69 64 72 80 87 65 52 41 41 44 47 50 52 64
34 37 41 54 46 54 51 42 26 29 30 32 35 39 41 54 56 64 72 81 83 85 89 98 100 100 99 99 100 99 97 93 93 86 69 67 67 90 76 56 45 42 44 46 48 50 55 68 76

GFSSGP_925_rhum_072.txt.gz
RH
34 23 18 15 14 10 12 11 11 15 24 21 28 44 41 45 39 47 73 71 76 75 70 88 97 100 84 77 76 70 66 68 73 70 56 43 33 34 41 48 57 63 52 57 62 78 84 75 70
22 22 18 13 13 13 10 10 14 22 27 47 44 44 44 44 57 69 78 78 78 73 66 75 83 89 84 79 68 65 66 62 62 55 43 35 30 40 46 58 58 56 60 70 74 93 93 70 65
22 20 14 13 12 12 11 10 14 28 32 48 35 43 49 54 61 66 75 89 84 74 65 74 65 69 68 66 70 73 64 59 60 50 43 44 45 49 48 60 56 63 89 85 78 91 75 74 58
14 12 12 12 13 9 10 12 27 41 38 44 52 56 58 84 74 73 78 91 92 78 71 81 65 64 66 73 75 66 61 62 69 59 55 55 52 51 55 62 62 67 75 56 71 68 73 72 53
12 10 12 12 10 10 10 18 33 39 42 45 48 53 63 80 88 82 84 98 96 85 79 89 68 65 72 75 74 68 61 66 62 67 68 64 59 56 57 57 57 58 61 53 54 68 76 70 44
12 11 12 11 11 11 13 28 38 42 42 44 46 61 77 94 94 81 94 97 93 87 88 88 74 76 86 90 85 62 52 47 58 64 65 62 54 55 52 49 50 49 58 60 61 71 75 51 44
13 13 12 12 14 17 21 35 41 38 38 43 46 50 68 86 98 97 96 84 84 85 92 91 82 86 92 90 86 68 51 54 42 43 48 46 53 47 42 44 48 50 49 49 57 62 51 43 50
12 11 13 12 16 19 24 42 45 40 40 45 46 45 54 88 100 100 99 98 100 100 100 95 94 95 89 74 78 76 67 62 43 38 40 43 44 42 46 50 50 52 50 51 51 49 46 53 55
12 14 12 13 18 14 27 36 50 42 40 47 51 51 58 100 100 100 100 100 99 100 100 100 100 99 84 73 78 80 68 48 49 43 37 48 62 59 58 61 59 57 58 54 53 54 54 56 56
14 14 12 11 11 13 26 43 41 44 49 49 55 58 76 100 100 100 99 99 100 100 100 100 90 82 83 82 72 84 66 67 64 61 61 58 61 57 65 72 61 61 60 57 57 57 56 54 51
15 15 14 12 14 15 26 34 38 36 32 34 46 59 91 90 96 97 100 100 100 100 99 100 97 87 84 73 75 72 78 72 71 65 56 69 69 73 72 78 74 71 64 59 57 55 52 55 52
18 15 16 14 26 30 29 31 34 35 41 44 44 56 87 87 87 98 99 100 100 100 100 98 97 93 77 74 58 49 79 79 75 72 72 74 69 77 79 74 71 69 61 63 60 61 62 58 53
20 18 26 24 31 32 30 33 36 38 54 49 46 66 80 90 97 100 100 100 100 100 98 96 90 85 79 65 77 72 54 54 70 79 79 75 77 81 81 81 73 65 66 62 59 57 51 47 42
24 28 31 32 32 30 28 32 32 44 62 72 78 74 79 86 95 98 98 99 96 90 96 81 75 68 56 56 64 70 65 64 77 82 85 94 89 91 86 82 72 66 59 57 53 45 38 36 36
27 30 30 29 28 26 26 32 33 44 52 55 67 80 83 88 96 88 85 95 98 100 98 96 94 86 81 81 78 72 72 70 73 87 100 78 78 90 92 76 66 60 60 57 48 43 40 34 32
26 26 24 25 25 26 29 25 35 43 48 45 55 64 85 90 90 97 82 80 90 91 93 88 77 84 82 83 73 69 71 81 90 92 99 97 93 88 77 70 64 62 54 47 44 38 36 36 34
22 21 21 23 22 24 27 23 32 38 37 36 46 49 59 78 87 83 78 68 67 66 64 65 72 84 86 86 69 67 77 91 98 100 98 100 94 85 72 69 68 61 52 50 42 42 40 40 36
21 21 22 22 20 22 22 22 30 41 37 36 37 41 51 53 61 66 66 67 63 57 57 62 77 81 92 93 88 82 86 100 100 100 98 100 87 83 75 70 67 54 52 49 45 46 45 43 42
19 21 22 18 19 21 20 20 23 40 44 40 42 41 49 45 47 54 59 59 59 61 61 70 79 89 92 86 71 74 92 100 99 99 100 98 80 78 72 64 63 57 52 48 54 53 53 50 51
21 23 23 20 21 25 20 20 18 34 42 39 39 38 37 52 46 47 52 59 61 62 66 70 77 88 87 68 63 73 84 99 100 90 98 91 84 80 70 62 60 57 55 54 56 54 52 52 54
23 25 25 23 23 23 24 21 22 24 34 38 38 35 36 36 49 47 49 53 57 57 63 65 68 72 79 70 64 76 84 93 93 90 93 87 73 66 64 64 59 62 52 53 57 58 58 51 56
27 21 23 24 27 23 23 21 17 20 28 36 39 40 38 38 34 42 45 48 55 56 55 58 59 67 76 79 72 76 71 75 80 85 85 78 61 67 65 65 65 61 52 54 57 62 61 60 49
25 23 25 26 26 25 23 19 16 20 21 20 29 36 38 38 37 34 40 44 48 53 59 65 66 73 79 85 81 79 73 77 90 87 84 80 74 70 65 67 66 61 55 60 67 68 66 56 48
25 28 28 29 26 30 23 23 16 16 17 17 18 22 32 36 36 38 37 40 45 54 66 73 73 77 80 87 88 84 79 90 92 87 92 76 70 72 70 64 66 65 65 65 71 62 63 52 44
27 29 34 39 35 31 28 27 19 14 16 19 18 19 22 28 35 36 37 42 43 54 69 75 74 71 76 86 88 91 90 92 88 88 82 68 67 69 70 67 69 67 65 61 78 80 56 50 47
25 26 31 36 35 28 29 25 18 17 18 17 22 24 24 25 28 34 35 40 44 53 67 70 70 68 74 85 93 96 90 88 87 87 77 69 67 66 67 72 69 67 61 86 91 63 53 52 53
31 31 25 34 42 36 22 20 14 14 15 19 21 25 29 26 27 30 34 39 46 55 63 65 62 64 73 86 92 93 94 96 93 90 84 75 69 67 75 73 79 59 75 90 59 56 54 56 56
26 23 34 32 40 37 23 23 19 16 16 19 16 16 27 30 29 30 31 37 44 51 57 64 58 59 70 82 90 96 96 95 98 91 82 77 75 74 78 86 60 70 93 62 59 54 53 55 55
33 31 28 27 30 35 34 24 15 15 15 18 17 21 22 30 32 32 32 36 44 50 56 61 59 56 65 81 89 95 94 100 100 94 89 84 79 82 75 62 86 99 69 57 58 54 52 54 55
22 24 27 32 32 34 38 30 15 16 18 19 19 19 22 27 32 33 36 40 45 52 57 57 59 62 67 77 87 98 99 100 100 98 90 86 89 76 76 94 94 65 52 54 54 51 47 52 54

GFSSGP_925_rhum_075.txt.gz
RH
23 27 13 10 14 12 11 9 7 8 10 11 13 17 25 47 67 71 48 49 57 66 70 90 94 92 91 80 78 78 77 91 72 62 55 52 48 46 42 49 65 82 94 95 96 95 68 50 38
20 13 12 11 14 12 10 8 9 8 15 20 17 17 21 76 76 78 62 63 65 64 69 82 92 92 95 89 85 88 93 93 65 57 48 45 44 37 40 45 60 84 96 96 96 89 61 50 42
20 13 13 13 12 12 10 10 8 12 21 28 26 22 24 48 70 54 63 76 70 63 64 79 93 93 96 95 93 91 97 88 61 52 50 44 39 38 48 55 72 81 92 95 95 94 64 53 42
12 10 10 11 10 9 8 8 12 18 19 20 26 24 26 60 61 65 67 76 70 61 60 87 97 96 96 92 90 93 95 70 58 52 51 45 48 52 57 65 80 89 91 94 97 77 64 47 38
10 9 11 11 9 7 9 19 20 24 28 28 34 33 37 60 58 68 72 74 73 61 71 96 99 98 93 90 93 94 70 58 49 51 48 53 55 59 57 64 80 73 93 91 79 77 63 40 41
10 10 12 12 10 9 20 38 24 28 35 33 38 54 50 69 40 61 76 78 77 70 79 91 91 89 90 92 94 73 61 53 52 53 51 47 47 56 55 59 59 52 57 69 73 74 58 42 46
11 11 12 10 9 23 18 26 34 29 25 44 34 59 67 74 50 68 77 79 76 82 90 91 82 79 95 95 81 70 59 57 56 43 40 39 46 47 51 50 56 54 57 63 74 71 44 48 49
8 10 10 9 11 28 18 24 30 32 30 31 35 40 65 61 86 83 88 83 97 88 95 88 81 80 84 75 71 93 86 83 74 57 48 38 44 44 48 49 48 51 61 68 68 48 44 50 51
8 12 12 10 11 30 14 24 32 32 29 29 34 39 56 77 86 95 100 100 100 100 100 97 95 93 81 72 81 87 87 84 64 56 48 43 43 48 64 55 49 51 50 51 48 46 50 54 54
11 13 11 9 9 10 12 21 26 28 28 29 38 43 76 84 88 98 99 99 100 100 100 99 98 78 72 87 82 81 76 74 70 58 53 49 50 62 67 58 59 54 52 53 52 53 54 52 51
11 12 11 10 12 13 14 19 24 25 23 29 30 39 59 75 90 97 100 100 100 100 100 99 86 80 77 84 69 71 69 66 62 56 52 54 66 63 71 72 72 61 60 60 58 53 51 54 51
13 10 11 12 13 19 19 19 21 22 28 32 30 35 59 72 79 98 99 100 100 100 100 100 91 96 98 97 85 85 79 75 70 64 64 68 68 66 70 65 66 65 58 58 58 60 64 59 51
14 11 12 16 17 21 20 20 23 22 35 46 38 54 77 74 97 100 100 100 100 100 100 100 99 97 78 68 50 55 53 55 52 72 70 68 67 68 65 65 64 59 62 62 60 62 54 47 40
14 15 16 18 19 21 22 20 21 34 40 49 56 60 72 90 97 100 100 100 100 100 100 98 99 87 81 77 62 52 59 77 76 74 76 75 74 75 79 75 67 66 62 58 56 52 41 34 37
18 20 18 18 17 18 19 32 62 29 31 43 54 64 74 87 92 93 98 99 95 94 95 87 95 97 92 83 64 56 67 73 68 57 82 88 82 92 84 76 70 61 58 58 52 41 38 34 33
21 19 24 54 24 18 18 58 59 30 29 35 46 60 81 86 86 92 92 89 97 99 96 87 82 81 77 75 64 63 63 69 69 81 86 98 99 94 84 72 62 61 62 51 43 39 37 37 35
18 24 27 22 14 16 19 21 26 26 27 33 35 41 54 94 94 97 93 95 93 97 99 94 81 74 86 75 71 62 65 67 74 79 85 94 90 86 69 64 64 65 54 47 42 40 40 41 37
21 27 16 15 23 16 16 16 17 25 25 26 32 39 39 45 77 69 70 71 70 71 75 82 87 80 74 80 67 63 64 80 90 91 91 92 81 82 69 65 69 59 50 47 43 46 44 42 44
15 16 17 15 15 17 16 16 15 25 28 32 29 39 42 42 52 58 60 57 49 56 58 57 63 72 80 86 68 61 59 87 94 92 91 92 81 80 72 65 70 54 49 46 55 53 54 49 50
17 18 18 16 14 18 17 17 15 20 24 29 33 30 35 36 42 50 57 57 46 51 49 53 58 75 77 62 56 51 56 83 88 82 91 92 88 81 73 64 63 54 50 55 55 52 50 50 53
19 20 21 21 17 17 17 18 15 16 22 25 29 27 31 32 39 40 45 48 50 50 51 53 61 71 75 54 48 51 59 73 88 84 87 92 86 78 70 64 59 56 54 55 58 57 56 50 52
23 17 19 20 21 34 17 26 24 14 20 24 28 28 27 31 32 36 40 47 50 50 53 55 56 66 72 72 51 52 70 71 74 77 86 92 88 83 71 64 58 60 54 53 58 59 60 62 51
21 19 20 20 22 20 17 15 16 12 15 17 22 27 26 27 30 34 36 39 45 48 50 54 54 51 55 68 70 55 56 56 67 76 85 87 81 77 65 62 62 64 55 56 56 65 68 60 59
18 22 22 22 23 31 19 18 18 13 11 14 13 20 24 25 26 26 32 34 37 44 51 53 51 49 52 73 73 65 62 58 73 86 89 92 91 77 65 61 65 64 60 63 70 70 66 62 55
21 25 35 38 32 34 23 20 14 16 11 13 13 14 17 22 26 26 24 30 33 37 46 51 53 52 54 69 77 76 70 67 81 85 88 91 82 68 66 64 64 66 65 67 62 67 75 66 54
22 22 32 46 39 29 24 21 15 12 12 11 12 13 14 17 22 26 27 27 29 35 44 52 54 58 56 63 74 78 77 79 83 84 83 88 79 70 68 70 66 68 68 63 72 80 66 57 54
20 25 18 29 25 31 22 16 13 11 11 11 12 15 17 20 18 20 24 28 30 34 39 50 54 55 56 60 70 78 84 85 83 78 85 85 76 68 67 70 70 71 82 76 84 71 61 54 54
21 20 29 26 37 48 22 19 16 14 12 14 13 13 19 21 20 20 20 25 30 35 39 53 55 51 52 57 70 83 85 85 84 86 91 85 77 73 68 74 75 87 75 90 94 72 55 54 55
23 25 23 21 29 38 35 21 18 13 12 13 13 13 14 17 21 22 22 24 28 35 41 51 53 46 46 55 68 80 89 90 93 96 98 96 89 72 76 78 81 74 79 94 70 56 52 51 52
15 21 21 30 28 26 28 27 14 13 13 14 13 13 13 15 18 21 23 25 27 34 39 46 52 47 45 54 67 90 94 95 100 100 98 91 87 86 86 84 86 100 88 67 60 56 51 49 48

GFSSGP_925_rhum_078.txt.gz
RH
18 17 28 16 16 14 16 11 8 8 8 9 13 12 14 32 61 69 57 83 86 80 94 88 88 87 78 71 70 68 72 66 60 56 57 55 46 48 58 69 81 82 90 94 94 89 45 34 36
29 24 13 12 17 19 12 10 11 9 20 21 15 14 15 48 67 77 63 77 89 78 94 95 88 89 94 83 79 86 88 66 60 58 54 46 44 54 69 80 82 84 88 94 94 80 35 34 36
16 16 14 17 18 16 13 10 9 8 19 21 16 14 16 77 76 72 73 58 86 75 84 98 86 93 94 94 89 89 91 67 62 56 47 44 48 64 69 81 84 87 88 96 92 41 35 35 41
15 11 12 16 11 8 8 11 14 16 37 40 40 31 42 58 66 39 31 55 73 69 79 94 93 92 92 91 89 92 78 65 59 51 47 51 55 62 69 79 86 86 88 96 60 43 37 37 45
12 10 13 14 12 10 11 14 16 17 50 54 66 75 44 59 60 68 66 66 69 65 78 87 92 90 92 89 86 84 73 64 56 52 51 56 57 66 84 82 83 86 85 80 63 46 38 40 44
13 10 15 15 13 17 31 34 27 32 69 72 69 77 42 50 51 53 76 72 72 74 79 84 91 97 96 91 89 86 70 62 59 54 50 51 56 63 70 65 75 84 83 73 65 45 40 44 45
12 12 14 11 10 18 22 34 26 41 71 78 64 56 54 44 58 83 88 82 96 97 95 95 93 94 98 93 95 84 72 66 56 48 45 53 57 61 61 52 67 80 70 71 66 43 42 46 46
9 9 12 10 11 20 23 21 21 26 39 54 68 70 63 50 78 92 100 98 95 94 78 100 100 100 99 100 96 85 80 70 54 50 49 53 55 51 55 54 55 59 66 71 63 41 46 47 49
7 12 14 15 11 13 16 17 14 22 26 36 50 70 57 70 93 96 89 98 99 92 74 72 90 100 93 92 86 85 76 68 63 61 57 57 54 54 51 55 56 57 64 64 47 43 49 50 51
11 14 16 11 8 11 11 11 13 21 38 52 76 60 69 72 91 93 98 99 100 100 100 99 94 93 83 83 77 78 77 73 66 60 56 61 61 55 49 50 49 50 52 49 46 50 52 51 49
10 13 10 10 10 10 13 23 23 19 47 52 59 37 69 71 92 98 99 99 100 100 100 100 95 81 88 90 84 84 80 77 64 52 59 68 66 66 52 58 52 53 52 52 54 52 58 58 54
13 10 9 10 10 13 14 29 20 19 38 35 36 46 57 69 93 98 99 100 100 100 99 98 96 88 80 73 60 60 60 62 50 55 54 62 66 60 66 65 58 59 58 56 56 60 60 58 51
12 12 10 9 12 12 15 16 19 58 48 41 41 59 78 91 97 100 100 100 100 100 100 100 96 95 79 83 79 74 66 45 69 66 61 67 62 56 65 68 64 60 58 60 60 63 58 46 39
12 12 14 12 15 17 18 26 28 68 56 44 54 66 84 92 97 99 100 100 100 100 100 100 100 100 92 88 80 74 69 64 67 69 63 65 69 68 69 66 64 61 62 62 61 58 49 39 40
14 17 16 28 29 30 25 27 45 39 31 39 50 58 71 85 88 97 99 100 100 100 100 100 93 89 84 82 70 61 56 57 54 56 62 73 72 72 70 69 65 62 63 61 56 47 37 36 34
17 16 30 39 32 23 20 36 45 39 38 39 44 57 74 86 89 98 99 100 100 100 98 94 90 84 80 70 68 68 74 52 51 47 60 63 69 78 79 72 68 66 60 56 51 40 38 36 36
16 26 30 22 27 26 17 34 48 40 40 36 37 51 79 95 92 91 93 97 99 100 99 90 79 76 78 77 73 64 48 63 66 58 56 65 70 82 78 75 69 61 59 52 44 40 38 38 36
26 35 23 22 21 19 18 15 46 51 22 36 40 58 71 80 90 91 93 92 89 91 91 87 85 84 77 69 56 64 70 69 66 61 65 69 81 86 74 71 63 62 56 48 43 42 42 42 42
15 17 16 15 15 18 18 13 15 22 22 30 38 38 48 60 73 81 84 81 91 87 89 80 80 74 76 89 86 74 67 69 57 50 66 74 87 84 74 68 66 61 53 48 45 46 47 48 49
15 16 17 15 13 17 16 15 15 21 22 30 37 39 43 56 56 66 65 70 79 85 86 85 84 78 84 87 75 65 64 68 61 70 74 75 84 83 75 69 70 63 52 48 50 54 54 52 54
17 19 20 20 16 17 18 18 16 18 20 29 28 37 38 45 56 55 55 62 64 72 73 75 82 78 81 74 70 56 59 68 79 77 81 86 80 76 77 70 68 60 53 52 56 54 53 55 55
22 15 17 18 20 25 29 33 19 18 23 23 31 29 35 38 44 50 53 57 52 56 60 57 56 70 77 74 58 52 56 76 82 83 87 84 90 83 76 72 64 58 56 56 58 59 58 60 58
20 16 21 20 22 22 27 30 15 17 22 20 26 31 32 33 39 43 46 52 52 53 53 53 52 61 70 71 64 48 59 65 71 78 85 86 87 85 81 76 65 59 58 55 59 59 62 63 61
15 19 22 21 24 34 22 23 27 26 19 14 21 26 28 32 33 36 39 43 47 51 55 55 56 63 66 70 63 58 63 64 73 81 89 88 90 87 85 72 65 62 60 57 59 63 65 61 60
18 24 37 52 46 40 23 26 22 23 16 12 13 19 27 28 33 38 36 40 45 49 53 57 58 56 59 69 71 66 63 58 67 82 89 88 91 90 80 68 64 63 64 62 64 64 65 65 67
22 24 38 54 86 54 40 29 15 14 12 12 11 12 18 24 29 31 37 36 38 44 52 54 55 56 51 72 74 66 70 65 72 81 89 87 90 88 78 68 64 66 67 68 68 65 70 68 59
23 28 21 31 31 52 39 35 19 12 11 10 11 12 16 18 23 27 27 34 36 37 47 54 54 54 51 59 77 75 69 77 76 87 86 86 90 85 75 70 68 71 69 70 64 79 65 57 67
19 19 32 27 47 46 24 22 44 25 15 13 13 15 19 22 22 21 26 30 33 36 39 48 52 51 53 54 63 77 74 79 82 86 83 86 88 85 76 75 76 74 74 71 84 88 83 74 68
20 23 29 25 28 44 51 29 34 24 18 14 13 15 15 15 23 23 23 22 31 33 37 48 51 53 53 55 61 70 80 84 81 86 85 88 88 87 86 88 83 89 84 83 86 94 76 65 56
16 22 24 37 31 36 51 39 16 16 15 14 13 13 13 16 16 20 23 23 24 34 38 43 51 54 53 52 57 75 81 84 86 93 92 93 90 90 87 87 94 91 85 85 92 74 75 70 58

GFSSGP_925_rhum_084.txt.gz
RH
22 22 27 29 28 35 36 26 21 33 44 35 34 31 41 78 71 62 66 79 94 86 94 85 91 52 50 54 54 53 53 49 39 38 37 45 57 76 80 83 80 77 68 76 81 82 84 86 80
21 33 32 34 30 35 33 22 54 51 47 45 44 42 55 70 68 70 64 67 98 90 80 61 71 86 69 60 55 60 58 47 44 41 40 50 71 79 81 85 68 56 57 72 80 82 68 66 70
17 21 30 34 40 40 35 25 34 52 50 47 39 49 64 72 67 76 50 60 88 81 84 86 75 74 93 63 61 58 54 48 46 38 39 56 77 78 83 75 48 39 52 72 75 58 57 57 55
20 22 25 28 30 26 23 21 36 48 50 49 49 48 51 54 72 64 50 50 64 73 80 90 87 38 83 74 63 58 56 53 47 41 46 65 80 82 80 70 44 42 44 50 50 53 53 52 52
26 28 28 28 27 22 17 32 45 53 54 46 47 51 59 59 60 86 68 63 56 68 84 82 88 92 78 84 64 61 58 53 40 38 48 79 84 80 79 70 42 38 37 43 49 50 47 50 57
32 28 31 35 26 19 25 30 51 50 49 47 58 66 63 58 95 99 90 91 84 79 87 89 85 98 80 92 65 66 61 51 46 41 55 80 83 84 82 72 42 36 36 37 40 40 42 51 51
29 31 33 28 24 19 22 32 40 52 53 59 61 66 61 89 100 94 99 94 85 79 67 77 54 79 94 96 83 69 60 46 45 55 64 85 87 85 82 69 42 36 38 38 39 40 40 48 45
27 28 27 26 21 20 23 23 42 48 64 64 67 68 64 70 97 72 95 100 99 99 93 50 65 59 99 98 86 72 54 50 47 48 56 81 88 85 81 68 47 37 37 41 41 42 44 46 43
17 28 31 25 18 18 18 22 46 58 64 63 66 58 61 95 99 99 97 84 96 91 75 77 87 93 97 100 87 73 65 51 56 64 74 84 90 89 84 66 54 42 37 41 43 46 47 44 42
22 27 24 17 15 17 17 30 38 52 61 56 61 59 64 91 97 96 99 99 99 83 87 100 95 100 99 99 99 97 78 67 74 86 87 92 95 85 80 71 63 51 39 42 47 50 46 46 44
20 25 18 17 15 16 17 50 56 54 67 65 61 64 79 95 97 99 99 99 98 88 89 99 79 95 97 99 100 99 78 76 79 82 75 79 85 80 73 74 69 55 42 47 51 51 53 50 42
18 18 18 15 20 20 21 47 52 63 64 79 89 82 94 88 90 96 99 99 100 99 99 100 100 75 91 88 94 88 84 76 75 70 61 59 60 68 69 70 66 49 45 52 53 56 56 54 41
21 19 18 22 26 24 29 35 41 59 64 82 84 84 94 90 94 97 100 100 100 100 100 100 100 99 100 97 83 78 75 65 62 59 56 55 50 65 70 64 58 46 52 54 58 60 55 47 36
19 22 23 20 23 22 27 35 40 45 61 82 86 94 96 94 94 99 100 100 100 100 100 100 100 100 96 91 86 75 68 69 62 61 53 42 41 50 50 54 50 50 53 56 57 59 52 42 31
22 26 25 21 22 27 31 37 37 41 50 81 88 93 94 94 98 100 100 100 99 100 100 100 99 95 87 82 68 54 56 52 43 65 62 49 46 49 50 52 53 54 56 59 60 58 44 36 34
28 27 29 25 27 28 27 39 36 42 55 78 91 95 97 93 96 100 100 100 100 99 100 100 95 88 82 79 55 46 65 71 65 69 70 58 54 56 55 57 58 58 61 61 61 54 40 37 35
35 42 35 31 30 31 33 36 39 44 55 74 97 90 84 96 97 100 99 100 100 98 98 100 97 90 80 70 61 64 76 73 67 64 58 67 67 69 68 63 64 64 64 62 61 52 39 37 36
45 40 34 40 29 36 38 38 35 49 53 77 99 92 82 87 94 98 100 100 100 100 100 98 97 88 81 85 69 71 67 73 62 52 43 62 49 69 72 69 68 65 64 65 59 43 38 36 38
33 35 36 30 27 34 37 38 44 56 72 94 99 90 80 81 87 96 100 100 100 100 100 100 89 90 84 84 75 83 83 65 56 56 44 64 64 66 73 74 70 67 66 62 53 46 39 40 43
33 36 34 25 21 29 27 30 36 59 68 80 94 95 85 78 84 92 98 99 100 99 99 97 99 95 89 82 76 73 62 54 48 46 54 66 59 56 63 72 75 72 66 58 52 43 44 46 47
34 34 32 25 22 22 28 31 34 44 53 63 73 84 90 86 85 93 92 98 99 99 98 94 96 87 73 70 69 62 57 56 58 58 56 52 50 52 61 69 73 76 65 58 50 45 42 48 50
38 26 24 26 30 36 27 46 33 46 59 60 62 72 88 88 83 88 87 90 100 99 98 98 90 82 71 68 67 64 64 69 74 60 46 42 42 52 60 70 75 79 63 60 52 47 44 45 52
32 26 25 27 31 36 35 44 37 45 61 59 58 66 79 89 88 88 84 85 92 95 93 92 85 78 75 70 65 65 75 74 61 61 54 49 52 61 60 70 79 75 67 62 54 49 47 47 54
23 23 30 37 39 51 51 50 47 39 40 53 48 58 70 78 81 80 79 84 93 89 90 92 88 86 80 77 70 72 78 82 81 81 81 76 69 64 70 75 81 76 71 65 60 51 48 53 58
24 31 48 57 58 62 62 57 45 32 28 41 48 47 64 68 71 76 79 83 88 87 86 86 80 79 77 76 78 80 88 87 81 80 81 84 77 79 78 81 83 80 74 71 63 52 53 60 61
30 32 60 58 76 69 60 54 43 28 27 25 36 44 48 64 65 68 70 75 77 73 73 74 74 77 81 84 84 86 85 85 81 78 78 72 72 72 74 76 77 82 76 70 62 59 65 71 77
29 38 33 60 63 74 64 50 34 27 22 17 34 39 52 50 63 63 62 66 70 71 64 67 70 75 77 83 87 91 91 88 82 79 72 66 65 74 78 82 84 85 78 70 65 68 74 83 90
27 30 46 55 77 74 62 57 47 29 21 22 22 44 46 48 52 59 59 60 62 66 69 65 69 70 69 71 83 86 86 80 79 76 73 76 73 81 88 92 89 88 88 80 72 76 86 84 84
32 37 39 42 60 74 67 52 38 30 24 22 24 33 40 44 47 49 54 56 57 60 64 69 71 67 63 61 69 78 81 78 77 75 74 78 82 93 98 94 93 93 88 79 75 80 84 82 89
26 29 37 61 55 59 64 53 28 28 26 26 23 22 30 39 41 42 45 47 51 56 64 64 67 66 64 64 64 73 81 82 84 87 92 96 100 100 94 91 92 92 84 78 77 82 84 92 82

GFSSGP_925_rhum_087.txt.gz
RH
22 23 32 26 26 35 35 29 22 27 35 38 42 43 52 66 57 50 66 71 86 100 96 80 59 60 84 68 58 56 60 36 40 46 65 78 83 74 64 56 65 83 85 87 89 91 92 93 88
22 35 31 31 34 37 33 25 26 42 41 50 46 48 60 64 68 70 60 62 91 100 88 83 52 47 67 76 67 62 59 69 74 82 85 85 83 67 54 53 75 86 87 88 90 92 95 91 72
19 29 30 38 43 39 36 25 26 43 47 48 41 53 64 67 74 80 70 75 94 96 99 91 67 40 46 56 88 59 48 51 54 64 68 82 84 63 61 62 80 87 87 89 89 85 65 61 64
24 23 27 32 30 30 28 23 21 43 51 52 48 48 50 54 72 58 55 67 96 93 86 81 70 64 36 52 53 84 49 50 50 60 75 85 86 66 58 70 82 87 86 84 75 56 53 52 63
27 30 31 30 29 23 22 19 36 42 51 46 50 50 55 64 65 58 55 53 85 84 97 89 71 51 52 40 54 75 72 49 41 62 86 85 85 60 53 60 71 74 64 62 53 51 49 53 65
31 30 34 32 28 22 20 25 47 50 47 50 56 66 62 66 83 74 72 71 64 67 74 100 92 79 83 50 55 63 83 50 48 64 84 86 81 62 51 46 50 53 54 52 50 48 53 61 64
29 35 35 29 30 24 18 38 46 51 51 51 60 66 59 97 99 96 86 91 85 80 79 81 84 85 82 66 83 77 84 53 36 82 84 86 79 61 48 43 44 49 50 48 50 47 54 63 64
30 32 30 30 26 22 17 31 46 49 48 64 64 70 55 75 100 99 100 100 97 98 91 77 76 87 94 89 87 83 85 62 58 86 86 84 83 69 46 38 38 42 42 47 50 45 43 57 65
22 32 36 28 22 18 16 26 48 54 55 64 69 58 71 97 99 96 99 100 100 95 95 87 80 78 82 93 97 87 88 92 70 89 86 81 91 76 43 38 38 40 42 48 49 45 42 53 64
26 33 27 21 18 19 19 28 49 58 60 62 59 64 68 96 98 98 99 97 91 95 91 100 86 94 90 100 97 95 93 86 99 89 88 100 99 80 46 38 39 42 44 49 50 46 42 43 44
24 29 22 19 19 20 19 46 51 57 67 66 64 69 76 97 97 96 97 98 91 83 94 100 99 100 100 92 100 99 90 92 99 100 100 99 100 85 57 45 41 46 46 48 49 46 45 42 38
20 20 19 18 17 24 23 45 53 62 56 76 87 75 90 90 93 96 98 99 94 96 98 100 89 85 100 95 100 93 98 98 100 100 99 100 100 85 68 51 43 43 48 50 51 49 48 42 33
22 20 20 21 23 29 38 39 42 68 87 88 87 93 86 91 95 98 100 100 97 100 100 100 91 94 87 98 100 96 90 100 99 98 98 90 86 78 68 60 46 43 50 52 54 55 54 46 35
22 23 26 24 24 27 32 40 41 51 83 91 91 94 98 84 93 100 100 100 100 100 100 100 99 100 100 85 90 88 91 94 90 80 85 86 78 70 68 60 49 46 53 55 53 55 52 41 32
23 27 28 24 22 26 28 35 47 45 88 90 93 94 96 86 93 97 99 100 100 100 100 100 100 99 99 100 89 87 83 86 82 80 75 71 67 71 58 60 49 48 56 58 58 54 46 36 33
28 30 36 27 25 27 27 38 39 57 90 96 96 97 88 85 95 99 99 100 100 99 100 100 100 99 92 89 86 79 78 76 69 66 64 66 63 61 49 54 49 55 58 58 60 55 44 36 35
38 43 39 35 26 29 33 36 39 54 71 94 97 94 84 90 89 100 100 100 100 100 99 100 100 96 87 76 75 71 63 61 66 59 55 52 52 48 48 50 53 56 60 62 61 55 40 37 36
48 44 36 40 32 36 40 42 42 55 68 90 93 87 92 95 87 98 99 100 100 100 99 100 100 94 82 74 72 71 64 54 72 74 64 57 57 58 55 56 59 59 64 64 62 56 42 38 36
34 38 41 34 28 33 34 41 34 50 61 93 93 90 94 92 92 95 100 99 99 100 100 98 99 94 81 77 83 82 79 76 68 72 72 65 57 67 71 63 65 68 64 63 63 57 42 40 38
38 42 42 35 28 31 35 36 29 59 62 78 92 97 92 84 92 91 99 100 100 100 100 98 94 91 88 85 74 75 83 68 63 54 52 46 51 62 68 72 71 68 65 67 66 54 43 42 44
38 42 42 40 31 30 29 35 30 45 60 75 89 89 88 88 92 85 91 98 100 100 100 99 95 86 84 81 67 66 76 73 69 54 59 62 60 61 60 70 74 72 71 66 65 53 48 44 49
43 34 34 36 39 42 29 49 36 37 64 74 81 95 94 88 85 79 84 89 94 95 99 97 93 90 86 84 77 74 71 68 70 63 59 58 58 56 55 62 73 80 75 70 62 56 50 44 46
37 32 36 38 38 38 36 46 41 56 66 70 71 82 89 92 89 89 93 96 99 98 100 98 97 92 90 83 76 73 70 65 60 58 57 54 53 55 62 70 72 74 78 74 67 59 50 45 45
29 32 33 43 44 55 47 50 53 47 48 52 58 61 71 88 89 89 89 88 100 99 100 97 92 90 87 80 74 69 69 64 60 59 65 61 56 62 59 66 66 66 73 78 74 62 57 50 46
34 38 56 59 57 62 56 69 54 36 33 38 51 55 59 74 87 90 91 90 96 100 100 98 96 93 88 82 74 69 67 67 67 64 64 65 60 54 41 41 54 62 76 78 78 69 68 57 52
36 37 62 57 73 57 60 66 46 35 30 32 43 44 52 69 76 81 82 84 89 94 95 96 94 91 90 87 80 74 74 72 72 68 65 61 58 48 46 51 60 61 76 81 82 75 72 63 64
32 40 32 50 67 78 62 52 40 34 32 24 45 50 56 68 71 71 72 77 85 88 88 88 86 86 84 86 83 79 76 78 81 72 71 74 73 74 70 64 62 68 79 86 85 81 76 69 68
27 32 45 60 73 80 64 57 52 38 25 24 41 53 53 60 67 65 65 71 77 81 84 84 82 80 78 79 80 80 79 77 79 84 87 87 85 85 85 76 74 79 87 93 89 86 78 74 74
36 32 40 42 63 54 70 59 43 41 35 23 23 45 54 54 61 65 64 62 69 74 78 79 78 74 71 74 78 82 85 88 91 94 92 87 90 89 86 85 90 94 99 97 93 80 74 76 79
27 29 35 54 58 64 66 53 30 36 31 28 24 25 41 52 51 56 61 61 63 69 74 73 73 71 69 71 74 78 85 89 95 96 97 95 96 94 94 91 98 99 100 98 99 85 83 84 85

GFSSGP_925_rhum_090.txt.gz
RH
23 25 33 23 25 34 32 29 24 25 31 40 46 45 61 68 63 49 58 77 82 91 87 82 76 66 65 60 84 70 66 63 63 61 61 65 65 70 76 76 80 80 84 84 86 90 91 91 93
28 36 28 31 34 38 32 26 25 31 35 46 42 47 61 56 69 70 63 60 95 99 96 83 80 90 69 53 86 80 70 65 60 60 65 71 72 76 73 84 85 86 86 88 90 92 93 89 76
22 29 29 38 44 35 34 26 22 29 44 44 43 54 66 59 68 74 58 61 98 99 97 91 80 83 78 61 54 58 67 56 40 63 73 69 74 75 86 88 87 86 85 88 89 92 92 73 52
23 24 28 32 29 28 27 23 24 29 50 51 47 52 50 51 69 68 70 69 82 99 95 90 82 76 68 64 54 51 44 62 40 45 65 76 80 82 90 88 88 85 88 90 92 90 71 69 43
25 30 32 30 29 26 26 23 20 42 45 49 52 48 54 54 56 61 79 69 90 92 87 87 80 71 62 57 47 42 54 74 82 86 81 80 87 88 91 92 90 87 87 80 60 59 69 64 48
32 30 33 31 27 23 22 21 37 43 44 49 56 58 58 63 69 72 80 84 83 94 69 64 80 72 78 62 56 49 51 68 79 82 78 79 84 87 91 91 90 81 63 53 52 58 66 62 54
30 36 32 29 29 26 19 39 40 49 46 52 56 59 56 88 77 90 95 74 74 75 81 79 70 80 74 83 64 53 60 70 82 87 70 82 84 85 91 91 79 57 52 50 56 61 65 58 57
33 34 32 33 29 24 17 34 44 49 48 63 60 65 56 78 91 95 99 86 84 83 95 83 93 80 75 82 59 57 59 65 62 75 80 83 81 82 86 80 60 51 50 51 58 64 63 63 56
25 35 38 29 26 19 17 23 48 53 54 64 73 66 72 95 90 99 100 98 96 100 100 96 94 99 97 85 80 79 70 66 70 81 57 86 75 77 72 63 52 49 48 46 54 61 65 63 57
30 38 32 25 21 20 21 22 45 52 59 60 62 66 96 99 99 97 98 96 99 99 98 100 98 87 92 99 95 82 80 72 73 82 80 88 70 68 57 55 52 50 47 45 46 58 62 62 50
28 33 27 22 21 22 21 31 52 59 57 62 62 60 80 99 90 96 96 96 92 91 94 100 97 85 88 93 99 100 96 88 86 84 90 97 81 69 50 57 59 52 46 44 47 58 59 49 45
23 23 21 19 19 25 26 38 54 60 50 62 69 76 82 98 94 95 95 95 98 94 99 98 96 92 99 100 100 100 98 90 78 85 91 100 98 63 51 53 54 52 48 45 47 45 44 44 38
24 21 21 22 25 27 34 43 50 65 74 89 93 88 93 92 92 97 97 97 98 97 100 95 99 99 95 100 100 100 97 79 80 98 90 100 96 59 47 48 50 52 51 48 45 43 40 36 34
24 24 27 27 26 26 34 37 47 47 92 93 93 97 81 88 92 98 99 100 100 99 100 98 99 100 100 100 100 100 100 91 84 98 100 99 88 54 41 45 48 51 53 52 50 48 44 40 35
26 31 31 28 24 24 32 37 54 45 95 96 95 98 84 84 91 94 96 100 100 100 100 99 96 100 100 100 99 99 100 99 68 99 94 88 70 59 49 45 45 47 54 56 54 50 44 37 32
32 32 38 25 26 25 31 38 32 57 95 98 97 86 85 90 86 97 99 100 98 99 100 100 98 100 99 99 100 98 93 95 99 98 64 59 63 66 61 53 53 45 56 56 54 51 44 35 33
42 47 40 36 27 29 32 40 32 62 92 97 99 87 80 90 90 99 100 100 100 100 100 100 100 99 93 94 96 94 87 86 98 78 71 59 50 70 68 56 46 53 60 58 56 49 46 35 35
48 46 43 44 31 33 39 44 34 48 66 90 98 88 82 86 86 93 99 100 99 100 99 100 100 99 97 97 93 92 92 87 81 74 82 74 71 72 71 56 54 53 61 61 57 54 42 36 35
37 42 44 40 30 30 35 37 32 40 63 78 98 92 90 98 79 95 99 100 100 100 99 99 100 100 97 92 93 92 91 80 74 65 61 58 68 72 64 54 53 57 62 64 62 53 42 40 39
39 42 44 39 30 34 35 36 31 42 55 60 81 98 97 98 93 92 100 100 100 100 100 99 99 100 91 92 91 92 87 87 82 61 44 44 44 56 57 53 57 56 64 67 65 59 50 43 40
43 43 42 41 33 34 36 40 33 35 59 69 85 92 92 95 96 80 96 100 100 100 100 100 100 98 91 88 86 90 86 84 82 80 65 66 66 62 50 54 58 62 70 67 67 64 59 45 45
47 38 36 38 44 53 33 57 38 30 49 71 82 94 94 92 93 84 78 98 100 100 100 100 94 94 87 84 82 84 82 77 61 59 67 74 74 72 62 63 70 72 73 71 68 68 64 51 46
41 35 42 42 48 45 41 54 45 48 44 47 66 83 91 90 91 90 79 83 98 98 99 99 98 92 85 81 75 71 79 74 65 58 59 61 64 68 64 64 66 72 79 77 72 71 64 54 51
34 38 37 44 52 68 49 50 52 41 44 41 50 71 80 93 92 89 85 85 86 90 96 94 98 94 87 83 78 68 64 71 67 63 66 63 56 57 61 64 61 60 68 72 78 76 70 62 55
37 44 60 62 67 70 49 69 51 35 35 39 37 57 70 79 93 94 97 96 95 96 96 99 100 100 96 88 81 75 68 65 63 62 63 69 64 57 52 55 55 56 65 70 76 79 78 69 63
40 44 68 62 66 54 65 75 52 38 36 37 35 43 63 75 82 90 93 94 97 97 98 98 99 100 99 95 90 83 77 74 70 68 68 67 65 60 51 50 51 57 63 70 74 82 87 84 73
35 48 37 47 63 75 64 56 39 34 29 32 31 55 64 71 78 80 86 88 92 98 100 100 100 100 95 94 90 86 81 77 75 71 69 70 64 64 60 57 58 60 63 68 76 81 86 89 81
26 31 41 63 71 77 65 61 48 33 33 30 29 56 59 70 75 73 77 82 85 92 96 99 96 91 89 88 87 86 81 76 73 73 73 74 71 67 63 65 69 76 79 81 85 89 94 95 89
37 36 42 43 61 59 62 60 48 36 33 34 28 37 58 65 73 70 67 68 76 85 92 95 94 89 86 83 80 79 77 73 71 70 70 72 71 66 62 62 70 79 86 87 95 97 98 99 99
28 33 33 45 53 70 61 44 31 36 34 36 29 26 41 60 64 71 70 68 71 82 88 91 92 87 82 76 75 78 78 77 77 75 72 77 73 68 72 83 87 100 98 99 100 100 100 78 100

GFSSGP_925_rhum_093.txt.gz
RH
22 24 32 20 18 21 22 21 22 20 26 32 37 38 39 45 43 35 60 80 80 92 94 84 78 76 91 96 80 76 71 68 63 64 58 61 74 84 88 88 87 86 87 86 87 88 89 92 94
29 34 26 22 21 21 19 21 20 21 24 37 39 41 48 45 54 56 62 69 75 96 95 91 69 66 90 96 94 75 65 58 61 69 84 76 81 88 86 81 85 86 86 86 86 87 90 93 92
22 27 20 24 28 20 20 20 17 17 28 38 34 43 51 45 56 64 71 64 83 100 98 95 80 80 92 92 92 76 65 65 57 71 80 84 84 86 78 76 84 87 87 88 88 87 84 49 43
21 20 21 23 23 21 20 16 20 20 37 43 40 36 39 44 59 70 69 68 93 99 100 98 71 77 69 98 99 76 68 69 60 68 76 82 81 81 79 81 88 86 84 89 93 74 42 40 39
24 21 23 24 23 20 20 19 19 22 34 43 43 36 42 47 64 68 69 71 76 92 97 94 81 74 64 84 94 83 80 68 66 52 67 77 83 86 84 84 83 85 88 90 92 56 44 39 45
22 22 24 22 21 19 18 19 23 32 37 42 48 47 43 69 74 70 70 70 71 82 90 88 89 70 69 74 87 87 71 60 87 71 53 75 79 80 79 79 85 89 88 77 69 59 47 43 50
22 23 23 23 23 23 18 25 37 29 37 41 45 47 42 62 86 76 75 73 84 80 89 72 92 85 67 68 65 64 58 61 85 81 73 73 80 78 78 86 91 83 70 62 66 61 51 49 51
24 23 30 27 24 19 16 26 34 34 26 54 46 45 44 63 85 84 79 84 87 100 99 91 92 69 80 72 75 55 62 69 79 74 85 82 79 82 86 82 83 59 54 58 62 62 55 53 54
22 25 27 24 25 18 16 21 33 44 45 53 54 55 56 95 90 84 91 91 85 98 100 99 100 99 78 79 73 66 62 82 84 89 90 86 94 93 82 85 63 53 58 61 63 61 59 57 57
22 27 25 21 19 18 17 21 19 44 50 47 52 56 85 94 91 84 88 85 93 96 96 99 96 99 93 84 76 74 92 96 94 88 87 95 99 91 88 74 56 56 62 66 66 63 60 66 79
26 24 24 20 18 18 19 20 28 42 35 38 37 45 75 93 87 83 85 90 88 91 91 94 100 94 95 91 92 93 98 99 84 85 86 91 100 95 81 71 57 59 66 86 75 68 78 74 69
26 23 22 17 18 23 22 25 38 44 25 58 48 66 67 73 75 82 89 93 98 94 95 95 96 97 99 93 100 100 84 84 90 81 86 89 100 94 83 70 56 54 82 88 89 75 57 46 40
24 20 19 18 19 24 25 27 29 40 39 64 74 73 70 76 84 92 95 99 98 98 99 91 98 98 98 100 99 100 92 73 87 87 94 78 97 90 76 56 53 51 48 54 64 63 56 40 39
23 22 20 23 23 23 24 23 40 24 46 78 83 81 77 79 78 85 82 96 100 95 98 96 98 98 95 96 96 100 99 90 88 89 83 86 90 79 63 51 50 46 47 55 51 47 45 39 34
26 30 27 26 23 22 24 29 38 29 71 75 82 88 76 75 73 74 85 97 99 100 100 100 100 99 97 98 100 100 100 99 98 98 89 94 87 65 64 52 52 49 46 46 44 43 40 37 35
31 32 30 25 25 24 28 26 26 34 65 66 76 83 79 74 70 72 95 98 100 99 100 100 100 99 96 100 100 100 100 100 99 98 98 98 75 60 56 63 56 52 48 47 45 42 43 40 43
38 26 34 26 26 28 31 30 25 52 60 58 73 75 74 75 75 78 98 99 99 100 100 100 100 100 100 100 99 100 100 92 96 100 85 77 65 48 49 56 62 57 58 52 51 46 42 38 46
33 39 40 32 28 28 27 28 24 27 48 50 67 75 74 73 74 76 99 99 99 100 100 100 100 100 100 99 100 100 100 97 92 93 75 63 64 49 52 60 59 59 60 55 52 48 42 43 40
33 35 34 33 29 29 25 26 24 22 35 48 65 74 76 76 70 79 95 99 100 100 99 100 100 99 99 100 97 100 100 95 88 81 56 64 64 63 66 55 54 59 64 57 54 47 43 44 40
35 35 36 32 28 31 29 27 22 25 28 36 49 68 70 76 75 76 88 100 99 99 100 100 100 100 100 98 96 94 97 85 82 77 64 62 59 65 73 65 53 59 65 60 56 54 50 50 41
39 40 39 36 31 30 31 31 27 24 38 45 55 56 65 74 74 74 85 95 100 100 100 100 99 100 98 98 95 95 95 93 93 87 75 64 53 52 55 73 56 56 58 63 62 59 52 58 47
38 34 35 37 37 36 32 37 32 25 24 32 53 70 71 73 73 70 74 91 95 100 99 100 100 100 99 87 83 88 92 94 86 79 65 56 52 53 57 59 56 50 56 65 62 64 60 59 57
36 33 36 36 41 41 36 41 33 35 30 25 26 61 69 69 73 71 68 78 92 98 100 100 100 100 98 94 86 81 84 87 81 72 62 57 47 50 49 60 63 65 60 59 67 70 70 64 64
34 36 36 44 46 55 44 40 34 32 29 25 30 42 64 70 70 68 68 78 85 96 99 100 100 99 94 91 84 78 80 80 70 71 70 56 49 52 68 62 55 54 60 71 77 78 76 73 71
36 37 44 56 60 50 40 46 33 31 27 27 25 27 61 66 70 71 71 72 81 91 95 98 99 99 93 86 82 79 81 80 74 65 68 68 73 75 69 73 73 70 65 63 71 77 84 84 82
38 36 42 47 53 42 58 53 36 33 28 30 32 30 48 65 67 67 69 72 78 85 89 91 91 91 96 94 88 81 78 79 77 72 66 70 70 72 70 62 61 60 62 65 66 71 71 80 82
37 44 30 39 57 54 44 49 36 31 29 28 25 29 38 57 65 65 66 74 80 90 90 93 92 93 96 95 92 90 84 78 74 73 72 73 70 72 71 61 58 58 62 63 67 71 71 77 80
27 33 47 48 48 44 44 52 32 31 25 24 24 28 40 53 62 63 65 70 76 85 96 97 97 96 98 96 94 90 88 84 80 80 82 81 79 78 75 70 68 73 68 69 73 74 77 93 91
33 33 35 40 52 43 42 42 42 32 26 28 26 29 32 47 56 59 61 66 72 80 88 98 99 98 94 92 93 92 90 90 87 83 80 80 81 82 80 80 76 67 72 65 76 85 94 99 99
29 34 31 42 40 59 48 36 29 35 31 34 31 27 27 42 50 56 57 62 68 76 81 85 92 91 89 88 89 91 92 92 90 88 83 79 76 78 77 80 86 90 85 84 89 96 100 100 100

GFSSGP_925_rhum_096.txt.gz
RH
20 26 27 18 15 13 14 14 12 13 15 16 20 23 20 24 22 23 51 66 76 69 64 74 90 87 87 78 67 57 65 65 74 84 58 67 84 80 83 88 84 84 87 87 88 88 89 93 97
27 29 22 14 15 13 12 13 14 13 13 19 20 23 27 26 29 32 40 64 81 77 70 70 84 87 93 96 82 70 83 87 87 65 66 81 84 82 80 87 84 84 84 86 87 88 92 96 92
26 24 14 14 13 12 13 13 12 12 12 18 19 24 24 22 33 34 56 62 69 71 75 71 81 88 98 96 89 78 81 82 73 68 77 83 87 88 89 86 84 85 85 86 87 90 92 72 76
16 13 13 15 13 13 13 12 12 14 17 20 22 24 22 25 31 44 61 64 66 74 88 75 82 86 99 96 94 86 96 77 76 78 83 83 81 83 84 85 85 83 85 85 89 87 58 53 53
16 12 11 12 13 13 12 12 13 14 16 21 25 20 25 29 34 56 67 68 71 74 96 94 86 86 92 97 96 94 81 89 82 85 84 81 84 82 80 80 84 81 83 86 90 56 38 38 43
13 12 12 10 12 13 12 12 15 17 17 18 28 26 22 40 47 48 74 73 78 79 94 90 80 84 98 96 98 95 95 93 79 83 79 78 82 77 75 79 80 84 85 76 48 38 42 41 41
12 11 10 10 11 14 12 13 18 14 13 17 23 27 18 34 50 70 75 84 93 97 98 90 61 89 94 93 97 80 97 85 82 82 80 73 70 71 78 78 83 89 80 66 48 41 43 42 43
12 12 12 10 10 13 11 13 15 16 15 31 27 22 21 30 63 70 76 88 98 99 100 92 70 66 98 92 84 70 72 72 91 90 84 75 68 66 80 87 89 85 68 72 48 45 51 48 47
13 14 13 10 11 10 12 15 14 18 21 25 27 27 29 51 60 58 57 74 94 97 96 99 76 69 81 80 65 67 89 77 93 91 94 82 91 84 89 85 83 70 64 70 53 52 53 53 55
14 13 11 10 9 11 12 15 15 18 17 22 23 26 39 55 54 50 55 60 67 83 97 95 95 95 90 83 88 79 69 90 99 93 96 78 89 83 75 90 71 61 65 74 57 55 54 62 66
14 15 9 12 11 12 12 13 13 17 16 13 15 16 28 49 54 57 59 64 66 74 89 92 99 100 96 95 90 88 83 89 92 95 83 80 80 81 87 83 77 90 83 82 72 70 64 60 58
19 14 12 11 10 14 14 12 15 14 15 13 22 24 37 47 48 52 62 67 70 79 85 98 91 97 99 98 91 84 92 94 93 91 81 87 85 85 77 65 68 78 75 76 73 68 62 64 59
21 14 12 11 12 12 14 16 15 14 12 12 24 44 43 44 48 64 78 84 78 83 91 94 99 99 97 99 100 97 97 89 91 91 85 88 86 78 70 60 65 65 65 71 69 66 70 66 61
12 15 12 12 12 13 17 15 12 14 11 23 39 42 48 51 52 59 60 70 97 94 92 96 97 100 99 98 91 98 100 91 96 99 93 89 91 80 67 62 61 64 65 65 66 66 59 54 54
16 18 14 14 14 14 12 16 13 12 19 27 37 44 47 47 51 52 56 67 82 99 98 99 99 100 98 98 98 99 100 97 98 99 98 96 90 80 70 64 57 58 60 63 63 61 52 46 43
21 19 21 14 13 14 18 15 15 17 23 20 26 38 48 50 51 54 60 73 90 99 99 99 99 99 99 100 98 100 100 100 96 99 100 86 86 75 64 63 58 55 59 60 57 53 48 46 42
19 22 18 17 14 13 20 16 15 20 22 22 22 31 38 46 55 58 63 76 94 94 99 99 100 99 100 99 98 100 100 100 98 99 100 89 84 72 64 62 60 63 59 56 55 51 50 50 44
22 22 21 20 14 20 17 19 14 14 16 18 19 27 35 41 45 54 62 80 93 99 99 99 100 100 100 95 100 100 100 100 100 100 100 90 84 78 68 66 71 63 56 57 53 53 53 50 46
18 20 20 15 17 22 19 14 13 13 14 16 20 27 33 39 41 52 67 81 99 100 100 100 100 100 100 95 100 100 100 100 100 100 100 98 92 78 70 68 76 63 59 57 60 59 57 54 51
23 24 20 17 16 20 18 16 14 14 14 15 17 22 29 36 46 53 65 79 95 94 98 99 99 99 100 100 98 99 100 100 100 100 95 96 93 77 74 70 73 64 62 65 66 62 60 60 61
25 24 22 22 18 19 21 20 13 12 16 18 23 22 25 31 43 51 64 83 92 96 90 98 99 98 100 95 94 98 98 99 99 96 96 92 87 86 74 67 68 68 64 68 69 68 65 60 65
28 19 22 22 22 26 20 22 13 15 16 15 14 23 28 32 40 45 54 70 92 90 86 92 93 99 100 99 98 93 95 90 92 99 88 79 79 77 76 77 71 75 72 72 74 70 67 61 59
26 22 20 25 25 24 23 26 18 15 21 17 14 14 28 34 39 44 47 61 84 88 90 95 92 100 100 99 99 96 92 83 89 87 82 85 69 73 72 66 66 75 78 80 80 75 75 67 61
23 29 29 30 30 39 30 24 18 16 19 16 15 19 27 35 39 42 45 51 66 83 86 95 93 99 100 90 88 86 82 82 92 93 91 88 83 76 59 52 54 59 76 76 80 80 85 81 77
28 35 41 46 45 41 22 29 20 19 17 16 16 15 26 34 40 44 44 46 56 73 80 88 92 94 95 89 85 88 82 77 80 85 81 69 74 72 52 55 61 62 58 72 76 82 86 87 88
33 34 37 38 36 31 27 33 23 18 16 15 19 19 23 33 40 42 42 44 53 67 78 83 85 90 94 94 90 77 71 82 76 73 67 75 64 63 61 66 56 48 50 69 68 72 80 83 88
25 36 26 30 27 39 29 28 25 20 20 18 17 16 21 30 37 40 41 45 47 62 72 80 79 82 86 88 87 82 74 74 71 68 67 62 61 61 67 70 72 70 71 73 78 75 78 81 86
19 19 37 34 44 39 25 24 25 20 19 15 17 16 18 24 33 37 39 45 48 56 66 77 71 73 79 83 82 78 73 70 67 66 66 66 62 61 59 66 71 70 70 73 74 74 74 77 78
21 27 27 25 29 36 35 24 19 19 18 17 17 16 19 25 31 35 37 43 50 55 61 76 79 72 71 73 78 77 76 76 75 69 68 68 68 68 69 68 70 69 67 68 70 72 73 75 75
37 28 23 31 30 32 33 29 18 19 19 18 19 20 19 24 29 32 37 41 48 54 60 74 88 81 75 71 70 73 75 75 74 74 70 68 66 67 69 70 69 67 65 66 68 74 77 83 80

GFSSGP_925_rhum_102.txt.gz
RH
14 15 23 18 20 15 15 10 8 9 8 9 10 12 12 11 14 26 36 50 47 53 65 58 53 71 80 73 65 65 74 80 87 85 82 82 76 76 75 80 84 83 87 89 91 89 88 95 73
22 19 15 16 22 18 12 8 9 8 9 11 10 10 12 15 13 17 40 51 53 45 60 70 57 64 82 80 76 75 78 77 84 82 85 88 87 80 82 86 83 83 85 88 86 89 93 90 71
23 23 15 19 18 16 12 8 8 8 8 10 10 9 11 13 18 29 43 48 47 47 49 54 64 58 72 89 81 78 75 84 77 69 49 80 81 84 87 85 79 83 87 88 87 91 94 69 69
19 12 11 14 12 9 8 8 8 9 8 8 10 13 10 11 13 30 40 41 42 44 49 55 69 64 62 68 88 81 78 84 78 70 53 71 81 84 86 84 78 82 85 89 91 97 70 63 56
13 11 14 14 12 8 6 8 8 10 8 9 10 12 13 10 29 36 40 44 45 45 52 66 67 75 73 67 74 89 80 83 84 70 68 77 84 89 87 81 81 80 86 92 95 80 59 57 56
13 11 15 13 10 7 6 8 8 10 10 10 11 12 14 19 24 33 49 47 51 55 58 77 72 75 82 81 75 83 88 78 84 73 77 80 70 83 88 82 83 89 77 83 72 34 50 53 52
14 14 15 13 11 9 6 8 9 11 10 11 10 14 12 25 39 44 49 52 60 72 76 84 88 78 76 92 90 82 88 92 85 76 84 70 74 88 82 85 90 87 79 39 24 27 39 42 48
11 12 14 11 11 10 6 6 9 10 10 8 10 15 17 39 46 48 57 61 74 81 86 84 91 82 82 83 83 87 87 61 90 81 87 48 84 90 82 87 85 74 34 22 21 25 35 46 50
9 14 14 12 10 9 6 7 8 8 9 10 10 10 13 26 42 45 52 59 75 79 80 86 84 88 83 79 73 83 73 77 83 91 70 79 92 88 86 90 74 58 30 27 26 28 32 42 46
12 15 13 8 8 8 7 8 7 9 10 10 11 10 11 27 32 34 40 43 58 73 86 86 88 93 96 86 90 99 96 74 84 92 73 85 95 93 95 89 67 44 35 33 31 30 31 34 46
11 14 11 9 8 8 8 8 7 8 9 9 10 10 11 26 31 35 35 37 41 48 79 83 89 98 83 94 95 83 79 80 99 91 81 88 97 90 93 93 73 52 46 45 40 36 37 36 50
13 10 9 9 8 9 10 8 8 9 9 7 7 8 10 16 23 34 39 40 43 55 77 84 86 90 83 99 80 94 97 97 100 99 91 96 91 91 96 96 79 57 53 52 45 40 56 44 49
13 11 10 10 9 10 10 10 10 9 8 7 7 8 13 19 24 27 36 48 54 54 68 87 86 90 83 84 84 93 89 84 86 100 92 90 88 99 100 96 93 72 72 71 47 57 60 53 49
15 13 11 10 10 11 12 11 10 10 8 9 9 11 14 20 26 30 49 54 52 56 69 76 87 91 93 90 78 81 86 73 77 82 92 85 87 99 97 91 91 77 74 73 51 58 61 58 54
14 17 13 12 11 11 10 13 12 10 9 9 9 9 14 21 24 31 38 42 50 58 65 75 84 88 90 90 88 84 95 85 94 90 86 84 88 93 88 83 82 78 74 71 62 60 60 57 53
20 19 23 16 13 12 12 17 12 9 9 9 8 13 15 22 25 29 34 37 46 61 69 78 84 88 88 90 89 93 90 96 99 87 70 79 84 86 78 78 74 70 71 69 61 62 59 55 51
18 26 24 20 14 13 12 15 11 9 9 12 13 13 13 22 30 30 34 41 49 70 76 88 90 91 92 93 92 94 95 91 95 95 92 83 85 81 72 71 69 67 66 65 62 59 56 50 48
20 23 21 23 17 14 14 14 12 11 10 13 14 14 12 13 30 34 37 46 62 77 87 93 98 95 93 96 91 91 99 99 99 96 88 90 83 85 72 68 65 63 62 61 62 55 51 46 42
15 18 25 28 23 22 17 15 13 12 11 12 11 12 12 13 20 36 39 50 66 83 86 93 98 92 95 96 96 96 92 96 100 100 96 86 88 81 75 64 63 63 64 63 58 53 48 45 43
12 20 26 24 22 24 20 17 13 13 13 12 11 10 11 13 25 40 44 53 74 82 84 92 96 98 98 96 99 98 99 98 99 100 100 95 96 86 77 60 59 59 61 63 57 52 50 51 48
15 16 27 32 27 25 24 22 17 13 13 12 11 10 10 12 26 41 48 54 75 81 81 91 91 97 96 98 100 99 99 100 100 100 100 100 97 86 76 54 50 59 62 59 54 53 53 56 52
24 16 17 18 24 37 23 30 20 15 14 13 13 12 11 13 14 37 45 54 69 78 80 81 92 96 98 98 98 93 100 100 100 100 99 100 97 94 80 67 68 54 67 58 56 56 58 59 56
21 16 17 21 26 26 24 26 21 16 16 14 12 11 14 15 16 36 41 48 58 75 83 77 90 94 99 100 96 97 100 100 99 99 100 100 100 94 81 84 73 69 72 61 62 67 62 62 61
17 20 22 22 24 37 28 26 24 19 16 14 12 10 13 13 18 29 37 45 52 72 78 77 84 91 96 98 97 98 97 100 100 100 100 100 100 100 92 75 76 84 77 77 74 69 64 62 66
23 28 41 44 45 42 24 26 24 18 15 15 12 13 16 16 25 30 37 43 51 76 78 85 85 91 98 97 96 97 96 98 100 100 100 100 99 94 89 77 88 89 84 75 64 69 70 69 68
22 30 47 67 54 48 48 62 26 15 14 13 12 12 16 20 27 29 36 42 51 70 77 81 86 87 97 99 96 94 90 99 100 99 100 98 97 95 95 92 94 84 80 64 65 81 70 67 66
21 31 25 42 40 52 52 34 22 17 16 14 13 14 17 21 26 29 34 42 50 66 75 76 83 78 92 96 92 93 91 91 96 94 94 95 99 99 97 96 85 78 68 55 71 66 64 66 65
17 16 31 37 61 67 41 37 45 36 28 19 17 16 17 18 25 28 32 40 46 59 68 70 73 76 81 89 91 91 87 83 84 91 93 88 86 86 86 81 77 72 70 72 62 61 65 68 68
19 24 26 29 39 55 55 38 28 27 26 21 23 18 19 17 22 28 30 37 39 52 60 68 66 66 77 82 82 82 81 79 72 80 86 84 80 79 84 76 72 76 72 71 70 71 66 64 65
35 25 24 36 38 37 41 36 19 28 28 23 22 20 19 18 18 25 29 36 39 47 55 62 62 60 69 77 78 76 76 76 75 78 72 69 77 76 72 79 80 78 74 67 68 67 72 74 75

GFSSGP_925_rhum_105.txt.gz
RH
13 11 16 26 37 32 29 22 14 11 16 15 13 14 14 14 15 36 51 48 57 58 60 58 59 61 54 53 58 60 62 58 52 71 69 71 69 67 61 61 76 86 90 94 98 99 98 70 60
13 19 26 30 36 40 34 14 14 16 15 12 11 11 13 17 38 57 56 50 62 58 58 58 55 63 62 55 56 70 64 62 58 77 83 72 76 71 69 78 82 85 87 90 91 94 88 55 52
11 24 32 33 38 39 30 12 13 12 12 11 11 10 12 16 34 47 46 49 47 54 61 65 59 55 60 62 58 68 65 75 68 72 72 72 51 82 81 84 81 83 87 89 89 92 63 62 69
23 28 22 22 26 18 17 12 12 11 10 12 12 14 11 15 30 35 44 36 44 46 51 62 66 61 57 60 67 63 76 78 61 78 72 47 58 75 84 84 81 80 85 89 91 92 59 65 73
22 24 25 26 23 16 12 10 11 11 10 12 13 14 15 27 34 40 40 42 43 47 49 53 66 68 65 61 64 70 70 77 72 80 70 54 49 70 86 83 85 83 80 87 82 65 61 63 68
29 22 27 29 20 13 11 10 11 13 12 12 12 15 17 39 37 41 42 45 46 52 64 67 68 78 76 76 74 71 80 79 79 80 76 59 61 61 87 85 88 83 80 78 68 61 57 56 58
28 27 28 24 20 15 11 11 13 14 13 15 12 16 37 47 40 43 45 50 54 60 74 80 80 80 88 90 99 90 80 80 77 85 80 69 66 72 81 81 87 86 81 42 45 53 57 55 51
22 22 25 21 20 17 11 10 13 12 13 10 12 17 23 50 45 47 50 55 60 67 69 72 83 80 78 88 100 100 96 83 83 94 75 83 72 78 90 84 88 87 71 28 38 42 52 48 48
14 23 25 21 18 14 10 10 10 10 10 10 11 13 16 46 47 52 56 63 63 71 67 59 67 72 72 80 83 92 99 98 83 91 87 90 73 87 93 90 89 77 48 31 33 42 46 44 46
20 23 21 16 14 14 11 12 10 10 13 13 14 14 30 50 52 60 64 74 76 77 76 74 75 81 84 90 82 72 78 88 94 75 70 99 78 79 90 91 82 69 42 28 36 31 43 46 47
19 21 16 14 12 12 12 12 10 10 12 12 12 13 43 50 53 54 54 54 62 74 78 81 87 89 88 92 78 67 90 100 92 80 88 90 92 99 100 98 88 89 34 29 31 34 42 48 48
23 17 15 13 11 11 12 12 13 12 12 11 10 9 14 42 46 49 46 38 58 78 82 82 81 82 83 87 77 81 86 96 100 90 76 88 99 100 100 98 83 53 31 28 32 32 41 49 47
21 18 15 14 12 12 13 13 15 14 12 11 10 10 12 32 32 38 39 48 62 76 81 84 84 83 77 88 82 88 95 99 100 97 99 98 99 100 100 96 69 49 39 38 34 36 43 48 55
21 20 19 18 17 14 14 15 15 14 13 12 12 15 15 24 33 47 52 56 55 67 82 77 78 85 82 92 84 84 84 94 99 82 100 89 99 100 100 89 67 60 46 39 36 43 39 47 54
20 25 22 20 17 16 14 16 16 13 13 12 12 11 16 25 33 50 48 54 53 59 72 69 71 83 92 88 88 86 92 94 95 99 100 98 99 98 99 88 74 62 51 40 53 58 55 50 53
16 20 31 22 20 18 17 22 15 13 14 13 12 11 16 25 31 37 44 47 55 64 70 71 79 84 88 85 86 88 94 90 92 99 95 92 91 99 100 92 75 64 57 45 60 65 62 58 56
20 25 26 23 19 19 19 23 18 22 13 13 14 14 17 20 36 40 39 47 58 67 71 76 83 87 89 91 88 92 97 92 91 88 92 90 74 81 94 93 78 73 64 55 58 64 62 56 54
25 27 22 24 20 25 28 29 24 23 18 15 18 19 18 19 38 42 45 55 68 73 73 78 80 87 93 90 94 99 99 95 95 95 95 94 74 82 85 89 80 78 70 62 61 67 60 54 54
13 17 19 17 19 26 29 31 27 22 21 16 17 21 20 19 35 46 54 63 74 80 82 84 90 95 94 94 90 94 98 100 98 93 96 88 87 78 81 78 76 76 73 69 64 62 57 51 50
13 17 18 16 21 22 28 36 32 29 25 21 18 17 16 17 45 51 69 74 80 87 85 86 92 88 88 90 91 90 86 98 100 100 93 94 80 72 86 77 72 73 74 72 66 59 52 48 46
19 23 22 19 18 23 32 40 37 28 21 16 16 16 14 25 50 59 70 82 85 85 79 88 92 88 95 89 88 86 89 90 98 100 100 100 83 82 84 75 69 70 71 69 64 54 50 47 53
26 21 22 22 25 33 30 46 45 33 24 19 15 15 16 22 50 57 70 89 90 81 80 86 92 90 93 91 91 99 97 99 99 94 100 100 95 86 87 67 66 66 74 73 66 55 48 50 58
21 25 25 26 29 32 29 33 36 24 22 18 16 17 15 16 51 58 65 83 85 78 80 82 85 94 93 91 94 97 100 100 99 99 100 100 99 99 89 69 70 67 74 73 74 61 50 57 56
20 28 30 27 32 44 31 32 33 27 22 18 16 15 17 16 47 55 61 77 84 79 76 78 85 93 89 95 99 98 99 100 100 100 99 100 100 100 93 70 72 72 69 65 63 58 66 70 70
23 34 57 58 55 50 29 34 31 27 20 17 16 16 20 24 48 57 64 74 86 89 80 83 83 93 90 97 100 96 98 100 98 100 100 100 100 100 99 88 81 68 68 60 71 69 73 67 78
32 35 65 66 68 48 39 62 46 26 24 21 14 16 25 46 48 54 58 68 84 86 83 84 87 90 93 94 100 97 93 96 100 97 100 100 100 99 100 96 90 77 73 76 81 78 66 65 73
20 34 27 47 45 59 53 42 32 43 42 34 18 15 26 39 46 54 55 66 84 85 86 81 86 79 86 88 99 96 96 95 100 100 98 100 100 100 100 95 84 84 88 91 90 76 69 62 74
19 21 34 46 72 80 50 42 46 48 54 43 28 25 23 34 40 49 52 62 80 82 84 79 85 80 88 88 97 94 93 94 95 99 98 98 100 99 94 93 89 89 95 88 81 78 72 68 55
63 31 26 32 54 71 73 55 43 65 67 61 40 24 24 27 36 46 50 58 73 79 82 83 83 78 87 95 100 97 92 92 94 98 97 94 94 95 99 98 93 93 85 75 78 81 68 74 74
58 67 56 36 44 53 52 49 27 40 40 55 42 32 35 32 38 40 48 57 70 75 80 82 84 82 86 89 94 92 91 87 91 98 95 94 97 95 87 88 89 90 84 82 80 70 69 73 73

GFSSGP_925_rhum_108.txt.gz
RH
27 18 17 27 36 37 34 26 18 12 16 14 13 14 15 14 15 25 51 50 52 52 58 58 55 54 49 53 55 55 56 61 69 72 75 74 74 74 74 73 81 93 93 92 94 98 98 82 76
15 19 26 36 41 44 38 25 18 17 16 15 12 12 13 23 53 61 60 54 53 52 56 56 56 54 51 52 55 62 61 62 71 76 74 75 73 73 69 69 77 88 90 96 95 98 96 70 71
16 25 38 36 48 46 37 16 16 16 16 13 12 11 15 28 53 58 46 49 59 59 53 56 55 54 51 49 55 62 63 71 68 74 75 68 63 62 72 73 80 84 90 95 98 97 75 52 62
25 31 34 27 36 31 25 21 14 13 12 12 13 14 15 31 48 38 46 50 58 57 56 59 60 58 56 52 54 60 66 51 49 77 71 70 70 71 68 75 81 85 87 91 91 89 56 66 77
23 29 30 30 28 21 16 14 13 12 13 14 15 16 17 35 33 35 45 51 51 57 58 64 64 63 62 61 60 68 76 70 58 70 73 61 83 68 69 76 81 84 86 88 89 78 77 77 82
32 27 31 32 26 19 16 14 14 14 15 12 14 17 35 46 40 45 41 42 45 50 56 59 70 70 70 73 73 74 70 75 76 73 55 55 90 80 72 78 81 83 87 84 73 75 80 83 89
32 36 34 27 27 22 17 12 14 15 14 15 14 22 45 50 37 40 42 45 47 53 61 66 72 77 82 87 94 91 80 73 83 77 65 73 76 68 63 65 80 81 84 73 69 74 77 83 71
34 32 29 30 25 24 14 12 15 13 14 11 14 25 55 46 46 46 49 54 53 55 59 68 75 77 84 88 99 99 96 79 79 86 74 81 65 71 60 59 76 80 77 62 58 65 68 62 58
21 31 37 28 24 20 14 14 11 12 12 11 14 16 16 36 54 58 67 69 65 65 65 66 68 70 67 71 84 94 100 98 84 89 74 79 70 69 79 88 84 78 69 57 57 60 61 55 56
26 34 29 20 19 18 16 16 14 11 13 14 14 17 47 54 62 66 73 78 71 67 64 60 66 68 68 70 73 85 96 99 99 96 86 94 76 77 74 99 81 70 60 64 62 59 53 54 64
25 26 21 18 17 17 16 16 13 13 14 15 13 14 61 57 61 64 65 68 67 62 70 71 74 78 78 73 83 89 84 84 97 96 89 96 84 79 93 100 85 77 57 60 64 58 51 53 61
33 25 21 18 16 17 16 14 14 15 14 12 13 12 59 61 63 63 65 64 68 75 73 80 84 82 81 87 91 74 74 82 95 100 99 99 98 91 100 100 99 76 49 50 56 54 50 50 56
28 26 22 19 18 18 16 17 16 17 15 15 14 14 48 58 57 52 47 52 54 76 78 85 86 80 77 79 80 80 77 82 88 100 99 100 98 99 93 100 99 64 47 48 42 50 48 50 57
24 25 25 21 22 20 20 18 16 15 15 15 15 18 17 44 51 50 57 60 72 70 78 80 82 80 84 78 84 77 79 99 99 100 100 91 84 96 98 100 89 62 37 43 43 41 48 50 58
17 21 21 20 21 21 20 22 20 16 16 17 15 13 16 18 41 46 53 69 69 73 75 81 77 77 86 84 90 84 84 100 100 100 91 97 87 99 100 99 90 56 53 37 28 37 51 53 57
18 21 30 24 21 21 21 28 22 19 24 25 23 19 14 17 32 42 52 64 66 72 78 74 74 77 84 90 92 88 88 97 100 100 100 99 88 94 99 97 78 54 44 31 29 38 51 54 56
21 31 33 27 17 19 22 23 21 25 24 24 23 22 17 15 30 39 56 57 64 70 76 71 75 82 83 88 92 93 96 93 96 95 100 100 100 99 99 87 69 51 42 32 36 41 46 51 56
28 28 24 24 20 22 30 31 27 26 26 28 26 25 20 22 32 41 57 64 74 74 71 69 81 85 86 88 95 100 100 94 100 97 96 99 96 100 98 81 67 57 57 44 54 57 62 56 57
19 18 19 16 13 20 27 31 26 26 26 25 26 26 24 21 30 51 71 80 83 76 72 76 87 88 88 92 94 100 100 97 100 100 100 98 99 100 97 81 68 64 66 44 60 69 71 64 56
16 16 16 14 14 19 24 23 17 28 28 26 27 25 21 22 59 69 84 86 86 86 77 81 86 88 90 90 91 98 100 95 96 99 99 100 100 100 99 86 76 65 69 55 65 69 72 62 56
18 18 17 19 19 19 26 28 27 26 31 29 26 22 19 19 62 73 86 95 97 95 88 86 89 90 86 90 90 91 97 100 100 100 100 100 100 100 99 87 82 78 71 75 65 70 66 60 56
35 24 24 27 29 34 26 36 26 22 25 28 25 21 18 33 55 66 78 96 96 96 86 87 90 86 85 91 90 91 94 97 99 100 100 100 100 98 96 93 88 88 81 76 72 68 62 57 59
28 25 28 30 34 32 31 40 25 26 24 22 21 18 16 18 51 64 74 83 94 92 88 90 93 87 87 89 86 84 86 88 86 95 100 100 100 100 96 93 90 92 88 82 78 68 58 54 62
19 26 31 32 38 47 34 39 31 31 26 22 18 17 16 18 48 58 67 86 94 93 91 93 96 95 88 88 88 88 93 97 100 99 99 100 100 100 93 93 88 93 89 80 70 62 58 67 64
24 37 56 59 59 48 31 39 32 27 23 25 26 26 28 25 43 64 88 88 94 96 96 94 92 99 91 90 93 97 99 99 99 99 100 96 100 100 100 98 93 95 89 80 84 86 89 85 81
28 29 47 61 61 47 34 50 50 31 32 44 43 40 34 27 39 65 79 82 88 92 94 93 97 100 96 89 96 96 100 100 100 100 100 100 100 100 100 98 99 95 95 97 99 98 94 86 81
27 41 28 44 51 60 51 39 30 25 58 55 53 46 38 58 58 67 75 82 85 89 92 96 93 96 91 89 97 95 94 98 99 100 100 100 100 100 100 97 99 90 91 91 92 92 87 87 82
32 27 34 50 64 56 57 54 52 53 68 63 63 58 46 45 56 63 69 83 84 87 91 94 88 92 88 91 95 93 97 98 97 98 99 100 100 100 100 100 99 96 98 93 87 86 89 88 79
59 60 64 40 61 55 74 62 67 70 68 73 83 64 53 47 45 58 61 78 83 88 92 95 87 86 85 90 94 95 100 98 98 97 97 98 98 99 99 100 100 100 90 92 91 89 88 86 78
45 58 65 90 69 74 62 51 26 60 60 73 84 61 45 35 39 59 58 74 85 88 92 94 88 86 85 86 95 95 99 100 96 94 95 96 99 100 100 99 98 100 100 94 92 92 91 78 74

GFSSGP_925_rhum_111.txt.gz
RH
30 26 21 28 37 42 38 30 21 17 17 15 15 16 17 15 16 24 33 39 55 54 55 61 59 58 55 59 67 65 66 68 78 86 83 80 77 79 81 85 86 93 98 99 96 95 98 99 93
25 22 27 38 44 44 34 29 22 20 16 15 13 15 16 24 50 54 58 46 52 50 53 59 58 57 52 55 66 70 71 68 69 76 81 84 92 89 87 90 91 92 96 96 94 95 99 100 91
20 30 38 39 52 46 34 24 15 14 16 16 12 12 18 30 53 62 41 39 55 50 53 56 55 56 51 53 61 70 76 66 67 68 72 72 72 76 78 81 89 90 89 93 94 98 100 96 85
24 36 35 35 42 38 30 22 20 16 13 14 13 14 16 26 49 43 38 40 52 53 57 57 55 56 53 54 60 63 61 62 73 77 70 74 80 85 82 83 83 88 94 90 88 99 96 85 86
24 32 35 32 31 25 21 18 16 16 14 15 15 15 17 33 41 38 37 39 48 53 54 57 59 59 59 55 61 66 64 70 74 69 75 72 80 81 88 88 89 88 92 92 93 89 79 81 75
35 30 34 35 29 22 19 17 18 17 18 15 16 19 23 36 42 41 39 38 43 48 57 62 65 64 65 65 66 68 67 73 76 70 78 77 65 64 72 84 88 84 86 90 89 70 74 87 88
35 38 34 29 29 26 18 14 15 17 15 16 15 24 41 54 38 48 41 44 56 60 60 69 71 72 73 76 78 75 74 74 73 83 76 61 61 64 56 85 85 80 86 89 82 70 85 93 84
35 36 37 33 30 26 17 15 12 14 14 13 18 40 44 50 49 55 52 54 59 62 61 63 72 77 82 88 99 93 85 84 79 80 69 57 68 67 55 86 86 78 81 84 88 83 88 90 74
27 41 47 34 28 23 17 18 15 12 14 13 13 32 30 40 49 57 61 66 75 74 68 66 72 79 83 86 99 96 91 94 86 81 68 60 82 76 71 88 86 82 79 84 85 86 88 75 68
32 45 37 28 22 22 19 18 17 15 17 15 16 20 47 55 60 75 82 84 83 78 76 71 74 76 77 83 90 98 96 100 91 90 75 77 84 74 82 56 85 83 73 76 83 84 70 61 69
29 34 27 21 20 20 20 19 17 16 19 16 14 14 60 68 65 71 73 73 71 64 70 75 77 74 67 70 71 76 98 100 100 97 82 80 77 73 68 67 88 86 73 82 80 72 58 58 68
37 27 23 21 20 21 22 19 18 17 16 14 15 15 61 69 70 69 70 70 63 68 64 69 74 76 72 73 77 79 82 89 100 100 93 90 90 83 79 61 63 83 74 80 76 70 59 60 69
34 30 28 26 25 24 22 22 20 19 16 16 17 17 52 67 65 60 59 59 58 63 63 70 73 80 81 84 84 93 90 84 99 99 100 100 98 99 88 100 100 90 76 72 77 68 64 67 66
27 27 27 26 25 24 24 24 22 19 17 18 18 20 29 61 64 59 59 58 55 55 66 71 80 82 84 84 91 87 81 76 95 99 97 99 100 99 90 100 100 91 73 65 71 66 62 61 64
18 21 22 23 23 25 22 26 25 19 19 24 25 25 25 23 36 60 54 55 50 53 66 73 85 86 84 85 80 81 80 86 88 93 100 100 100 99 100 100 99 89 63 51 69 61 61 60 66
18 21 28 26 25 22 23 29 21 19 25 28 27 26 26 27 23 26 42 50 51 61 67 84 86 80 81 85 85 83 80 84 95 96 98 100 100 96 100 100 99 90 60 55 65 57 59 62 64
23 26 29 25 21 22 23 22 20 22 25 29 28 30 29 26 25 22 27 47 55 65 72 83 83 79 87 88 88 92 84 84 99 100 100 100 100 100 99 98 100 87 56 48 54 52 57 60 64
31 29 29 27 19 20 27 25 18 25 29 30 31 30 30 30 24 23 32 57 72 75 75 77 81 84 92 95 99 100 95 95 99 100 100 100 100 94 89 95 98 85 52 49 51 51 56 57 64
22 24 26 20 16 15 16 18 16 17 27 31 28 23 24 26 24 26 56 73 86 84 81 80 86 90 92 98 98 100 99 99 98 99 99 98 100 100 100 99 93 76 50 42 43 53 54 58 67
19 22 21 17 13 18 19 19 17 21 20 26 28 27 27 23 29 60 85 90 84 92 88 85 87 91 91 83 99 98 98 99 99 98 99 94 94 97 97 94 89 70 57 47 54 62 64 58 65
24 23 22 19 17 19 23 26 25 22 26 29 31 28 26 26 26 62 92 94 92 95 92 90 88 90 91 87 99 100 99 98 100 99 100 100 100 99 100 93 86 68 61 53 53 61 67 65 68
42 24 21 21 32 38 26 38 25 24 24 23 24 22 26 27 29 57 87 96 96 94 92 90 89 89 92 94 94 95 98 98 98 99 100 100 100 100 100 95 86 72 65 56 64 68 68 66 70
36 30 34 34 36 36 34 46 28 26 24 24 22 21 24 23 35 65 80 87 92 95 95 92 91 91 93 94 93 91 92 93 99 99 100 100 100 100 100 100 89 84 69 70 61 79 74 66 66
22 24 30 37 42 52 31 41 29 30 26 25 22 21 40 37 31 50 65 84 94 100 99 95 97 96 82 84 92 88 86 90 94 99 100 100 100 100 100 100 94 84 81 81 75 76 73 65 62
24 35 46 48 62 48 31 43 30 28 25 31 51 51 49 46 43 39 67 91 96 99 100 100 100 94 90 91 87 88 82 82 80 88 94 100 100 100 100 100 100 100 91 83 81 76 73 63 62
31 37 52 42 50 40 36 53 40 31 39 58 54 58 54 53 47 51 63 86 93 96 99 99 100 99 94 90 85 83 84 82 83 89 90 97 97 99 100 100 100 100 100 94 90 82 78 68 69
34 37 28 38 40 60 45 41 30 37 58 59 62 70 64 59 52 49 72 84 88 95 98 98 99 98 98 83 89 84 87 93 99 97 95 98 100 100 100 100 100 100 100 97 96 97 86 89 96
44 39 38 54 60 49 47 54 55 45 65 63 69 79 74 63 56 49 78 84 88 90 97 98 98 98 99 83 93 99 95 99 99 99 99 100 100 100 99 100 100 100 100 100 99 100 95 99 99
49 69 70 68 61 65 54 47 56 66 69 76 76 75 76 71 65 57 56 80 82 89 97 99 100 100 99 86 84 98 98 97 100 100 99 99 100 100 100 100 100 100 100 100 100 99 100 98 99
47 75 82 86 88 82 89 72 45 45 74 73 76 63 74 78 68 52 49 86 92 94 95 98 98 100 98 92 88 94 94 88 100 100 100 100 100 100 100 100 100 100 100 100 99 98 93 97 94

GFSSGP_925_rhum_117.txt.gz
RH
27 22 22 26 26 28 25 22 21 19 17 16 16 16 16 16 30 18 28 39 35 32 43 52 55 100 67 66 60 58 71 81 79 76 74 76 74 78 84 85 85 86 88 94 93 87 94 93 86
30 21 26 28 26 22 17 24 21 17 14 17 14 16 16 15 26 34 37 40 34 32 38 46 51 100 70 69 60 58 64 90 82 76 74 76 79 83 86 84 85 85 86 90 96 96 97 91 86
23 28 23 27 32 16 16 22 17 17 15 16 13 13 14 16 37 37 23 28 38 37 33 42 46 98 75 72 63 58 64 94 82 75 76 76 74 78 76 81 85 84 86 85 94 93 91 92 86
27 27 26 24 21 26 24 19 19 18 14 14 13 13 14 18 33 32 20 23 38 41 42 41 45 97 81 72 67 62 63 77 90 71 80 82 74 68 70 69 81 82 82 84 95 90 86 96 88
24 26 24 27 26 24 23 23 18 15 16 16 14 14 15 20 25 32 26 25 33 42 46 50 48 58 74 72 71 68 63 69 87 80 71 69 68 85 78 79 81 82 84 85 89 89 86 99 92
22 24 21 15 16 20 18 16 16 16 17 17 17 17 15 31 39 34 29 32 35 41 51 58 56 61 63 69 72 75 70 71 65 71 74 74 68 84 60 80 74 78 76 83 85 83 88 98 93
16 24 19 20 20 20 18 17 17 15 16 15 16 18 17 24 27 43 46 42 49 52 50 62 69 75 73 63 71 81 78 74 69 86 72 64 71 68 46 71 53 74 83 81 85 89 93 98 93
22 22 28 22 12 12 16 15 16 14 14 13 18 21 16 14 28 42 56 60 60 58 58 58 66 86 97 99 84 78 86 78 80 85 64 75 72 64 67 66 61 66 53 79 88 93 93 97 90
27 24 24 15 20 14 17 18 16 14 14 15 13 16 15 26 34 61 69 76 75 68 66 66 66 82 96 98 100 90 85 81 80 84 78 72 69 69 67 56 57 53 51 82 84 91 92 92 86
28 28 24 20 16 17 18 19 17 16 18 16 18 17 17 38 52 53 60 61 75 83 70 72 74 81 97 100 99 98 92 90 86 93 80 69 75 86 78 65 66 62 70 81 84 89 90 80 89
30 26 30 24 21 21 20 19 16 18 18 19 19 17 20 27 42 54 55 55 58 67 82 72 80 88 94 99 98 98 94 95 96 97 93 80 81 70 77 78 83 82 81 82 83 85 93 93 90
32 31 25 23 21 22 21 20 20 21 21 18 17 16 17 19 30 45 52 55 60 74 78 72 79 83 94 98 100 100 94 98 98 99 98 92 85 75 90 94 98 96 96 100 89 92 95 100 96
37 29 27 23 21 23 23 25 25 24 19 18 16 19 21 21 23 40 54 59 65 68 62 60 70 80 89 96 100 99 99 86 93 98 99 97 99 97 80 93 92 91 98 99 90 96 93 96 91
29 30 27 24 25 25 26 24 24 22 21 21 21 21 22 24 24 35 48 49 55 55 60 60 63 75 82 87 94 99 99 97 89 100 99 99 100 88 87 84 96 99 96 99 92 89 86 90 89
22 24 21 22 23 25 24 26 27 20 20 22 22 24 20 21 23 26 29 30 27 26 33 53 62 71 79 84 85 87 91 98 100 100 99 99 100 88 83 87 86 100 90 99 96 92 78 86 87
19 20 24 21 20 21 23 27 21 20 18 14 13 16 20 21 20 21 24 24 22 28 32 45 66 88 78 83 83 79 78 82 89 86 98 100 100 99 100 100 100 96 98 90 94 86 81 81 84
24 26 26 24 22 24 26 27 20 19 14 12 12 14 17 19 22 20 22 22 22 22 26 50 75 92 83 90 85 81 83 90 99 99 99 99 100 100 100 100 100 97 99 93 92 83 78 79 81
23 27 26 23 19 21 22 26 19 16 12 13 14 16 19 20 17 16 19 20 24 21 25 55 87 95 93 93 90 93 99 95 100 100 100 98 100 100 100 100 100 100 100 96 89 82 76 76 79
21 26 25 23 18 18 18 18 15 12 13 15 16 16 18 19 18 19 24 26 33 52 68 83 93 100 100 100 100 100 100 98 99 99 98 98 94 95 100 100 99 100 99 93 86 81 80 82 80
19 22 24 22 17 20 17 18 17 16 16 16 17 18 20 21 20 26 33 34 49 66 84 91 94 100 100 100 100 99 99 99 100 100 99 92 96 99 100 100 100 99 98 96 87 77 77 78 86
20 23 23 19 17 19 22 23 22 20 18 20 21 22 21 22 40 41 42 44 56 71 90 95 96 100 100 99 100 100 95 98 100 100 100 98 100 99 100 100 100 100 98 92 85 80 73 77 86
29 20 18 18 29 33 26 28 22 21 22 21 20 24 34 46 46 44 46 45 54 65 87 94 99 100 100 100 96 96 96 96 99 99 98 99 100 100 100 99 99 100 94 87 81 82 71 76 80
26 32 25 29 33 34 33 34 26 22 17 20 23 37 48 51 50 49 49 50 56 77 90 96 100 99 100 100 98 93 97 95 99 99 98 100 100 100 100 100 100 99 92 82 73 80 73 72 72
33 34 34 38 38 41 31 26 21 19 22 24 40 48 56 55 52 48 49 48 52 92 99 100 100 100 99 100 99 96 94 96 98 99 100 98 100 100 100 100 100 98 88 78 70 73 74 72 71
30 32 36 43 48 28 29 34 24 24 34 50 52 52 56 50 47 48 49 49 51 72 96 97 100 98 100 99 100 99 99 99 96 98 99 100 100 100 100 100 100 97 94 81 69 71 74 72 74
35 32 30 25 27 23 35 30 30 49 51 50 51 54 50 45 45 47 50 51 52 58 82 96 97 98 100 99 100 100 100 98 98 99 100 97 100 100 99 100 98 99 94 85 70 70 74 73 72
37 38 26 27 37 41 34 32 38 46 46 39 40 50 54 53 51 55 56 56 62 63 64 92 96 97 100 100 100 100 100 95 93 97 99 100 99 95 100 99 99 100 94 93 83 76 77 75 75
38 36 42 44 48 45 36 36 42 42 39 32 32 43 53 53 56 59 60 61 68 76 70 91 95 98 100 100 99 97 98 96 90 85 91 94 97 99 100 100 100 100 100 95 87 84 82 76 79
42 52 62 51 60 38 39 35 45 42 39 27 23 27 47 58 60 56 57 60 61 75 84 96 99 98 100 99 96 94 98 91 86 79 82 96 97 100 100 100 100 100 99 100 99 94 91 81 86
59 73 68 56 68 70 60 46 40 39 30 25 24 23 39 59 62 57 58 54 62 68 90 98 100 98 99 95 94 94 89 85 84 85 90 98 99 98 99 100 100 100 100 100 100 99 95 87 93

GFSSGP_925_rhum_120.txt.gz
RH
31 23 18 17 14 13 10 12 13 12 13 12 12 14 13 11 13 13 24 33 43 36 53 40 46 48 70 67 62 58 62 74 81 77 72 73 82 87 87 86 86 85 85 92 90 89 96 86 86
32 20 19 14 12 10 7 12 13 12 12 12 12 12 12 12 12 17 25 44 44 43 52 62 41 48 71 67 62 59 64 77 80 79 77 79 84 88 86 86 86 83 84 86 92 96 95 86 85
26 22 13 10 9 8 6 12 11 12 10 13 11 10 10 11 16 16 22 44 46 45 50 62 39 40 58 65 61 60 91 86 77 80 79 79 86 88 86 82 82 84 82 86 95 95 91 86 86
18 14 11 11 9 8 8 11 13 12 10 10 10 11 10 10 15 20 25 41 44 45 49 63 40 45 59 64 58 57 71 98 84 81 76 79 83 86 83 85 80 86 81 80 82 84 90 87 86
14 11 10 11 8 7 9 12 14 11 11 12 10 11 10 14 19 28 27 36 40 48 55 68 47 58 64 64 59 56 62 95 95 82 76 77 77 75 50 78 66 73 85 84 87 86 86 89 87
11 11 11 9 7 9 9 9 11 10 12 12 12 12 11 20 22 28 34 38 46 54 68 79 48 73 78 74 68 63 59 67 98 85 76 77 83 69 53 75 48 53 79 84 87 86 84 92 92
14 12 11 9 8 8 9 8 10 8 12 14 11 14 11 12 24 38 42 46 59 66 76 79 48 84 90 84 78 74 66 62 69 78 75 72 78 68 66 60 76 68 81 76 85 83 84 98 94
13 12 13 10 10 8 8 10 11 9 10 10 11 14 14 11 26 44 54 56 65 75 79 77 83 84 97 98 88 82 76 66 62 78 81 76 72 67 69 66 70 76 69 69 78 87 85 98 95
14 16 16 13 11 9 9 12 10 10 11 11 10 11 11 15 24 31 40 55 59 68 74 81 91 97 97 99 98 90 86 72 70 85 83 79 83 86 77 78 67 60 62 72 76 82 88 96 95
17 17 16 11 10 10 10 12 12 12 11 11 12 11 13 14 17 18 22 30 48 56 67 79 87 94 98 98 99 98 100 94 92 93 96 78 72 82 75 77 63 64 78 81 89 88 86 93 92
18 19 14 14 12 10 11 11 10 11 10 10 11 11 12 14 16 19 21 22 28 44 56 71 87 92 99 100 99 97 98 92 86 85 87 82 75 82 78 72 78 69 79 77 72 83 91 78 66
24 17 16 14 14 13 14 12 13 13 12 10 11 12 13 14 14 16 19 23 26 38 49 66 81 96 98 100 99 98 96 97 92 87 88 84 84 79 75 74 77 83 93 91 98 96 76 66 59
24 19 16 17 17 16 15 16 16 15 13 13 12 14 16 15 15 15 21 26 30 37 46 59 73 92 99 100 99 99 96 95 96 98 96 93 88 84 83 88 84 83 90 88 86 83 71 70 75
14 19 18 16 17 16 18 17 16 15 15 16 16 16 16 16 16 17 20 21 22 28 34 48 62 76 97 100 99 99 98 97 98 99 100 99 97 97 94 79 89 83 88 84 80 73 67 71 76
16 19 15 16 17 18 18 21 21 16 15 16 17 16 17 14 12 14 15 15 15 15 16 34 44 66 78 97 99 100 100 99 99 100 100 100 99 99 94 91 95 83 87 93 84 79 68 68 73
17 16 19 13 13 15 17 18 15 14 16 17 14 10 10 11 10 10 11 12 13 14 15 20 32 51 70 77 87 99 99 99 98 95 100 99 99 99 99 100 98 97 90 95 89 75 72 67 73
12 17 15 15 15 15 18 18 14 14 14 12 11 8 8 10 12 11 12 13 15 16 17 20 28 44 63 74 77 87 88 100 100 95 97 98 99 99 100 100 100 99 100 100 88 81 69 71 68
14 14 14 14 12 15 17 17 13 13 13 12 10 9 11 11 11 10 12 17 22 25 25 27 29 41 61 74 83 93 96 100 100 98 98 98 99 100 100 100 100 100 100 100 96 85 66 65 61
12 11 12 10 12 15 14 14 12 11 10 9 9 10 11 12 11 12 21 28 35 36 36 42 44 53 68 81 88 98 99 100 99 100 100 99 99 100 100 100 100 100 100 99 94 82 67 60 63
15 14 12 10 12 18 15 12 9 8 10 9 10 11 12 13 14 20 26 31 36 43 49 52 55 64 71 84 92 95 97 98 100 100 100 98 99 96 98 100 100 100 100 100 93 80 66 60 65
18 17 15 14 11 12 13 12 10 9 10 11 13 13 15 19 26 28 32 34 38 42 51 54 55 66 77 72 90 87 96 98 100 99 99 96 96 97 100 100 100 100 100 100 96 82 71 64 68
26 15 15 15 19 18 11 18 14 13 13 14 13 16 23 29 31 31 31 33 37 50 62 60 61 69 91 82 90 86 87 86 88 93 100 99 99 100 98 97 100 100 100 100 96 85 72 63 68
22 17 24 26 21 18 15 22 12 13 16 14 17 28 33 37 36 30 29 33 35 51 69 69 68 89 92 92 81 82 74 70 81 98 100 100 99 96 100 100 100 100 100 100 96 86 74 70 66
16 22 29 28 24 32 21 20 13 14 13 15 28 36 36 32 30 29 29 32 36 43 63 84 82 89 96 96 84 79 73 74 86 98 91 98 100 99 100 100 100 99 100 100 99 88 78 70 65
22 31 38 43 39 33 12 16 14 12 21 29 37 36 34 33 34 32 34 36 42 49 50 68 90 89 100 99 91 83 78 78 82 87 89 92 100 100 100 100 100 100 100 100 99 90 76 73 68
32 32 33 43 33 24 18 20 22 35 35 34 33 35 37 35 34 33 36 42 47 54 58 56 67 90 97 99 100 92 84 82 90 86 84 94 98 100 98 100 100 99 100 98 95 86 76 73 71
36 49 27 31 27 27 20 35 41 34 28 25 26 28 34 35 36 34 33 41 46 53 65 64 61 78 94 100 100 98 95 80 78 82 88 95 98 95 100 99 100 100 100 98 93 89 80 76 77
36 28 34 34 43 31 17 24 25 35 23 14 11 12 19 26 30 33 33 37 38 46 59 77 74 78 88 98 99 97 90 79 82 84 91 97 100 100 100 100 100 100 99 100 94 87 80 80 78
79 54 51 41 30 33 29 21 23 30 26 19 15 13 13 19 27 33 36 35 36 45 53 68 86 91 90 98 99 94 86 83 88 95 95 98 95 97 100 100 100 100 100 100 98 98 93 82 76
51 93 96 81 50 35 31 29 25 32 28 16 16 13 15 14 27 32 35 37 40 48 54 65 87 98 97 96 98 96 86 78 84 85 86 88 85 89 93 92 97 100 99 99 100 99 93 86 77

GFSSGP_925_rhum_123.txt.gz
RH
21 24 14 11 14 9 7 6 6 9 10 8 9 12 10 10 12 16 13 22 21 26 45 30 33 40 52 60 62 61 64 74 72 71 68 71 74 82 83 85 84 84 86 89 92 94 97 89 79
27 14 11 11 12 8 7 5 9 7 9 10 10 12 10 10 9 10 17 30 24 27 43 57 30 38 48 58 60 58 59 69 77 75 75 74 78 87 84 84 82 85 82 91 92 82 81 88 83
31 12 11 10 9 8 5 6 7 8 9 11 10 9 8 9 9 10 16 29 26 27 35 49 36 38 48 58 60 56 54 67 80 81 79 74 77 85 81 80 80 81 78 87 95 87 87 81 83
16 10 10 11 9 6 5 6 8 10 8 8 9 10 8 8 10 12 16 25 25 27 32 49 44 37 48 62 64 61 63 73 81 88 85 78 83 82 84 80 61 95 80 84 77 74 78 82 83
12 9 11 9 8 5 5 6 9 9 8 9 8 10 9 9 13 16 17 24 24 28 36 54 36 37 45 60 64 64 86 97 87 92 81 79 79 83 84 50 34 63 41 68 84 78 77 82 83
11 8 11 10 7 5 5 6 9 10 9 10 10 10 9 14 14 16 20 23 28 33 44 80 46 39 49 56 62 62 63 99 99 94 85 81 81 83 79 44 52 56 51 50 74 78 82 85 84
13 11 12 10 8 6 6 6 7 8 8 11 10 12 9 11 16 24 24 26 34 42 56 70 86 65 59 63 64 63 63 99 98 96 85 84 78 77 68 49 58 55 66 49 71 80 82 88 85
12 13 14 11 10 8 5 6 6 6 6 7 9 10 10 11 17 26 31 32 41 52 65 66 80 90 93 90 73 66 63 67 100 96 92 91 81 77 65 64 64 62 78 82 78 78 79 84 88
11 18 16 12 10 8 6 8 7 6 6 8 8 8 9 11 14 20 30 37 45 55 65 68 80 84 86 86 90 78 71 68 80 95 94 92 91 87 79 81 75 76 84 77 82 80 83 84 91
15 18 16 10 9 9 8 9 8 9 10 8 9 8 9 10 11 13 15 21 37 45 58 66 73 84 84 84 85 93 93 92 93 92 96 97 84 83 74 78 80 86 78 78 77 67 67 85 93
16 20 13 11 9 9 9 8 8 9 10 8 8 7 8 10 12 13 14 15 17 31 43 56 68 81 83 87 93 86 79 82 82 80 80 89 79 74 74 76 81 83 77 94 71 71 74 86 83
16 15 14 12 11 12 12 10 10 9 10 8 8 7 8 10 12 12 13 14 16 18 33 47 59 75 82 78 94 91 78 76 77 77 79 84 79 78 79 81 80 75 81 92 86 74 73 80 68
14 15 13 13 13 13 12 13 13 12 10 9 9 10 11 12 12 12 12 13 17 20 27 40 56 69 77 79 91 93 74 83 71 70 78 82 79 81 79 76 74 72 74 86 89 86 78 68 52
12 13 13 13 14 13 15 15 13 12 11 12 12 13 12 13 13 13 13 14 16 21 26 36 48 62 78 80 93 95 82 69 79 71 76 84 82 79 77 77 76 71 86 91 81 84 76 63 56
13 16 14 13 14 14 14 17 16 12 11 12 13 14 14 13 13 13 14 14 14 15 18 24 37 50 66 83 95 94 86 75 72 75 80 85 89 85 80 84 87 83 85 84 79 89 75 66 66
16 15 19 14 12 11 13 19 12 10 11 12 13 13 14 14 12 10 12 13 12 13 14 15 16 32 52 64 88 97 93 90 78 81 90 92 93 90 90 88 93 89 86 87 89 85 82 66 60
16 20 16 14 10 10 12 15 11 9 12 13 12 13 10 10 10 10 10 10 11 12 13 15 15 20 36 52 64 89 96 98 91 81 89 97 93 93 96 98 95 90 93 87 93 91 78 58 57
16 14 13 13 10 10 14 13 12 10 12 13 10 10 9 8 8 8 9 11 17 18 20 23 22 23 28 44 60 66 92 98 99 95 75 90 97 99 98 100 98 94 99 98 90 89 83 57 59
12 12 13 11 8 10 11 12 12 10 10 12 10 10 8 7 7 8 10 17 23 26 31 29 31 34 32 38 54 64 79 98 100 98 85 95 93 99 99 100 100 100 100 100 94 94 82 60 59
12 14 14 11 8 9 12 13 10 8 9 9 9 8 7 8 9 10 16 22 27 30 34 39 39 40 41 40 51 59 86 99 95 94 91 85 90 98 97 99 100 99 100 100 99 99 88 69 62
10 13 15 14 10 10 12 14 12 8 6 6 7 7 7 10 12 17 21 23 30 34 47 46 40 41 48 48 57 87 97 95 99 97 96 92 95 91 98 99 99 99 100 100 100 100 93 70 63
20 14 13 15 18 21 13 17 10 8 7 8 8 9 11 15 20 20 20 22 27 36 52 53 49 46 52 59 68 90 94 90 94 95 96 90 90 88 92 95 98 100 100 100 100 98 89 77 68
19 15 17 18 22 20 15 15 12 10 12 11 11 12 16 23 24 22 22 23 26 37 44 61 59 55 62 70 68 83 90 80 82 80 90 95 87 87 88 97 100 100 100 100 100 100 97 73 72
17 22 19 22 27 33 23 18 14 13 13 11 12 19 24 24 25 23 23 26 26 38 46 46 63 66 82 88 87 86 86 74 68 72 84 86 90 94 94 96 98 99 100 100 100 100 98 79 76
18 26 48 44 50 52 20 18 15 12 9 10 17 28 26 26 27 25 25 28 31 38 47 49 45 63 79 90 92 94 86 78 68 77 85 89 100 99 99 100 99 100 100 100 100 100 99 84 73
23 26 44 57 50 35 21 26 18 11 21 23 24 26 28 27 27 26 25 28 31 36 43 56 48 49 71 87 92 93 90 80 69 72 76 78 95 99 99 98 99 100 100 100 100 100 100 88 82
30 46 27 40 35 41 28 22 28 26 28 27 24 24 29 29 27 24 24 27 30 29 36 56 62 51 71 83 89 94 93 84 71 68 79 75 94 99 99 99 100 99 100 99 99 100 100 99 89
63 35 61 64 84 61 29 25 32 32 27 23 19 17 16 16 19 20 23 25 27 31 38 49 63 63 67 77 89 98 98 89 75 75 79 84 82 97 99 99 100 99 100 99 99 100 100 97 95
61 67 38 47 59 46 39 26 19 30 22 17 14 14 12 11 11 16 23 26 29 34 41 50 58 70 79 81 86 96 99 96 83 76 80 84 89 91 99 100 100 100 99 100 100 99 99 97 90
45 57 98 94 50 42 35 34 32 24 18 19 17 14 12 12 10 11 21 25 30 38 44 47 58 63 80 90 88 91 92 99 86 82 77 83 86 94 99 100 100 100 100 98 100 100 100 97 92

GFSSGP_925_rhum_126.txt.gz
RH
20 16 25 16 18 16 11 7 5 7 8 7 7 10 10 10 14 22 18 20 28 38 15 23 31 42 49 56 62 64 66 68 66 65 64 63 70 75 80 82 83 83 85 85 83 81 68 63 64
27 22 15 11 18 14 9 6 5 7 8 8 8 11 10 10 9 15 23 20 26 36 22 24 25 35 46 56 61 61 66 74 70 68 69 69 73 75 79 83 83 81 79 79 89 94 70 70 68
28 26 10 14 13 14 9 5 6 9 10 10 10 8 9 8 9 12 22 20 24 34 46 25 22 31 44 54 58 62 64 71 73 72 72 72 72 74 82 81 82 76 82 93 89 81 74 72 71
23 16 10 14 14 9 7 5 5 9 8 8 8 9 7 8 9 13 20 20 22 28 38 41 22 27 39 53 57 59 64 81 78 78 78 75 73 77 85 77 66 70 55 46 85 88 74 75 76
20 12 14 12 9 7 5 4 7 8 8 8 7 9 8 8 11 14 20 20 22 28 34 43 26 26 38 47 55 58 68 98 87 85 82 77 74 81 83 70 53 55 46 47 56 77 76 79 76
18 13 17 14 10 7 5 4 6 9 8 8 9 9 9 9 13 14 20 21 23 32 42 45 32 29 37 47 56 58 66 98 87 92 98 83 82 80 81 54 43 42 45 48 63 71 76 80 78
17 15 15 12 11 9 6 5 6 6 9 10 8 11 10 13 17 19 18 23 28 42 51 58 41 35 38 46 57 58 64 96 94 98 98 90 85 79 78 68 45 54 45 68 71 57 69 74 78
15 15 17 14 13 11 7 6 6 6 7 5 8 11 12 20 20 24 23 25 33 45 58 71 55 50 48 53 56 61 61 78 100 97 98 94 85 79 78 62 60 55 56 68 65 72 70 67 69
13 19 19 16 14 12 8 7 6 5 6 5 9 9 9 12 16 23 29 30 39 54 63 72 78 75 69 67 61 69 64 63 97 100 100 96 92 86 82 63 66 56 65 60 66 64 65 62 64
16 20 18 13 11 10 8 8 7 7 8 7 9 8 8 10 11 17 26 36 42 53 68 70 78 83 87 87 83 70 70 70 85 99 100 99 96 90 86 78 76 65 71 80 78 67 63 63 64
15 18 14 13 11 10 10 10 7 8 9 9 9 9 9 10 12 16 15 17 38 49 60 70 77 81 85 79 83 83 90 82 88 91 93 91 91 92 82 83 80 82 81 90 78 74 66 75 82
16 14 13 13 12 12 12 10 10 10 9 8 8 8 8 10 13 17 18 15 15 34 50 61 72 82 80 81 81 89 88 87 90 86 86 92 87 88 84 82 83 82 85 82 80 70 70 75 81
15 13 11 11 12 12 12 13 13 12 10 9 8 9 12 12 12 12 12 13 14 15 36 56 64 75 83 79 84 85 83 82 84 83 82 90 90 87 83 83 85 84 88 74 88 73 73 76 77
13 12 12 11 12 12 14 14 14 13 11 12 11 13 13 13 13 14 14 14 13 15 20 50 56 71 80 79 85 85 89 78 78 79 81 80 88 84 82 85 85 80 80 82 89 78 70 75 68
14 18 16 14 12 12 12 16 15 12 11 12 12 12 13 13 12 13 14 14 14 14 19 29 50 61 73 80 82 86 88 83 80 75 76 80 84 83 84 83 84 79 78 82 82 71 69 76 83
17 17 21 15 13 12 13 20 14 12 12 13 12 12 13 14 14 13 13 13 14 15 17 26 38 47 64 74 80 81 88 86 83 81 75 79 83 84 84 84 83 82 80 80 81 81 86 77 77
18 25 22 18 12 12 13 16 12 10 10 11 11 11 12 14 16 13 12 12 13 14 14 16 18 40 49 70 79 83 84 86 83 79 79 82 88 88 88 85 87 91 88 81 82 86 91 87 77
20 18 16 18 13 12 12 14 11 10 10 11 11 12 13 14 13 11 10 10 14 17 19 19 19 18 30 54 73 85 93 89 88 80 84 87 81 97 94 92 91 95 97 90 83 87 87 90 87
14 15 15 12 10 12 20 18 15 11 11 13 13 14 12 12 9 8 9 11 18 21 25 28 28 26 27 31 54 67 95 97 97 89 75 94 81 86 90 96 90 93 100 94 83 96 96 98 92
13 15 16 13 11 13 14 19 15 12 11 11 10 13 12 11 9 9 11 17 22 26 29 30 35 36 37 36 34 52 64 86 98 96 82 81 94 84 88 93 98 98 100 100 96 95 99 91 85
17 16 15 13 11 12 16 20 17 11 9 10 10 8 10 10 9 13 23 22 28 30 43 46 46 45 39 41 40 45 65 85 100 100 94 75 94 79 90 98 99 100 100 100 99 93 93 88 91
17 13 15 15 16 20 14 25 18 13 12 11 10 9 10 11 15 20 24 24 27 38 42 52 57 52 44 45 48 66 87 94 96 96 93 79 88 95 87 89 96 97 100 98 99 100 95 86 91
18 14 15 18 22 22 21 26 22 14 14 12 10 10 12 16 22 23 22 24 24 40 44 46 57 60 54 61 60 71 89 88 92 92 94 87 90 87 95 91 87 99 100 100 100 100 100 95 83
15 17 19 21 27 37 27 26 24 18 13 14 12 12 18 27 26 22 25 24 29 40 44 51 50 59 63 76 74 80 86 89 90 89 95 94 89 91 88 79 97 100 100 100 100 100 100 100 88
19 23 35 62 54 50 26 30 26 17 14 16 12 17 27 28 31 28 27 28 30 36 42 48 53 48 65 77 77 79 87 84 77 84 90 95 94 91 89 84 98 100 100 100 100 100 100 100 97
34 48 45 42 46 39 27 41 26 16 14 19 15 26 27 29 29 27 25 28 29 30 34 48 54 58 62 76 77 82 91 93 85 88 83 81 87 87 88 90 99 97 100 100 100 100 100 100 98
51 51 40 55 38 42 46 30 22 20 17 26 27 28 29 30 30 26 24 27 28 28 36 48 52 59 63 70 71 81 92 95 91 86 78 78 91 86 94 95 98 100 96 100 99 100 100 100 100
36 37 65 68 78 59 38 34 40 33 25 28 30 29 30 27 23 21 22 25 26 30 38 45 51 59 63 74 76 73 86 93 92 87 84 70 84 86 98 92 99 98 98 99 99 100 100 100 99
45 54 45 60 87 55 53 33 28 49 60 36 27 20 18 16 14 14 20 23 25 33 38 44 54 58 64 72 83 84 86 90 92 90 81 77 80 91 91 92 97 99 100 100 100 100 100 100 99
27 92 98 85 88 67 54 47 32 36 53 54 16 15 16 13 13 13 13 20 24 31 36 46 54 61 68 71 81 89 90 90 92 98 90 83 81 92 88 94 96 100 100 100 100 100 100 99 100

GFSSGP_925_rhum_129.txt.gz
RH
10 18 18 25 34 34 32 21 14 11 9 11 10 13 13 15 23 37 40 22 14 16 23 24 24 34 45 52 58 63 67 70 68 61 61 64 67 72 76 81 83 78 80 78 75 72 66 64 67
14 26 28 27 29 32 26 16 14 11 12 12 10 12 13 19 22 28 43 31 12 14 20 18 21 30 40 48 55 60 64 68 69 70 69 69 70 72 80 83 78 72 74 80 80 75 68 64 63
20 31 39 25 29 32 28 14 10 13 12 12 11 10 10 13 22 27 32 26 20 16 17 16 21 28 37 46 52 58 61 66 70 73 72 70 71 76 81 78 69 72 71 70 70 63 68 64 66
24 31 26 22 26 20 16 12 8 12 11 10 9 11 8 10 19 21 31 26 24 18 20 17 20 29 35 44 50 55 59 66 71 75 75 72 74 75 78 69 71 67 64 64 55 67 72 69 65
25 32 24 25 21 14 11 8 7 11 10 10 9 10 10 14 20 19 25 27 28 27 37 24 22 28 37 44 47 50 54 62 73 76 76 75 81 79 77 71 66 63 45 48 58 67 67 73 66
32 28 30 30 20 14 11 9 8 10 11 10 10 11 15 19 23 20 20 27 25 30 40 36 26 27 37 43 46 47 48 50 74 78 77 77 82 79 80 74 53 54 45 53 58 66 63 64 67
40 33 30 25 20 16 12 9 7 10 11 13 10 12 14 20 21 20 20 25 26 30 37 42 28 31 38 45 48 50 50 66 82 82 89 81 80 80 76 65 50 57 46 49 56 54 58 63 66
30 29 30 26 23 20 13 11 8 7 10 9 10 13 14 26 23 22 23 33 30 34 37 41 34 34 40 51 56 55 54 71 88 96 99 87 82 81 80 70 46 58 53 63 62 68 73 74 66
20 30 31 27 23 19 14 13 11 6 6 6 10 12 21 19 19 25 37 58 55 53 48 48 38 37 44 50 59 61 58 60 94 98 98 94 87 85 85 81 52 54 52 61 60 60 67 64 61
26 31 28 21 18 18 14 14 14 9 8 8 11 11 17 20 22 30 37 55 69 66 62 58 55 43 48 55 57 65 66 62 83 99 98 97 89 86 86 79 62 57 57 63 56 66 65 63 62
20 25 20 19 17 15 15 16 14 13 12 11 12 13 13 16 18 30 36 37 55 57 62 63 66 61 57 62 62 64 69 74 68 99 98 97 97 90 87 84 75 64 69 68 78 76 66 64 60
22 17 17 17 15 15 16 16 16 15 14 12 10 11 12 12 20 22 25 35 47 61 60 64 66 74 71 73 79 67 67 73 71 78 93 98 98 95 92 85 81 71 74 77 80 74 69 61 62
20 17 15 15 14 14 16 17 17 15 14 14 13 14 15 16 14 17 13 14 22 51 59 68 69 73 76 76 82 83 76 76 72 76 87 86 90 94 92 87 86 82 78 83 81 75 70 66 64
20 19 19 17 16 14 15 16 17 15 15 15 14 16 18 18 16 15 16 15 16 22 54 68 71 72 76 74 81 84 81 90 83 82 83 91 84 91 92 88 85 83 83 86 78 73 74 76 71
17 19 18 18 18 18 17 19 18 15 15 14 14 14 13 17 16 17 14 14 13 14 20 59 72 70 74 78 75 80 78 85 88 85 84 83 92 88 90 86 86 82 82 81 81 75 72 70 71
19 20 25 18 19 17 17 23 16 15 15 15 13 13 13 13 17 14 13 13 12 13 14 44 67 69 72 78 76 78 84 78 88 83 84 82 84 91 88 85 86 86 83 84 83 78 81 77 80
23 30 26 21 16 18 19 20 15 15 14 14 14 13 14 13 19 15 13 14 14 15 18 50 68 77 70 71 75 74 80 85 78 88 78 82 81 85 86 85 87 87 84 84 84 83 78 84 82
26 29 22 23 18 18 19 18 18 16 16 16 14 13 14 14 18 18 14 13 18 18 20 20 26 50 58 65 74 82 86 83 76 80 89 75 80 81 85 86 86 87 82 85 90 87 84 83 82
17 20 21 17 14 16 15 23 23 20 18 17 14 12 12 17 17 14 13 15 18 22 25 27 29 29 29 67 76 93 90 85 81 80 75 80 80 84 85 86 87 90 86 85 87 94 88 89 99
20 20 20 16 15 16 16 15 19 16 14 13 12 12 12 11 14 11 17 23 27 31 33 37 44 45 44 39 50 75 80 93 86 86 80 79 71 81 82 87 90 93 95 94 94 93 100 100 99
19 23 25 23 18 15 14 16 20 17 14 13 12 9 11 11 13 22 33 38 30 44 41 44 45 51 51 47 43 38 76 88 96 100 91 81 78 76 85 85 93 91 96 99 98 95 94 97 100
21 18 20 22 21 27 17 30 19 18 19 16 13 10 12 12 21 25 32 42 49 46 44 41 42 49 59 57 51 43 47 84 97 100 90 81 72 81 86 92 89 88 99 100 99 94 94 92 96
16 14 19 24 29 31 27 33 26 19 20 17 14 12 11 14 26 29 36 47 45 42 45 48 50 49 52 65 72 70 70 76 83 96 90 70 74 81 84 99 92 91 100 100 99 100 99 95 90
14 15 19 26 30 40 31 36 32 26 22 18 14 12 11 21 29 32 30 49 50 45 44 43 49 56 59 53 54 73 88 85 90 94 96 92 79 90 89 96 96 96 99 100 100 99 100 99 89
27 51 60 53 47 48 31 40 34 24 21 19 18 32 25 30 34 36 37 41 45 48 47 47 47 58 68 68 67 70 78 92 85 84 92 96 85 95 98 94 93 96 93 88 99 97 98 100 99
32 64 94 89 69 50 37 47 33 22 19 18 17 34 33 36 35 37 36 38 40 46 49 52 52 58 62 75 75 71 75 83 91 89 89 91 91 83 87 90 95 92 92 89 99 100 100 100 100
28 47 67 93 78 91 54 37 27 23 24 22 19 33 42 47 44 40 35 36 35 50 51 51 57 56 59 68 71 80 70 75 85 89 85 97 90 83 86 88 92 92 99 100 100 100 100 100 100
37 48 79 84 96 89 60 45 48 34 58 63 51 44 46 50 37 30 34 37 39 46 50 54 54 58 60 61 70 76 82 84 80 90 100 93 92 88 85 84 90 94 98 100 99 100 100 100 100
38 54 67 85 80 74 91 60 86 92 76 73 64 58 38 33 26 22 27 28 40 40 48 57 62 64 65 68 70 71 78 86 90 91 94 100 90 88 84 89 87 87 90 100 100 99 100 100 100
39 69 99 97 93 85 86 85 73 87 77 65 71 43 43 16 16 14 14 25 30 48 59 60 62 65 68 74 70 75 80 88 94 92 90 97 97 91 89 90 90 87 97 99 98 100 100 100 100

GFSSGP_925_rhum_132.txt.gz
RH
16 19 21 26 30 40 41 27 18 16 14 10 13 14 15 18 24 35 37 25 22 26 35 39 43 41 44 53 58 62 64 65 60 61 59 65 68 68 74 80 76 73 72 73 71 71 71 71 71
15 25 29 30 33 33 27 24 18 16 15 11 12 15 16 29 32 54 44 28 22 18 28 32 35 36 40 48 56 62 66 67 63 63 66 70 69 70 74 74 70 68 71 71 68 63 61 64 71
24 34 47 29 37 35 29 18 12 12 13 12 11 11 17 26 40 46 29 24 20 18 21 27 30 31 35 45 51 58 65 68 67 68 70 73 73 75 72 71 69 69 68 64 60 61 64 71 71
24 34 40 26 29 26 22 17 15 12 12 10 11 11 11 21 36 30 20 22 16 17 21 22 24 27 33 41 48 55 62 67 69 71 72 77 76 76 73 69 69 68 67 64 60 62 63 66 71
27 38 37 28 25 20 15 14 12 10 12 12 10 11 14 21 24 26 20 17 13 20 20 21 22 25 32 42 45 50 55 61 67 73 75 79 77 76 75 70 69 61 64 62 60 64 68 66 73
35 36 37 37 25 18 16 13 12 12 12 12 10 14 17 26 37 47 36 16 17 18 18 19 23 25 31 41 45 48 50 56 65 72 75 79 75 75 71 69 66 52 51 62 60 63 55 68 75
44 45 38 30 28 23 17 14 14 13 12 14 12 13 21 28 35 40 29 23 21 20 20 20 25 28 34 39 45 47 50 57 68 74 75 78 76 73 71 68 52 47 50 55 65 61 49 55 76
44 43 42 38 34 32 20 17 15 14 11 11 10 15 25 30 26 34 34 34 32 29 28 24 27 32 37 44 44 45 47 54 70 78 78 78 81 76 76 61 52 47 45 60 66 60 53 53 72
24 41 50 43 33 27 18 18 15 13 13 10 9 13 16 25 30 47 62 68 61 50 42 38 30 36 39 46 51 49 49 54 74 73 87 81 86 83 80 67 50 54 50 56 56 53 59 61 68
32 45 39 28 24 24 20 19 18 15 16 13 14 24 27 28 37 62 74 84 82 68 56 46 37 36 47 54 64 68 65 70 83 85 98 90 84 85 83 76 57 55 55 62 59 62 66 52 50
24 31 27 24 22 22 21 20 17 16 16 15 14 16 26 28 34 53 65 71 64 49 56 52 44 35 43 58 67 78 80 75 85 94 95 95 88 90 89 83 61 62 63 64 56 64 63 59 54
25 21 21 20 18 19 20 17 18 18 17 14 15 13 13 16 33 42 56 63 61 62 48 55 55 43 39 52 63 75 89 86 91 97 98 98 95 96 92 86 73 67 64 66 58 69 68 63 60
25 22 20 19 18 18 18 20 19 16 17 15 16 16 16 18 17 16 32 51 61 67 60 56 62 62 50 51 56 65 83 97 96 90 100 100 99 98 95 91 81 73 66 67 63 70 74 67 64
23 23 23 21 21 21 20 20 18 16 17 17 16 19 21 20 20 17 19 27 54 62 60 55 60 65 67 61 63 65 70 73 84 82 95 100 100 100 97 96 88 80 67 70 66 75 73 70 66
14 20 19 18 19 21 20 23 22 18 16 19 18 17 16 18 17 20 13 19 24 39 53 67 59 66 71 70 66 73 72 70 71 76 82 98 97 100 96 95 91 88 80 75 77 80 77 72 76
14 18 28 19 19 18 20 26 20 17 17 17 15 14 16 16 16 15 13 13 14 17 38 54 65 66 68 73 71 78 82 78 80 84 82 85 92 95 97 97 92 88 87 85 86 82 84 80 80
20 24 24 20 17 19 20 23 19 17 17 18 17 17 14 14 17 14 14 12 12 12 15 40 72 69 72 82 85 78 80 82 84 90 87 86 90 94 94 95 94 90 87 91 90 87 81 86 86
24 29 28 26 19 17 21 21 17 18 18 20 19 17 16 14 12 11 12 16 14 16 17 29 69 81 92 87 82 74 81 85 81 84 86 78 82 85 90 91 89 88 89 99 99 92 86 77 79
18 20 22 18 16 19 19 18 16 14 21 18 21 19 16 15 11 10 16 18 24 28 31 61 78 88 88 80 96 96 97 93 89 82 79 80 81 81 87 97 95 90 91 97 100 99 91 91 79
22 21 22 18 17 21 21 20 15 14 20 16 15 17 15 14 11 12 20 33 28 32 34 38 39 45 70 66 64 61 73 82 85 88 76 81 79 74 80 93 100 96 100 100 97 98 99 96 93
16 25 27 27 22 22 21 23 19 15 18 16 16 16 15 13 12 28 42 47 54 53 52 52 54 58 59 56 52 71 86 87 97 98 88 78 82 83 81 78 92 98 98 95 97 99 99 98 100
16 15 17 19 22 28 19 35 23 22 21 19 18 16 17 14 19 33 42 62 58 55 49 49 49 52 60 63 61 56 82 95 89 85 97 86 81 71 78 78 84 90 97 98 95 94 95 98 99
22 26 25 25 24 32 25 42 28 22 25 23 20 17 17 14 31 34 52 58 52 51 53 52 52 52 54 63 70 75 75 77 74 94 100 86 66 63 70 76 85 98 100 100 98 99 100 99 95
23 35 38 35 32 44 31 33 38 25 26 23 18 17 18 15 35 45 54 56 60 52 45 43 48 55 55 67 65 64 77 90 89 93 100 97 64 66 69 71 78 90 98 100 100 96 99 100 94
22 52 82 70 52 41 25 33 30 26 26 24 24 22 21 24 34 51 60 62 59 54 52 50 55 67 74 75 75 72 73 81 95 89 85 95 81 89 76 76 85 96 99 98 98 100 100 100 100
30 55 83 97 73 83 60 58 34 36 58 61 57 22 29 39 38 54 55 58 62 58 55 53 52 56 55 60 71 81 80 77 80 87 98 85 76 75 73 77 87 89 96 99 100 100 100 100 100
36 42 42 72 62 77 60 52 35 71 79 74 59 42 43 48 46 45 49 57 62 60 56 53 55 58 56 60 63 62 62 75 83 82 86 89 88 84 80 74 85 97 89 99 98 100 99 100 100
32 34 67 80 86 80 84 86 94 78 92 88 81 78 64 63 54 54 52 61 61 62 62 58 58 62 61 58 62 62 61 67 76 85 87 90 94 95 90 92 91 98 100 100 100 100 95 100 100
58 56 62 70 87 80 74 80 82 89 90 95 89 76 76 58 71 64 48 56 64 69 72 69 63 63 69 66 63 62 65 67 77 95 96 92 91 100 98 92 91 98 100 100 100 100 100 100 100
50 63 93 98 92 96 91 85 67 78 77 81 96 94 76 75 61 67 67 64 70 72 74 74 72 71 70 68 66 69 70 70 71 76 91 98 94 96 98 99 90 90 88 96 100 100 100 100 100